[[{"header":{"parameterUnit":"m.s-1","parameterCategory":1,"la1":31.0,"la2":29.5877,"lo1":-88.7671,"lo2":-86.6584,"dy":0.0162,"dx":0.0185,"nx":115,"ny":88,"refTime":"2023-07-01T00:00:00:Z","depth":0,"parameterNumber":2,"parameterNumberName":"U-component_of_WINDS"},"data":[0.0,0.0,0.0,0.0,0.0,0.0,0.0,0.0,0.0,0.0,0.0,0.0,0.0,0.0,0.0,0.0,0.0,0.0,0.0,0.0,0.0,0.0,0.0,0.0,0.0,0.0,0.0,0.0,0.0,0.0,0.0,0.0,0.0,0.0,0.0,0.0,0.0,0.0,0.0,0.0,0.0,0.0,0.0,0.0,0.0,0.0,0.0,0.0,0.0,0.0,0.0,0.0,0.0,0.0,0.0,0.0,0.0,0.0,0.0,0.0,0.0,0.0,0.0,0.0,0.0,0.0,0.0,0.0,0.0,0.0,0.0,0.0,0.0,0.0,0.0,0.0,0.0,0.0,0.0,0.0,0.0,0.0,0.0,0.0,0.0,0.0,0.0,0.0,0.0,0.0,0.0,0.0,0.0,0.0,0.0,0.0,0.0,0.0,0.0,0.0,0.0,0.0,0.0,0.0,0.0,0.0,0.0,0.0,0.0,0.0,0.0,0.0,0.0,0.0,0.0,0.0,0.0,0.0,0.0,0.0,0.0,0.0,0.0,0.0,0.0,0.0,0.0,0.0,0.0,0.0,0.0,0.0,0.0,0.0,0.0,0.0,0.0,0.0,0.0,0.0,0.0,0.0,0.0,0.0,0.0,0.0,0.0,0.0,0.0,0.0,0.0,0.0,0.0,0.0,0.0,0.0,0.0,0.0,0.0,0.0,0.0,0.0,0.0,0.0,0.0,0.0,0.0,0.0,0.0,0.0,0.0,0.0,0.0,0.0,0.0,0.0,0.0,0.0,0.0,0.0,0.0,0.0,0.0,0.0,0.0,0.0,0.0,0.0,0.0,0.0,0.0,0.0,0.0,0.0,0.0,0.0,0.0,0.0,0.0,0.0,0.0,0.0,0.0,0.0,0.0,0.0,0.0,0.0,0.0,0.0,0.0,0.0,0.0,0.0,0.0,0.0,0.0,0.0,0.0,0.0,0.0,0.0,0.0,0.0,0.0,0.0,0.0,0.0,0.0,0.0,0.0,0.0,0.0,0.0,0.0,0.0,0.0,0.0,0.0,0.0,0.0,0.0,0.0,0.0,0.0,0.0,0.0,0.0,0.0,0.0,0.0,0.0,0.0,0.0,0.0,0.0,0.0,0.0,0.0,0.0,0.0,0.0,0.0,0.0,0.0,0.0,0.0,0.0,0.0,0.0,0.0,0.0,0.0,0.0,0.0,0.0,0.0,0.0,0.0,0.0,0.0,0.0,0.0,0.0,0.0,0.0,0.0,0.0,0.0,0.0,0.0,0.0,0.0,0.0,0.0,0.0,0.0,0.0,0.0,0.0,0.0,0.0,0.0,0.0,0.0,0.0,0.0,0.0,0.0,0.0,0.0,0.0,0.0,0.0,0.0,0.0,0.0,0.0,0.0,0.0,0.0,0.0,0.0,0.0,0.0,0.0,0.0,0.0,0.0,0.0,0.0,0.0,0.0,0.0,0.0,0.0,0.0,0.0,0.0,0.0,0.0,0.0,0.0,0.0,0.0,0.0,0.0,0.0,0.0,0.0,0.0,0.0,0.0,0.0,0.0,0.0,0.0,0.0,0.0,0.0,0.0,0.0,0.0,0.0,0.0,0.0,0.0,0.0,0.0,0.0,0.0,0.0,0.0,0.0,0.0,0.0,0.0,0.0,0.0,0.0,0.0,0.0,0.0,0.0,0.0,0.0,0.0,0.0,0.0,0.0,0.0,0.0,0.0,0.0,0.0,0.0,0.0,0.0,0.0,0.0,0.0,0.0,0.0,0.0,0.0,0.0,0.0,0.0,0.0,0.0,0.0,0.0,0.0,0.0,0.0,0.0,0.0,0.0,0.0,0.0,0.0,0.0,0.0,0.0,0.0,0.0,0.0,0.0,0.0,0.0,0.0,0.0,0.0,0.0,0.0,0.0,0.0,0.0,0.0,0.0,0.0,0.0,0.0,0.0,0.0,0.0,0.0,0.0,0.0,0.0,0.0,0.0,0.0,0.0,0.0,0.0,0.0,0.0,0.0,0.0,0.0,0.0,0.0,0.0,0.0,0.0,0.0,0.0,0.0,0.0,0.0,0.0,0.0,0.0,0.0,0.0,0.0,0.0,0.0,0.0,0.0,0.0,0.0,0.0,0.0,0.0,0.0,0.0,0.0,0.0,0.0,0.0,0.0,0.0,0.0,0.0,0.0,0.0,0.0,0.0,0.0,0.0,0.0,0.0,0.0,0.0,0.0,0.0,0.0,0.0,0.0,0.0,0.0,0.0,0.0,0.0,0.0,0.0,0.0,0.0,0.0,0.0,0.0,0.0,0.0,0.0,0.0,0.0,0.0,0.0,0.0,0.0,0.0,0.0,0.0,0.0,0.0,0.0,0.0,0.0,0.0,0.0,0.0,0.0,0.0,0.0,0.0,0.0,0.0,0.0,0.0,0.0,0.0,0.0,0.0,0.0,0.0,0.0,0.0,0.0,0.0,0.0,0.0,0.0,0.0,0.0,0.0,0.0,0.0,0.0,0.0,0.0,0.0,0.0,0.0,0.0,0.0,0.0,0.0,0.0,0.0,0.0,0.0,0.0,0.0,0.0,0.0,0.0,0.0,0.0,0.0,0.0,0.0,0.0,0.0,0.0,0.0,0.0,0.0,0.0,0.0,0.0,0.0,0.0,0.0,0.0,0.0,0.0,0.0,0.0,0.0,0.0,0.0,0.0,0.0,0.0,0.0,0.0,0.0,0.0,0.0,0.0,0.0,0.0,0.0,0.0,0.0,0.0,0.0,0.0,0.0,0.0,0.0,0.0,0.0,0.0,0.0,0.0,0.0,0.0,0.0,0.0,0.0,0.0,0.0,0.0,0.0,0.0,0.0,0.0,0.0,0.0,0.0,0.0,0.0,0.0,0.0,0.0,0.0,0.0,0.0,0.0,0.0,0.0,0.0,0.0,0.0,0.0,0.0,0.0,0.0,0.0,0.0,0.0,0.0,0.0,0.0,0.0,0.0,0.0,0.0,0.0,0.0,0.0,0.0,0.0,0.0,0.0,0.0,0.0,0.0,0.0,0.0,0.0,0.0,0.0,0.0,0.0,0.0,0.0,0.0,0.0,0.0,0.0,0.0,0.0,0.0,0.0,0.0,0.0,0.0,0.0,0.0,0.0,0.0,0.0,0.0,0.0,0.0,0.0,0.0,0.0,0.0,0.0,0.0,0.0,0.0,0.0,0.0,0.0,0.0,0.0,0.0,0.0,0.0,0.0,0.0,0.0,0.0,0.0,0.0,0.0,0.0,0.0,0.0,0.0,0.0,0.0,0.0,0.0,0.0,0.0,0.0,0.0,0.0,0.0,0.0,0.0,0.0,0.0,0.0,0.0,0.0,0.0,0.0,0.0,0.0,0.0,0.0,0.0,0.0,0.0,0.0,0.0,0.0,0.0,0.0,0.0,0.0,0.0,0.0,0.0,0.0,0.0,0.0,0.0,0.0,0.0,0.0,0.0,0.0,0.0,0.0,0.0,0.0,0.0,0.0,0.0,0.0,0.0,0.0,0.0,0.0,0.0,0.0,0.0,0.0,0.0,0.0,0.0,0.0,0.0,0.0,0.0,0.0,0.0,0.0,0.0,0.0,0.0,0.0,0.0,0.0,0.0,0.0,0.0,0.0,0.0,0.0,0.0,0.0,0.0,0.0,0.0,0.0,0.0,0.0,0.0,0.0,0.0,0.0,0.0,0.0,0.0,0.0,0.0,0.0,0.0,0.0,0.0,0.0,0.0,0.0,0.0,0.0,0.0,0.0,0.0,0.0,0.0,0.0,0.0,0.0,0.0,0.0,0.0,0.0,0.0,0.0,0.0,0.0,0.0,0.0,0.0,0.0,0.0,0.0,0.0,0.0,0.0,0.0,0.0,0.0,0.0,0.0,0.0,0.0,0.0,0.0,0.0,0.0,0.0,0.0,0.0,0.0,0.0,0.0,0.0,0.0,0.0,0.0,0.0,0.0,0.0,0.0,0.0,0.0,0.0,0.0,0.0,0.0,0.0,0.0,0.0,0.0,0.0,0.0,0.0,0.0,0.0,0.0,0.0,0.0,0.0,0.0,0.0,0.0,0.0,0.0,0.0,0.0,0.0,0.0,0.0,0.0,0.0,0.0,0.0,0.0,0.0,0.0,0.0,0.0,0.0,0.0,0.0,0.0,0.0,0.0,0.0,0.0,0.0,0.0,0.0,0.0,0.0,0.0,0.0,0.0,0.0,0.0,0.0,0.0,0.0,0.0,0.0,-1.682,0.0,0.0,0.0,0.0,0.0,0.0,0.0,0.0,0.0,0.0,0.0,0.0,0.0,0.0,0.0,0.0,0.0,0.0,0.0,0.0,0.0,0.0,0.0,0.0,0.0,0.0,0.0,0.0,0.0,0.0,0.0,0.0,0.0,0.0,0.0,0.0,0.0,0.0,0.0,0.0,0.0,0.0,0.0,0.0,0.0,0.0,0.0,0.0,0.0,0.0,0.0,0.0,0.0,0.0,0.0,0.0,0.0,0.0,0.0,0.0,0.0,0.0,0.0,0.0,0.0,0.0,0.0,0.0,0.0,0.0,0.0,0.0,0.0,0.0,0.0,0.0,0.0,0.0,0.0,0.0,0.0,0.0,0.0,0.0,0.0,0.0,0.0,0.0,0.0,0.0,0.0,0.0,0.0,0.0,0.0,0.0,0.0,0.0,0.0,0.0,0.0,0.0,0.0,0.0,0.0,0.0,0.0,0.0,0.0,0.0,-1.6951,-1.7131,-1.7338,-1.7434,-1.7352,0.0,0.0,0.0,0.0,0.0,0.0,0.0,0.0,0.0,0.0,0.0,0.0,0.0,0.0,0.0,0.0,0.0,0.0,0.0,0.0,0.0,0.0,0.0,0.0,0.0,0.0,0.0,0.0,0.0,0.0,0.0,0.0,0.0,0.0,0.0,0.0,0.0,0.0,0.0,0.0,0.0,0.0,0.0,0.0,0.0,0.0,0.0,0.0,0.0,0.0,0.0,0.0,0.0,0.0,0.0,0.0,0.0,0.0,0.0,0.0,0.0,0.0,0.0,0.0,0.0,0.0,0.0,0.0,0.0,0.0,0.0,0.0,0.0,0.0,0.0,0.0,0.0,0.0,0.0,0.0,0.0,0.0,0.0,0.0,0.0,0.0,0.0,0.0,0.0,0.0,0.0,0.0,0.0,0.0,0.0,0.0,0.0,0.0,0.0,0.0,0.0,0.0,0.0,0.0,0.0,0.0,0.0,0.0,0.0,0.0,0.0,0.0,-1.808,-1.8094,-1.7935,0.0,0.0,0.0,0.0,0.0,0.0,0.0,0.0,0.0,0.0,0.0,0.0,0.0,0.0,0.0,0.0,0.0,0.0,0.0,0.0,0.0,0.0,0.0,0.0,0.0,0.0,0.0,0.0,0.0,0.0,0.0,0.0,0.0,0.0,0.0,0.0,0.0,0.0,0.0,0.0,0.0,0.0,0.0,0.0,0.0,0.0,0.0,0.0,0.0,0.0,0.0,0.0,0.0,0.0,0.0,0.0,0.0,0.0,0.0,0.0,0.0,0.0,0.0,0.0,0.0,0.0,0.0,0.0,0.0,0.0,0.0,0.0,0.0,0.0,0.0,0.0,0.0,0.0,0.0,0.0,0.0,0.0,0.0,0.0,0.0,0.0,0.0,0.0,0.0,0.0,0.0,0.0,0.0,0.0,0.0,0.0,0.0,0.0,0.0,0.0,0.0,0.0,0.0,0.0,0.0,0.0,0.0,0.0,0.0,0.0,-1.8808,-1.9043,-1.9266,0.0,-1.8612,0.0,0.0,0.0,0.0,0.0,0.0,0.0,0.0,0.0,0.0,0.0,0.0,0.0,0.0,0.0,0.0,0.0,0.0,0.0,0.0,0.0,0.0,0.0,0.0,0.0,0.0,0.0,0.0,0.0,0.0,0.0,0.0,0.0,0.0,0.0,0.0,0.0,0.0,0.0,0.0,0.0,0.0,0.0,0.0,0.0,0.0,0.0,0.0,0.0,0.0,0.0,0.0,0.0,0.0,0.0,0.0,0.0,0.0,0.0,0.0,0.0,0.0,0.0,0.0,0.0,0.0,0.0,0.0,0.0,0.0,0.0,0.0,0.0,0.0,0.0,0.0,0.0,0.0,0.0,0.0,0.0,0.0,0.0,0.0,0.0,0.0,0.0,0.0,0.0,0.0,0.0,0.0,0.0,0.0,0.0,0.0,0.0,0.0,0.0,0.0,0.0,0.0,0.0,0.0,0.0,0.0,0.0,0.0,0.0,0.0,-1.9536,-1.9788,-1.9823,-1.963,0.0,0.0,0.0,0.0,0.0,0.0,0.0,0.0,0.0,0.0,0.0,0.0,0.0,0.0,0.0,0.0,0.0,0.0,0.0,0.0,0.0,0.0,0.0,0.0,0.0,0.0,0.0,0.0,0.0,0.0,0.0,0.0,0.0,0.0,0.0,0.0,0.0,0.0,0.0,0.0,0.0,0.0,0.0,0.0,0.0,0.0,0.0,0.0,0.0,0.0,0.0,0.0,0.0,0.0,0.0,0.0,0.0,0.0,0.0,0.0,0.0,0.0,0.0,0.0,0.0,0.0,0.0,0.0,0.0,0.0,0.0,0.0,0.0,0.0,0.0,0.0,0.0,0.0,0.0,0.0,0.0,0.0,0.0,0.0,0.0,0.0,0.0,0.0,0.0,0.0,0.0,0.0,0.0,0.0,0.0,0.0,0.0,0.0,0.0,0.0,0.0,0.0,0.0,0.0,0.0,0.0,0.0,0.0,0.0,0.0,-2.0263,-2.0462,-2.0563,-2.0478,-2.0208,-1.9793,0.0,0.0,0.0,0.0,0.0,0.0,0.0,0.0,0.0,0.0,0.0,0.0,0.0,0.0,0.0,0.0,0.0,0.0,0.0,0.0,0.0,0.0,0.0,0.0,0.0,0.0,0.0,0.0,0.0,0.0,0.0,0.0,0.0,0.0,0.0,0.0,0.0,0.0,0.0,0.0,0.0,0.0,0.0,0.0,0.0,0.0,0.0,0.0,0.0,0.0,0.0,0.0,0.0,0.0,0.0,0.0,0.0,0.0,0.0,0.0,0.0,0.0,0.0,0.0,0.0,0.0,0.0,0.0,0.0,0.0,0.0,0.0,0.0,0.0,0.0,0.0,0.0,0.0,0.0,0.0,0.0,0.0,0.0,0.0,0.0,0.0,0.0,0.0,0.0,0.0,0.0,0.0,0.0,0.0,0.0,0.0,0.0,0.0,0.0,0.0,0.0,0.0,0.0,0.0,0.0,0.0,0.0,0.0,-2.1063,-2.1537,-2.1712,-2.156,-2.134,-2.1007,0.0,0.0,0.0,0.0,0.0,0.0,0.0,0.0,0.0,0.0,0.0,0.0,0.0,0.0,0.0,0.0,0.0,0.0,0.0,0.0,0.0,0.0,0.0,0.0,0.0,0.0,0.0,0.0,0.0,0.0,0.0,0.0,0.0,0.0,0.0,0.0,0.0,0.0,0.0,0.0,0.0,0.0,0.0,0.0,0.0,0.0,0.0,0.0,0.0,0.0,0.0,0.0,0.0,0.0,0.0,0.0,0.0,0.0,0.0,0.0,0.0,0.0,0.0,0.0,0.0,0.0,0.0,0.0,0.0,0.0,0.0,0.0,0.0,0.0,0.0,0.0,0.0,0.0,0.0,0.0,0.0,0.0,0.0,0.0,0.0,0.0,0.0,0.0,0.0,0.0,0.0,0.0,0.0,0.0,0.0,0.0,0.0,0.0,0.0,0.0,0.0,0.0,0.0,0.0,0.0,0.0,0.0,0.0,0.0,-2.2438,-2.2688,-2.2787,-2.2718,-2.1986,-2.1324,0.0,0.0,0.0,0.0,0.0,0.0,0.0,0.0,0.0,0.0,0.0,0.0,0.0,0.0,0.0,0.0,0.0,0.0,0.0,0.0,0.0,0.0,0.0,0.0,0.0,0.0,0.0,0.0,0.0,0.0,0.0,0.0,0.0,0.0,0.0,0.0,0.0,0.0,0.0,0.0,0.0,0.0,0.0,0.0,0.0,0.0,0.0,0.0,0.0,0.0,0.0,0.0,0.0,0.0,0.0,0.0,0.0,0.0,0.0,0.0,0.0,0.0,0.0,0.0,0.0,0.0,0.0,0.0,0.0,0.0,0.0,0.0,0.0,0.0,0.0,0.0,0.0,0.0,0.0,0.0,0.0,0.0,0.0,0.0,0.0,0.0,0.0,0.0,0.0,0.0,0.0,0.0,0.0,0.0,0.0,0.0,0.0,0.0,0.0,0.0,0.0,0.0,0.0,0.0,0.0,0.0,0.0,0.0,0.0,-2.4015,0.0,-2.3891,-2.3886,-2.3106,-2.2415,0.0,0.0,0.0,0.0,0.0,0.0,0.0,0.0,0.0,0.0,0.0,0.0,0.0,0.0,0.0,0.0,0.0,0.0,0.0,0.0,0.0,0.0,0.0,0.0,0.0,0.0,0.0,0.0,0.0,0.0,0.0,0.0,0.0,0.0,0.0,0.0,0.0,0.0,0.0,0.0,0.0,0.0,0.0,0.0,0.0,0.0,0.0,0.0,0.0,0.0,0.0,0.0,0.0,0.0,0.0,0.0,0.0,0.0,0.0,0.0,0.0,0.0,0.0,0.0,0.0,0.0,0.0,0.0,0.0,0.0,0.0,0.0,0.0,0.0,0.0,0.0,0.0,0.0,0.0,0.0,0.0,0.0,0.0,0.0,0.0,0.0,0.0,0.0,0.0,0.0,0.0,0.0,0.0,0.0,0.0,0.0,0.0,0.0,0.0,0.0,0.0,0.0,0.0,0.0,0.0,0.0,0.0,0.0,-2.5248,-2.578,-2.5286,-2.5005,-2.5005,-2.4692,-2.4346,0.0,0.0,0.0,0.0,0.0,0.0,0.0,0.0,0.0,0.0,0.0,0.0,0.0,0.0,0.0,0.0,0.0,0.0,0.0,0.0,0.0,0.0,0.0,0.0,0.0,0.0,0.0,0.0,0.0,0.0,0.0,0.0,0.0,0.0,0.0,0.0,0.0,0.0,0.0,0.0,0.0,0.0,0.0,0.0,0.0,0.0,0.0,0.0,0.0,0.0,0.0,0.0,0.0,0.0,0.0,0.0,0.0,0.0,0.0,0.0,0.0,0.0,0.0,0.0,0.0,0.0,0.0,0.0,0.0,0.0,0.0,0.0,0.0,0.0,0.0,0.0,0.0,0.0,0.0,0.0,0.0,0.0,0.0,0.0,0.0,0.0,0.0,0.0,0.0,0.0,0.0,0.0,0.0,0.0,0.0,0.0,0.0,0.0,0.0,0.0,0.0,0.0,0.0,0.0,0.0,0.0,0.0,0.0,0.0,-2.7078,-2.6549,-2.6257,-2.6212,-2.5368,-2.4684,0.0,0.0,0.0,0.0,0.0,0.0,0.0,0.0,0.0,0.0,0.0,0.0,0.0,0.0,0.0,0.0,0.0,0.0,0.0,0.0,0.0,0.0,0.0,0.0,0.0,0.0,0.0,0.0,0.0,0.0,0.0,0.0,0.0,0.0,0.0,0.0,0.0,0.0,0.0,0.0,0.0,0.0,0.0,0.0,0.0,0.0,0.0,0.0,0.0,0.0,0.0,0.0,0.0,0.0,0.0,0.0,0.0,0.0,0.0,0.0,0.0,0.0,0.0,0.0,0.0,0.0,0.0,0.0,0.0,0.0,0.0,0.0,0.0,0.0,0.0,0.0,0.0,0.0,0.0,0.0,0.0,0.0,0.0,0.0,0.0,0.0,0.0,0.0,0.0,0.0,0.0,0.0,0.0,0.0,0.0,0.0,0.0,0.0,0.0,0.0,0.0,0.0,0.0,0.0,0.0,0.0,0.0,0.0,0.0,-2.8426,-2.8047,-2.7825,-2.7798,-2.6968,-2.616,-2.5348,0.0,0.0,0.0,0.0,0.0,0.0,0.0,0.0,0.0,0.0,0.0,0.0,0.0,0.0,0.0,0.0,0.0,0.0,0.0,0.0,0.0,0.0,0.0,0.0,0.0,0.0,0.0,0.0,0.0,0.0,0.0,0.0,0.0,0.0,0.0,0.0,0.0,0.0,0.0,0.0,0.0,0.0,0.0,0.0,0.0,0.0,0.0,0.0,0.0,0.0,0.0,0.0,0.0,0.0,0.0,0.0,0.0,0.0,0.0,0.0,0.0,0.0,0.0,0.0,0.0,0.0,0.0,0.0,0.0,0.0,0.0,0.0,0.0,0.0,0.0,0.0,0.0,0.0,0.0,0.0,0.0,0.0,0.0,0.0,0.0,0.0,0.0,0.0,0.0,0.0,0.0,0.0,0.0,0.0,0.0,0.0,0.0,0.0,0.0,0.0,0.0,0.0,0.0,0.0,0.0,0.0,0.0,0.0,-2.9773,-2.9764,-2.9692,-2.9583,-2.9258,-2.8473,0.0,0.0,0.0,0.0,0.0,0.0,0.0,0.0,0.0,0.0,0.0,0.0,0.0,0.0,0.0,0.0,0.0,0.0,0.0,0.0,0.0,0.0,0.0,0.0,0.0,0.0,0.0,0.0,0.0,0.0,0.0,0.0,0.0,0.0,0.0,0.0,0.0,0.0,0.0,0.0,0.0,0.0,0.0,0.0,0.0,0.0,0.0,0.0,0.0,0.0,0.0,0.0,0.0,0.0,0.0,0.0,0.0,0.0,0.0,0.0,0.0,0.0,0.0,0.0,0.0,0.0,0.0,0.0,0.0,0.0,0.0,0.0,0.0,0.0,0.0,0.0,0.0,0.0,0.0,0.0,0.0,0.0,0.0,0.0,0.0,0.0,0.0,0.0,0.0,0.0,0.0,0.0,0.0,0.0,0.0,0.0,0.0,0.0,0.0,0.0,0.0,0.0,0.0,0.0,0.0,0.0,0.0,0.0,0.0,-3.0712,-3.1382,-3.1445,-3.0765,-2.9825,-2.8977,0.0,0.0,0.0,0.0,0.0,0.0,0.0,0.0,0.0,0.0,0.0,0.0,0.0,0.0,0.0,0.0,0.0,0.0,0.0,0.0,0.0,0.0,0.0,0.0,0.0,0.0,0.0,0.0,0.0,0.0,0.0,0.0,0.0,0.0,0.0,0.0,0.0,0.0,0.0,0.0,0.0,0.0,0.0,0.0,0.0,0.0,0.0,0.0,0.0,0.0,0.0,0.0,0.0,0.0,0.0,0.0,0.0,0.0,0.0,0.0,0.0,0.0,0.0,0.0,0.0,0.0,0.0,0.0,0.0,0.0,0.0,0.0,0.0,0.0,0.0,0.0,0.0,0.0,0.0,0.0,0.0,0.0,0.0,0.0,0.0,0.0,0.0,0.0,0.0,0.0,0.0,0.0,0.0,0.0,0.0,0.0,0.0,0.0,0.0,0.0,0.0,0.0,0.0,0.0,0.0,0.0,0.0,0.0,-3.0395,-3.1093,-3.2373,-3.281,-3.2308,-3.0803,-2.9626,0.0,0.0,0.0,0.0,0.0,0.0,0.0,0.0,0.0,0.0,0.0,0.0,0.0,0.0,0.0,0.0,0.0,0.0,0.0,0.0,0.0,0.0,0.0,0.0,0.0,0.0,0.0,0.0,0.0,0.0,0.0,0.0,0.0,0.0,0.0,0.0,0.0,0.0,0.0,0.0,0.0,0.0,0.0,0.0,0.0,0.0,0.0,0.0,0.0,0.0,0.0,0.0,0.0,0.0,0.0,0.0,0.0,0.0,0.0,0.0,0.0,0.0,0.0,0.0,0.0,0.0,0.0,0.0,0.0,0.0,0.0,0.0,0.0,0.0,0.0,0.0,0.0,0.0,0.0,0.0,0.0,0.0,0.0,0.0,0.0,0.0,0.0,0.0,0.0,0.0,0.0,0.0,0.0,0.0,0.0,0.0,0.0,0.0,0.0,0.0,0.0,0.0,0.0,0.0,0.0,0.0,0.0,0.0,-3.1021,-3.1247,-3.2912,-3.3807,-3.377,-3.191,-3.0327,0.0,0.0,0.0,0.0,0.0,0.0,0.0,0.0,0.0,0.0,0.0,0.0,0.0,0.0,0.0,0.0,0.0,0.0,0.0,0.0,0.0,0.0,0.0,0.0,0.0,0.0,0.0,0.0,0.0,0.0,0.0,0.0,0.0,0.0,0.0,0.0,0.0,0.0,0.0,0.0,0.0,0.0,0.0,0.0,0.0,0.0,0.0,0.0,0.0,0.0,0.0,0.0,0.0,0.0,0.0,0.0,0.0,0.0,0.0,0.0,0.0,0.0,0.0,0.0,0.0,0.0,0.0,0.0,0.0,0.0,0.0,0.0,0.0,0.0,0.0,0.0,0.0,0.0,0.0,0.0,0.0,0.0,0.0,0.0,0.0,0.0,0.0,0.0,0.0,0.0,0.0,0.0,0.0,0.0,0.0,0.0,0.0,0.0,0.0,0.0,0.0,0.0,0.0,0.0,0.0,0.0,0.0,0.0,-3.1383,-3.2208,-3.324,-3.3807,-3.3788,-3.1947,-3.0702,0.0,0.0,0.0,0.0,0.0,0.0,0.0,0.0,0.0,0.0,0.0,0.0,0.0,0.0,0.0,0.0,0.0,0.0,0.0,0.0,0.0,0.0,0.0,0.0,0.0,0.0,0.0,0.0,0.0,0.0,0.0,0.0,0.0,0.0,0.0,0.0,0.0,0.0,0.0,0.0,0.0,0.0,0.0,0.0,0.0,0.0,0.0,0.0,-3.3834,0.0,0.0,0.0,0.0,0.0,0.0,0.0,0.0,0.0,0.0,0.0,0.0,0.0,0.0,0.0,0.0,0.0,0.0,0.0,0.0,0.0,0.0,0.0,0.0,0.0,0.0,0.0,0.0,0.0,0.0,0.0,0.0,0.0,0.0,0.0,0.0,0.0,0.0,0.0,0.0,0.0,0.0,0.0,0.0,0.0,0.0,0.0,0.0,0.0,0.0,0.0,0.0,0.0,0.0,0.0,0.0,0.0,0.0,0.0,-3.1771,-3.2674,-3.3709,-3.416,-3.3956,-3.2624,-3.149,0.0,0.0,0.0,0.0,0.0,0.0,0.0,0.0,0.0,0.0,0.0,0.0,0.0,0.0,0.0,0.0,0.0,0.0,0.0,0.0,0.0,0.0,0.0,0.0,0.0,0.0,0.0,0.0,0.0,0.0,0.0,0.0,0.0,0.0,0.0,0.0,0.0,0.0,0.0,0.0,0.0,0.0,0.0,0.0,0.0,0.0,0.0,0.0,0.0,0.0,0.0,0.0,0.0,0.0,0.0,0.0,0.0,0.0,0.0,0.0,0.0,0.0,0.0,0.0,0.0,0.0,0.0,0.0,0.0,0.0,0.0,0.0,0.0,0.0,0.0,0.0,0.0,0.0,0.0,0.0,0.0,0.0,0.0,0.0,0.0,0.0,0.0,0.0,0.0,0.0,0.0,0.0,0.0,0.0,0.0,0.0,0.0,0.0,0.0,0.0,0.0,0.0,0.0,0.0,0.0,0.0,0.0,-3.1131,-3.2203,-3.3161,-3.4172,-3.4529,-3.42,-3.3464,-3.2398,-3.0902,0.0,0.0,0.0,0.0,0.0,0.0,0.0,0.0,0.0,0.0,0.0,0.0,0.0,0.0,0.0,0.0,0.0,0.0,0.0,0.0,0.0,0.0,0.0,0.0,0.0,0.0,0.0,0.0,0.0,0.0,0.0,0.0,0.0,0.0,0.0,0.0,0.0,0.0,-3.0748,-3.1464,0.0,0.0,0.0,0.0,0.0,0.0,0.0,0.0,-3.5145,0.0,0.0,0.0,0.0,0.0,0.0,0.0,0.0,0.0,0.0,0.0,0.0,0.0,0.0,0.0,0.0,0.0,0.0,0.0,0.0,0.0,0.0,0.0,0.0,0.0,0.0,0.0,0.0,0.0,0.0,0.0,0.0,0.0,0.0,0.0,0.0,0.0,0.0,0.0,0.0,0.0,0.0,0.0,0.0,0.0,0.0,0.0,0.0,0.0,0.0,0.0,0.0,0.0,0.0,0.0,0.0,-3.1251,-3.1619,-3.2636,-3.4348,-3.4598,-3.4529,-3.42,-3.4069,-3.3087,-3.1147,0.0,0.0,0.0,0.0,0.0,0.0,0.0,0.0,0.0,0.0,0.0,0.0,0.0,0.0,0.0,0.0,0.0,0.0,0.0,0.0,0.0,0.0,0.0,0.0,0.0,0.0,0.0,0.0,0.0,0.0,0.0,0.0,0.0,0.0,0.0,0.0,0.0,0.0,0.0,-3.3011,-3.3917,0.0,0.0,0.0,0.0,0.0,0.0,0.0,0.0,-3.6201,0.0,0.0,0.0,0.0,0.0,0.0,0.0,0.0,0.0,0.0,0.0,0.0,0.0,0.0,0.0,0.0,0.0,0.0,0.0,0.0,0.0,0.0,0.0,0.0,0.0,0.0,0.0,0.0,0.0,0.0,0.0,0.0,0.0,0.0,0.0,0.0,0.0,0.0,0.0,0.0,0.0,0.0,0.0,0.0,0.0,0.0,0.0,0.0,0.0,0.0,0.0,0.0,0.0,0.0,0.0,-3.1615,-3.2341,-3.3392,-3.4851,-3.5034,-3.4907,-3.4467,-3.4464,-3.3408,0.0,0.0,0.0,0.0,0.0,0.0,0.0,0.0,0.0,0.0,0.0,0.0,0.0,0.0,0.0,0.0,0.0,0.0,0.0,0.0,0.0,0.0,0.0,0.0,0.0,0.0,0.0,0.0,0.0,0.0,0.0,0.0,0.0,0.0,0.0,0.0,0.0,0.0,0.0,0.0,-3.4185,-3.5082,-3.5771,0.0,0.0,0.0,0.0,0.0,0.0,-3.6956,-3.7158,0.0,0.0,0.0,0.0,0.0,0.0,0.0,0.0,0.0,0.0,0.0,0.0,0.0,0.0,0.0,0.0,0.0,0.0,0.0,0.0,0.0,0.0,0.0,0.0,0.0,0.0,0.0,0.0,0.0,0.0,0.0,0.0,0.0,0.0,0.0,0.0,0.0,0.0,0.0,0.0,0.0,0.0,0.0,0.0,0.0,0.0,0.0,0.0,0.0,0.0,0.0,0.0,0.0,0.0,0.0,-3.1697,-3.2838,-3.3942,-3.4978,-3.5223,-3.5105,-3.4632,-3.4612,-3.3593,0.0,0.0,0.0,0.0,0.0,0.0,0.0,0.0,0.0,0.0,0.0,0.0,0.0,0.0,0.0,0.0,0.0,0.0,0.0,0.0,0.0,0.0,0.0,0.0,0.0,0.0,0.0,0.0,0.0,0.0,0.0,0.0,0.0,0.0,0.0,0.0,0.0,0.0,0.0,0.0,0.0,-3.5777,-3.6416,-3.6267,0.0,0.0,0.0,0.0,-3.745,-3.7684,0.0,0.0,0.0,0.0,0.0,0.0,0.0,0.0,0.0,0.0,0.0,0.0,0.0,0.0,0.0,0.0,0.0,0.0,0.0,0.0,0.0,0.0,0.0,0.0,0.0,0.0,0.0,0.0,0.0,0.0,0.0,0.0,0.0,0.0,0.0,0.0,0.0,0.0,0.0,0.0,0.0,0.0,0.0,0.0,0.0,0.0,0.0,0.0,0.0,0.0,0.0,0.0,0.0,0.0,0.0,0.0,-3.1781,-3.2689,-3.3682,-3.4696,-3.4774,-3.4614,-3.4288,-3.4265,-3.3666,0.0,0.0,0.0,0.0,0.0,0.0,0.0,0.0,0.0,0.0,0.0,0.0,0.0,0.0,0.0,0.0,0.0,0.0,0.0,0.0,0.0,0.0,0.0,0.0,0.0,0.0,0.0,0.0,0.0,0.0,0.0,0.0,0.0,0.0,0.0,0.0,0.0,0.0,0.0,0.0,0.0,-3.5636,-3.6461,-3.6638,-3.6696,0.0,0.0,-3.7526,-3.7673,-3.8173,0.0,0.0,0.0,0.0,0.0,0.0,0.0,0.0,0.0,0.0,0.0,0.0,0.0,0.0,0.0,0.0,0.0,0.0,0.0,0.0,0.0,0.0,0.0,0.0,0.0,0.0,0.0,0.0,0.0,0.0,0.0,0.0,0.0,0.0,0.0,0.0,0.0,0.0,0.0,0.0,0.0,0.0,0.0,0.0,0.0,0.0,0.0,0.0,0.0,0.0,0.0,0.0,0.0,0.0,0.0,-3.1407,-3.2467,-3.3291,-3.4111,-3.4889,-3.4774,-3.4632,-3.4467,-3.4292,-3.3679,0.0,0.0,0.0,0.0,0.0,0.0,0.0,0.0,0.0,0.0,0.0,0.0,0.0,0.0,0.0,0.0,0.0,0.0,0.0,0.0,0.0,0.0,0.0,0.0,0.0,0.0,0.0,0.0,0.0,0.0,0.0,0.0,0.0,0.0,0.0,0.0,0.0,0.0,0.0,0.0,0.0,0.0,-3.6721,-3.7274,0.0,0.0,0.0,-3.8016,-3.8358,0.0,0.0,0.0,0.0,0.0,0.0,0.0,0.0,0.0,0.0,0.0,0.0,0.0,0.0,0.0,0.0,0.0,0.0,0.0,0.0,0.0,0.0,0.0,0.0,0.0,0.0,0.0,0.0,0.0,0.0,0.0,0.0,0.0,0.0,0.0,0.0,0.0,0.0,0.0,0.0,0.0,0.0,0.0,0.0,0.0,0.0,0.0,0.0,0.0,0.0,0.0,0.0,0.0,0.0,0.0,0.0,0.0,-3.2989,-3.379,-3.4427,-3.487,-3.4694,-3.4548,-3.4483,-3.4237,0.0,0.0,0.0,0.0,0.0,0.0,0.0,0.0,0.0,0.0,0.0,0.0,0.0,0.0,0.0,0.0,0.0,0.0,0.0,0.0,0.0,0.0,0.0,0.0,0.0,0.0,0.0,-3.0614,0.0,0.0,0.0,0.0,0.0,0.0,0.0,0.0,0.0,0.0,0.0,0.0,0.0,0.0,-3.6801,-3.6789,-3.7839,-3.8775,0.0,0.0,-3.8424,-3.9164,-3.9135,-3.8946,0.0,0.0,0.0,0.0,0.0,0.0,0.0,0.0,0.0,0.0,0.0,0.0,0.0,0.0,0.0,0.0,0.0,0.0,0.0,0.0,0.0,0.0,0.0,0.0,0.0,0.0,0.0,0.0,0.0,0.0,0.0,0.0,0.0,0.0,0.0,0.0,0.0,0.0,0.0,0.0,0.0,0.0,0.0,0.0,0.0,0.0,0.0,0.0,0.0,0.0,0.0,0.0,0.0,0.0,-3.1924,-3.2989,-3.379,-3.4223,-3.4288,-3.4246,-3.4099,-3.3868,-3.3842,-3.3797,0.0,0.0,0.0,0.0,0.0,0.0,0.0,0.0,0.0,0.0,0.0,0.0,0.0,0.0,0.0,0.0,0.0,0.0,0.0,0.0,0.0,0.0,0.0,0.0,0.0,0.0,0.0,0.0,0.0,0.0,0.0,0.0,0.0,0.0,0.0,0.0,0.0,0.0,0.0,0.0,0.0,-3.6789,-3.6554,-3.8189,-3.932,0.0,-3.8942,-3.9182,-3.9919,-3.9915,-3.9557,-3.8802,0.0,0.0,0.0,0.0,0.0,0.0,0.0,0.0,0.0,0.0,0.0,0.0,0.0,0.0,0.0,0.0,0.0,0.0,0.0,0.0,0.0,0.0,0.0,0.0,0.0,0.0,0.0,0.0,0.0,0.0,0.0,0.0,0.0,0.0,0.0,0.0,0.0,0.0,0.0,0.0,0.0,0.0,0.0,0.0,0.0,0.0,0.0,0.0,0.0,0.0,0.0,0.0,0.0,-3.2573,-3.3474,-3.3813,-3.4025,-3.4176,-3.4043,-3.3986,-3.4025,-3.3895,-3.3807,0.0,0.0,0.0,0.0,0.0,0.0,0.0,0.0,0.0,0.0,0.0,0.0,0.0,0.0,0.0,0.0,0.0,0.0,0.0,0.0,0.0,0.0,0.0,0.0,0.0,0.0,0.0,0.0,-3.4911,-3.5135,-3.5027,0.0,0.0,0.0,0.0,0.0,0.0,0.0,0.0,0.0,0.0,-3.6764,-3.737,-3.8813,0.0,0.0,-4.0214,-4.0529,-4.0812,-4.073,-4.0543,-4.0221,-3.9355,0.0,0.0,0.0,0.0,0.0,0.0,0.0,0.0,0.0,0.0,0.0,0.0,0.0,0.0,0.0,0.0,0.0,0.0,0.0,0.0,0.0,0.0,0.0,0.0,0.0,0.0,0.0,0.0,0.0,0.0,0.0,0.0,0.0,0.0,0.0,0.0,0.0,0.0,0.0,0.0,0.0,0.0,0.0,0.0,0.0,0.0,0.0,0.0,0.0,0.0,0.0,0.0,-3.3051,-3.391,-3.3928,-3.4012,-3.4218,-3.4018,-3.3961,-3.4049,-3.3902,-3.3807,0.0,0.0,0.0,0.0,0.0,0.0,0.0,0.0,0.0,0.0,0.0,0.0,0.0,0.0,0.0,0.0,0.0,0.0,0.0,0.0,0.0,0.0,0.0,0.0,0.0,0.0,0.0,0.0,-3.5572,-3.5585,-3.5064,0.0,0.0,0.0,0.0,0.0,0.0,0.0,0.0,0.0,0.0,-3.7396,-3.7809,-3.9222,-4.0251,-4.0393,-4.0693,-4.1083,-4.153,-4.1526,-4.146,-4.146,0.0,0.0,0.0,0.0,0.0,0.0,0.0,0.0,0.0,0.0,0.0,0.0,0.0,0.0,0.0,0.0,0.0,0.0,0.0,0.0,0.0,0.0,0.0,0.0,0.0,0.0,0.0,-3.2702,0.0,0.0,-3.2669,0.0,0.0,0.0,0.0,0.0,0.0,0.0,0.0,0.0,0.0,0.0,0.0,0.0,0.0,0.0,0.0,0.0,0.0,0.0,0.0,0.0,0.0,-3.3135,-3.4157,-3.4152,-3.4176,-3.4176,-3.4176,-3.4068,-3.3834,-3.3807,-3.3807,-3.3807,0.0,0.0,0.0,0.0,0.0,0.0,0.0,0.0,0.0,0.0,0.0,0.0,0.0,0.0,0.0,0.0,0.0,0.0,0.0,0.0,0.0,0.0,0.0,0.0,0.0,0.0,-3.389,-3.4541,-3.5009,0.0,0.0,0.0,0.0,0.0,0.0,0.0,0.0,0.0,-3.5275,-3.7458,-3.8755,-3.7792,-3.9259,-4.0337,-3.9994,-4.0031,-4.0583,-4.2081,-4.2268,-4.2286,0.0,0.0,0.0,0.0,0.0,0.0,0.0,0.0,0.0,0.0,0.0,0.0,0.0,0.0,0.0,0.0,0.0,0.0,0.0,0.0,0.0,0.0,0.0,0.0,0.0,0.0,0.0,-3.3952,-3.3952,0.0,0.0,0.0,0.0,0.0,0.0,0.0,0.0,0.0,0.0,0.0,-3.3726,-3.3726,0.0,0.0,0.0,0.0,0.0,0.0,0.0,0.0,0.0,0.0,0.0,0.0,-3.3584,-3.391,-3.3935,-3.3935,-3.3935,-3.3954,-3.3876,-3.3807,-3.3807,-3.378,-3.3726,0.0,0.0,0.0,0.0,0.0,0.0,0.0,0.0,0.0,0.0,0.0,0.0,0.0,0.0,0.0,0.0,0.0,0.0,0.0,0.0,0.0,0.0,0.0,0.0,0.0,-3.4534,0.0,0.0,0.0,0.0,0.0,0.0,0.0,0.0,0.0,0.0,-3.5505,-3.6323,-3.7374,-3.7848,-3.8143,-3.8309,-3.9338,-4.0253,0.0,0.0,0.0,0.0,0.0,0.0,0.0,0.0,0.0,0.0,0.0,0.0,0.0,0.0,-4.2341,-4.1313,-4.1097,-4.1097,-4.1097,0.0,0.0,0.0,0.0,0.0,0.0,0.0,0.0,0.0,0.0,0.0,0.0,0.0,0.0,-3.4945,-3.4661,-3.4534,0.0,0.0,0.0,0.0,0.0,0.0,0.0,0.0,-3.3726,-3.3753,-3.3807,-3.3807,-3.3807,-3.3825,-3.4082,-3.378,0.0,0.0,0.0,0.0,0.0,0.0,0.0,0.0,-3.3807,-3.3807,-3.3807,-3.3807,-3.3807,-3.3807,-3.3807,-3.3807,-3.3807,-3.378,-3.3726,-3.3726,-3.3615,0.0,0.0,0.0,0.0,0.0,0.0,0.0,0.0,0.0,0.0,0.0,0.0,0.0,0.0,0.0,0.0,0.0,0.0,0.0,0.0,0.0,0.0,0.0,-3.4947,0.0,0.0,0.0,0.0,0.0,0.0,0.0,0.0,0.0,-3.5376,-3.6138,-3.7103,-3.8155,-3.8584,-3.8744,-3.8707,0.0,0.0,0.0,0.0,0.0,0.0,0.0,-4.3479,-4.3479,-4.3479,-4.3479,-4.3479,-4.3479,-4.3479,-4.3479,0.0,0.0,-4.2121,-4.1937,-4.1937,-4.1956,-4.1919,-4.1956,-4.1956,-4.2772,-4.3192,0.0,0.0,0.0,0.0,-3.5009,0.0,0.0,0.0,-3.6054,-3.5586,0.0,-3.4819,0.0,0.0,0.0,0.0,-3.3509,-3.3577,0.0,0.0,-3.378,-3.3807,-3.3862,-3.3862,-3.3862,-3.3935,-3.4688,-3.4633,-3.3862,-3.3844,0.0,0.0,0.0,0.0,0.0,0.0,-3.3807,-3.3807,-3.3807,-3.3807,-3.3807,-3.3807,-3.3807,-3.3807,-3.3807,-3.3807,-3.3807,-3.3807,-3.3726,-3.3605,-3.3339,0.0,0.0,0.0,0.0,0.0,0.0,0.0,0.0,0.0,0.0,0.0,0.0,0.0,0.0,0.0,0.0,0.0,0.0,0.0,0.0,-3.4768,0.0,0.0,0.0,0.0,0.0,0.0,0.0,0.0,0.0,-3.6927,-3.544,-3.656,-3.7514,-3.7551,0.0,0.0,0.0,0.0,-4.1956,-4.1258,-4.1809,-4.258,-4.3369,-4.3479,-4.3479,-4.3479,0.0,0.0,-4.3479,-4.3479,-4.3479,-4.3479,-4.3479,-4.3479,-4.3442,-4.3387,-4.3406,-4.3406,-4.3369,-4.3461,-4.3461,-4.3422,-4.3477,-3.645,0.0,0.0,0.0,0.0,-3.5907,-3.6347,-3.7044,-3.6465,-3.6098,-3.5842,-3.5162,0.0,0.0,0.0,0.0,0.0,0.0,-3.368,-3.378,-3.3788,-3.41,-3.4669,-3.4669,-3.4981,-3.5587,-3.5807,-3.5514,-3.4706,-3.4669,-3.4376,-3.3807,0.0,0.0,0.0,0.0,-3.3807,-3.3807,-3.3807,-3.3807,-3.3807,-3.3807,-3.3807,-3.3807,-3.3807,-3.3807,-3.3807,-3.3807,-3.3734,-3.3689,-3.3502,0.0,0.0,0.0,0.0,0.0,0.0,0.0,0.0,0.0,0.0,0.0,0.0,0.0,0.0,0.0,0.0,0.0,0.0,0.0,-3.5255,-3.5847,-3.6123,0.0,0.0,0.0,0.0,0.0,0.0,0.0,0.0,0.0,-3.7716,-3.8065,-3.8358,0.0,0.0,-3.9441,-3.9533,-4.0139,-4.091,-4.1809,-4.2158,0.0,-4.3369,-4.3479,-4.3479,-4.3479,-4.3479,-4.3479,-4.3479,-4.3479,-4.3479,-4.3479,-4.3479,-4.3479,-4.3479,-4.3479,-4.3479,-4.3479,-4.3479,-4.3479,-4.3479,-4.3479,-4.3461,-3.7698,-3.7202,-3.6578,-3.6468,-3.6762,-3.678,-3.7221,-3.7936,-3.7477,-3.7074,-3.6743,-3.6182,-3.5428,-3.4649,-3.4564,0.0,0.0,0.0,-3.4678,-3.478,-3.4798,-3.5055,-3.5495,-3.5532,-3.5807,-3.6303,-3.6615,-3.634,-3.5514,-3.5844,-3.5587,-3.478,0.0,-3.3807,-3.3807,-3.3807,-3.3807,-3.3807,-3.3807,-3.3807,-3.3807,-3.3807,-3.3807,-3.3807,-3.3807,-3.3807,-3.3807,-3.3807,-3.378,-3.3753,-3.3605,-3.3433,0.0,0.0,0.0,0.0,0.0,0.0,0.0,0.0,0.0,0.0,0.0,-3.171,-3.1901,0.0,0.0,0.0,-3.4123,-3.5084,-3.6112,-3.6516,0.0,0.0,0.0,0.0,0.0,0.0,0.0,-3.8212,-3.9056,-3.9662,-3.9662,-3.9662,-3.968,-3.9643,-3.9918,-4.0194,-4.0359,0.0,-4.1552,-4.2213,-4.2561,-4.2928,-4.3424,-4.3479,-4.3479,-4.3479,-4.3479,-4.3479,-4.3479,-4.3479,-4.3479,-4.3479,-4.3479,-4.3479,-4.3479,-4.3479,-4.341,-4.3214,-4.3105,-4.3014,-4.2847,-4.2393,-4.2049,-3.8707,-3.8579,-3.711,-3.6927,-3.7569,-3.7617,-3.801,-3.867,-3.8615,-3.8193,-3.7496,-3.7434,-3.6934,-3.6113,-3.6054,0.0,-3.6095,-3.6095,-3.6172,-3.6285,-3.6285,-3.634,-3.6395,-3.6395,-3.6413,-3.6505,-3.7221,-3.7165,-3.645,-3.711,-3.7092,-3.6266,-3.4761,-3.3972,-3.3899,-3.3844,-3.3807,-3.3807,-3.3807,-3.3807,-3.3807,-3.3807,-3.3807,-3.3807,-3.3807,-3.3807,-3.3807,-3.3807,-3.3807,-3.3807,-3.3671,-3.3577,-3.3491,0.0,0.0,0.0,0.0,0.0,0.0,0.0,0.0,0.0,0.0,0.0,0.0,0.0,0.0,0.0,-3.5192,0.0,-3.7013,-3.6987,0.0,0.0,0.0,-3.8041,-3.9662,-3.9932,-4.0225,-4.0954,0.0,0.0,-4.117,-4.1203,-4.1222,-4.1295,-4.1827,-4.1956,-4.1313,-4.2396,-4.313,-4.2506,-4.302,-4.3461,-4.3479,-4.3479,-4.3479,-4.3479,-4.3479,-4.3479,-4.3479,-4.3479,-4.3479,-4.3479,-4.3461,-4.3369,-4.3369,-4.3224,-4.3084,-4.2499,-4.2443,-4.2253,-4.1831,-4.0836,-4.0184,-3.8707,-3.867,-3.8285,-3.823,-3.8432,-3.8432,-3.8524,-3.8652,-3.8046,-3.7661,-3.7459,-3.6835,-3.645,-3.6256,-3.6237,-3.6256,-3.6237,-3.6256,-3.6285,-3.6285,-3.6285,-3.6615,-3.7184,-3.7221,-3.7514,-3.812,-3.8322,-3.801,-3.7239,-3.7404,-3.7092,-3.6303,-3.5899,-3.5385,-3.4697,-3.4119,-3.3807,-3.3807,-3.3807,-3.3807,-3.3807,-3.3807,-3.3807,-3.3807,-3.3807,-3.3807,-3.3807,-3.3807,-3.3807,-3.3807,-3.378,-3.3698,-3.3559,-3.319,0.0,0.0,0.0,0.0,0.0,0.0,0.0,0.0,0.0,-3.1794,-3.2514,0.0,-3.3385,0.0,-3.5882,-3.7116,-3.8322,-3.8227,0.0,0.0,-3.9129,-3.8993,-3.9447,-4.0075,-4.0426,-4.0384,-4.0963,-4.1487,-4.1959,-4.2029,-4.2249,-4.2818,-4.2029,-4.1552,-4.1937,-4.2304,-4.2745,-4.3094,-4.3296,-4.3479,-4.3424,-4.3479,-4.3442,-4.3479,-4.3461,-4.3479,-4.3479,-4.3479,-4.3479,-4.3442,-4.2965,-4.2635,-4.258,-4.1809,-4.1089,-4.0908,-4.1578,-4.2032,-4.1154,-4.0503,-4.0068,-3.8707,-3.8707,-3.8707,-3.8707,-3.8707,-3.8707,-3.8707,-3.867,-3.8212,-3.8028,-3.801,-3.7551,-3.7367,-3.7367,-3.7367,-3.7367,-3.7367,-3.7367,-3.7367,-3.7367,-3.7367,-3.7606,-3.8028,-3.8028,-3.8267,-3.8707,-3.8707,-3.8469,-3.8046,-3.8028,-3.7808,-3.7367,-3.7,-3.6413,-3.5587,-3.4761,-3.4339,-3.4339,-3.399,-3.3807,-3.3807,-3.3807,-3.3807,-3.3788,-3.3762,-3.3753,-3.3753,-3.3698,-3.3671,-3.3671,-3.3587,-3.3502,-3.3368,-3.3037,-3.2879,0.0,0.0,0.0,0.0,0.0,0.0,0.0,0.0,0.0,0.0,0.0,-3.4567,-3.5822,-3.6853,-3.7772,-3.8626,-3.8651,-3.899,-3.9982,-3.9893,-3.994,-4.04,-4.0848,-4.1079,-4.0917,-4.1296,-4.18,-4.2396,-4.2486,-4.2721,-4.3389,-4.2415,-4.1919,-4.2598,-4.2543,-4.2451,-4.2873,-4.2653,-4.2433,-4.2433,-4.2433,-4.2433,-4.2433,-4.2415,-4.2451,-4.2433,-4.2433,-4.2433,-4.2396,-4.2047,-4.1772,-4.1754,-4.1238,-4.058,-4.0366,-4.0739,-4.0904,-4.0299,-3.9549,-3.8961,-3.8707,-3.8707,-3.8707,-3.8707,-3.8707,-3.8707,-3.8707,-3.8707,-3.8707,-3.8707,-3.8707,-3.8627,-3.8627,-3.8707,-3.8627,-3.8627,-3.8707,-3.8707,-3.8707,-3.8707,-3.8707,-3.8707,-3.8707,-3.8707,-3.8707,-3.8707,-3.8707,-3.8658,-3.8578,-3.8658,-3.8658,-3.859,-3.7961,-3.7239,-3.645,-3.5605,-3.5045,-3.4844,-3.4174,-3.3807,-3.3807,-3.3788,-3.378,-3.378,-3.3726,-3.3671,-3.3643,-3.3549,-3.3462,-3.3433,-3.325,-3.3142,-3.305,-3.2841,-3.2878,0.0,-3.2993,0.0,0.0,0.0,0.0,0.0,0.0,0.0,0.0,-3.5043,-3.6321,-3.7143,-3.7877,-3.8413,-3.8551,-3.8773,-3.9247,-4.0149,-4.0263,-4.0657,-4.1446,-4.1578,-4.1639,-4.17,-4.1682,-4.1877,-4.2372,-4.2523,-4.2752,-4.2905,-4.2411,-4.2119,-4.2719,-4.242,-4.2103,-4.2139,-4.157,-4.1313,-4.1277,-4.1203,-4.1203,-4.1167,-4.124,-4.1097,-4.1222,-4.1203,-4.1134,-4.1134,-4.0991,-4.0811,-4.083,-4.062,-4.027,-3.9733,-3.9515,-3.9353,-3.9106,-3.845,-3.7554,-3.8707,-3.8707,-3.8707,-3.8707,-3.8707,-3.8707,-3.8707,-3.8707,-3.8707,-3.8707,-3.8658,-3.8234,-3.8318,-3.8676,-3.8267,-3.8318,-3.8707,-3.8707,-3.8707,-3.8707,-3.8707,-3.8707,-3.8707,-3.8707,-3.8707,-3.8707,-3.8707,-3.8465,-3.8065,-3.8496,-3.8483,-3.8047,-3.835,-3.8065,-3.7257,0.0,0.0,0.0,-3.388,-3.3807,-3.3807,-3.3753,-3.3726,-3.3726,-3.3605,0.0,-3.3452,-3.3327,-3.3208,-3.3099,-3.3055,0.0,0.0,0.0,0.0,0.0,0.0,0.0,0.0,0.0,0.0,0.0,-3.3947,-3.4329,-3.4482,-3.5939,-3.7115,-3.7784,-3.8567,-3.9136,-3.9513,-3.9696,-4.0107,-4.0695,-4.0371,-4.0231,-4.0417,-4.0434,-4.0645,-4.1215,-4.1157,-4.1163,-4.1474,-4.176,-4.1772,-4.1346,-4.1114,-4.081,-4.0423,-4.0925,-4.1299,-4.1313,-4.1009,-4.1042,-4.1097,-4.1024,-4.0848,-4.1097,-4.1097,-4.1042,-4.0954,-4.0972,-4.1042,-4.0954,-4.019,-3.9494,-3.946,-3.8307,-3.7606,-3.7729,-3.7432,-3.7241,-3.7711,-3.7839,-3.7592,-3.8707,-3.8707,-3.8707,-3.8707,0.0,-3.8707,-3.8707,-3.8707,-3.8707,-3.8546,-3.83,-3.8032,-3.7911,-3.7929,-3.7911,-3.8065,-3.83,-3.8578,-3.8707,-3.8707,-3.8707,-3.8707,-3.8707,-3.8707,-3.8707,-3.8707,-3.8707,-3.8564,-3.8318,-3.83,-3.8183,-3.7893,-3.7911,-3.7486,-3.6516,-3.5556,-3.4651,-3.3807,-3.3807,-3.3807,-3.3788,-3.3762,-3.3652,-3.3465,-3.3339,0.0,0.0,0.0,0.0,0.0,0.0,0.0,0.0,-3.2943,0.0,-3.3837,-3.4062,-3.4304,-3.4575,-3.4549,-3.4489,-3.4506,-3.4844,-3.526,-3.5677,-3.6808,-3.7759,-3.8441,-3.9188,-3.971,-3.9918,-4.0033,-4.0204,-4.0449,-4.0254,-4.0087,-4.0087,-4.0087,-4.0238,-4.0551,-4.0597,-4.053,-4.0507,-4.0674,-4.0654,-4.02,-3.982,-3.9425,-3.915,-3.9405,-3.9661,-3.9264,-3.9174,-3.9244,-3.9434,-3.9297,-3.9315,-3.9434,-3.9331,-3.9192,-3.9174,-3.9174,-3.9192,-3.9102,-3.8582,-3.8151,-3.8096,-3.7382,-3.6882,-3.7114,-3.6999,-3.6788,-3.6984,-3.7048,-3.7041,-3.8707,-3.8707,-3.8707,-3.8707,-3.8707,-3.8707,-3.8707,-3.8707,-3.8596,0.0,0.0,-3.7685,-3.747,-3.7228,-3.7506,-3.7685,-3.779,-3.8234,-3.8451,-3.8433,-3.8433,-3.8433,-3.8433,-3.8433,-3.8433,-3.8433,-3.8433,-3.8401,-3.8285,-3.7964,-3.772,-3.7596,-3.7217,-3.6399,-3.5202,-3.4116,-3.356,-3.3578,-3.3652,-3.3634,-3.3578,-3.355,-3.339,-3.3093,-3.297,-3.2749,-3.2351,-3.2197,-3.2144,-3.2073,-3.193,-3.2147,-3.2792,-3.2831,-3.3396,-3.455,-3.4805,-3.5101,-3.5571,-3.5639,-3.5639,-3.5639,-3.5639,-3.5994,-3.6907,-3.7533,-3.8278,-3.9106,-3.9732,-4.007,-4.0087,-4.0087,-4.0087,-4.0087,-4.0087,-4.0087,-4.0087,-4.0087,-4.0121,-4.007,-4.0002,-3.9829,-3.9652,-3.9537,-3.9354,-3.9094,-3.8515,-3.8033,-3.7985,-3.8107,-3.8067,-3.7569,-3.7554,-3.7485,-3.765,-3.7595,-3.736,-3.7846,-3.7559,-3.721,-3.719,-3.719,-3.719,-3.7427,-3.7152,-3.7094,-3.7094,-3.6939,-3.6904,-3.6921,-3.6781,-3.6593,-3.6208,-3.5939,-3.5894,-3.8707,-3.8707,-3.8707,-3.8707,-3.8707,-3.8707,-3.8707,-3.8658,-3.8234,-3.7738,-3.7248,-3.6786,-3.6843,-3.719,-3.6786,-3.6882,-3.7285,-3.7377,-3.7414,-3.7396,-3.7414,-3.7414,-3.7414,-3.7414,-3.7396,-3.7414,-3.7396,-3.719,-3.6803,-3.7114,-3.7058,-3.6619,-3.6295,-3.5421,-3.4017,-3.3108,-3.2681,-3.2663,-3.3075,-3.3075,-3.2681,-3.2634,-3.2568,-3.2519,-3.2403,-3.2266,-3.2074,-3.1985,-3.1858,-3.1674,-3.1654,-3.1939,-3.2531,-3.3121,-3.3794,-3.4498,-3.5115,-3.552,-3.556,-3.5639,-3.5639,-3.5639,-3.5639,-3.6231,-3.7601,-3.7855,-3.8464,-3.9766,-4.002,-4.0087,-4.0087,-4.0087,-4.0087,-4.0087,-4.0087,-4.0087,-4.007,-4.0037,-4.0037,-4.0003,-3.9512,-3.9056,-3.8747,-3.8421,-3.7972,-3.7399,-3.7202,-3.6819,-3.6474,-3.68,-3.7276,-3.7246,-3.719,-3.7228,-3.7248,-3.7248,-3.719,-3.7285,-3.721,-3.7058,-3.7076,-3.7058,-3.7058,-3.7152,-3.6733,-3.651,-3.6446,-3.6139,-3.5848,-3.5719,-3.5369,-3.4959,-3.4857,-3.4449,-3.4243,-3.8707,-3.8707,-3.8707,-3.8707,-3.8707,-3.8707,-3.8401,-3.7879,-3.7632,-3.7396,-3.7152,-3.6643,-3.6374,-3.6316,-3.6374,-3.6539,-3.6764,-3.7058,-3.719,-3.719,-3.719,-3.719,-3.719,-3.719,-3.719,-3.719,-3.719,-3.7058,-3.6843,-3.6786,-3.6434,-3.5781,-3.4868,-3.4018,-3.3335,-3.2772,-3.2384,-3.2144,-3.2583,-3.2713,-3.2517,-3.2468,-3.2316,-3.2074,-3.2021,-3.186,-3.1562,-3.1542,-3.1466,-3.1368,-3.1406,-3.1856,-3.293,-3.332,-3.3956,-3.5013,-3.5419,-3.5639,-3.5639,-3.5639,-3.5639,-3.5639,-3.5639,-3.6096,-3.7212,-3.7686,-3.8531,-3.9901,-4.0087,-4.0087,-4.0087,-4.0087,-4.0087,-4.0087,-4.0087,-4.0087,-4.0037,-3.9681,-3.9478,-3.9428,-3.8853,-3.821,-3.7655,-3.7449,-3.7009,-3.6315,-3.6163,-3.5994,-3.5673,-3.5994,-3.6316,-3.6316,-3.6333,-3.6481,-3.6684,-3.6481,-3.6481,-3.6724,-3.6539,-3.6357,-3.6333,-3.6298,-3.634,-3.6281,-3.583,-3.5446,-3.5352,-3.4857,-3.4515,-3.4387,-3.4201,-3.4024,-3.4134,-3.3643,-3.3403,-3.8707,-3.8707,-3.8707,-3.8627,-3.8515,-3.8401,-3.7913,-3.721,-3.7076,-3.7038,-3.696,-3.6457,-3.5985,-3.565,-3.6011,-3.6207,-3.6308,-3.6643,-3.6825,-3.6843,-3.6825,-3.6843,-3.6825,-3.6825,-3.6825,-3.6825,-3.6825,-3.6825,-3.6786,-3.6399,-3.5742,-3.4818,-3.3524,-3.2745,-3.2593,-3.2335,-3.2004,-3.1696,-3.2021,-3.2231,-3.2231,-3.2213,-3.2039,-3.1696,-3.166,-3.1507,-3.123,-3.119,-3.119,-3.119,-3.119,-3.1799,-3.3051,-3.3322,-3.3981,-3.5199,-3.5537,-3.5639,-3.5639,-3.5639,-3.5639,-3.5639,-3.5639,-3.596,-3.6705,-3.7297,-3.8261,-3.9563,-3.9986,-4.0087,-4.0087,-4.0087,-4.0087,-4.0087,-3.9918,-3.98,-3.9766,-3.9191,-3.8751,-3.8684,-3.8108,-3.7415,-3.6924,-3.662,-3.6299,-3.5825,-3.5639,-3.5639,-3.5639,-3.5639,-3.5639,-3.5639,-3.5639,-3.5783,-3.6156,-3.5958,-3.5871,-3.6182,-3.571,-3.5477,-3.5355,-3.5277,-3.5098,-3.5033,-3.4651,-3.4346,-3.4201,-3.3863,-3.3541,-3.3541,-3.3355,-3.3228,-3.3277,-3.2812,-3.2574,-3.8707,-3.8707,-3.8689,-3.8415,-3.7964,-3.756,-3.7285,-3.7135,-3.6684,-3.6498,-3.6416,-3.5915,-3.5667,-3.5622,-3.5667,-3.5711,-3.5694,-3.5739,-3.5766,-3.5827,-3.5739,-3.5783,-3.581,-3.5783,-3.5739,-3.5783,-3.5827,-3.5854,-3.5837,-3.5671,-3.4948,-3.366,-3.2744,-3.2055,-3.1477,-3.138,-3.1329,-3.1252,-3.1291,-3.1329,-3.1329,-3.1329,-3.1291,-3.1252,-3.1252,-3.123,-3.119,-3.119,-3.119,-3.119,-3.119,-3.1562,-3.2341,-3.3034,-3.3761,-3.4556,-3.525,-3.5639,-3.5639,-3.5639,-3.5639,-3.5639,-3.5639,-3.5926,-3.6637,-3.684,-3.7516,-3.8785,-3.9648,-3.9952,-4.007,-4.002,-3.9935,-3.9851,-3.9428,-3.9106,-3.9005,-3.8447,-3.8007,-3.8007,-3.7347,-3.684,-3.6671,-3.618,-3.5774,-3.5673,-3.5639,-3.5639,-3.5639,-3.5639,-3.5639,-3.5622,-3.5605,-3.5605,-3.5677,-3.565,-3.5565,-3.5576,-3.5057,-3.4692,-3.4506,-3.4134,-3.3643,-3.4015,-3.3643,-3.3525,-3.3508,-3.3406,-3.3322,-3.3017,-3.2679,-3.2263,-3.1721,-3.1517,-3.1698,-3.8707,-3.8658,-3.835,-3.7964,-3.747,-3.7285,-3.702,-3.6684,-3.6498,-3.6207,-3.5941,-3.5694,-3.5639,-3.5639,-3.5639,-3.5639,-3.5639,-3.5639,-3.5639,-3.5639,-3.5639,-3.5639,-3.5639,-3.5639,-3.5639,-3.5639,-3.5639,-3.5639,-3.547,-3.4742,-3.3761,-3.2763,-3.2002,-3.1495,-3.1207,-3.119,-3.119,-3.119,-3.119,-3.119,-3.119,-3.119,-3.119,-3.119,-3.119,-3.119,-3.119,-3.119,-3.119,-3.119,-3.119,-3.1529,-3.2239,-3.3,-3.3728,-3.4455,-3.5216,-3.5639,-3.5639,-3.5639,-3.5639,-3.5639,-3.5639,-3.5774,-3.6079,-3.6502,-3.706,-3.7618,-3.8362,-3.8785,-3.8802,-3.8802,-3.8785,-3.8751,-3.8531,-3.8345,-3.8345,-3.7702,-3.7229,-3.7195,-3.6586,-3.6096,-3.6062,-3.5825,-3.5639,-3.5639,-3.5639,-3.5639,-3.5639,-3.5639,-3.5639,-3.5571,-3.5267,-3.5182,-3.5436,-3.5182,-3.5013,-3.4844,-3.4336,-3.3863,-3.3795,-3.3677,-3.3406,-3.3355,-3.3,-3.278,-3.2747,-3.2324,-3.2087,-3.2087,-3.2002,-3.1512,-3.1224,-3.119,-3.136,-3.8707,-3.8578,-3.7998,-3.7506,-3.7173,-3.6865,-3.6522,-3.6224,-3.6165,-3.5985,-3.5622,-3.5639,-3.5639,-3.5639,-3.5639,-3.5639,-3.5639,-3.5639,-3.5639,-3.5639,-3.5639,-3.5639,-3.5639,-3.5639,-3.5639,-3.5639,-3.5639,-3.552,-3.5199,-3.4066,-3.3017,-3.229,-3.1546,-3.119,-3.119,-3.119,-3.119,-3.119,-3.119,-3.119,-3.119,-3.119,-3.119,-3.119,-3.119,-3.119,-3.119,-3.119,-3.119,-3.119,-3.119,-3.1427,-3.2009,-3.2696,-3.3508,-3.4438,-3.5199,-3.5639,-3.5639,-3.5639,-3.5515,-3.5362,-3.5316,-3.527,-3.5198,-3.5585,-3.5916,-3.5935,-3.6434,-3.6851,-3.7841,-3.7728,-3.7679,-3.7841,-3.777,-3.7601,-3.7567,-3.6907,-3.6468,-3.64,-3.6028,-3.5639,-3.5639,-3.5639,-3.5639,-3.5639,-3.5639,-3.5639,-3.5639,-3.5622,-3.5554,-3.5351,-3.481,-3.4776,-3.5148,-3.4658,-3.4286,-3.4066,-3.3626,-3.3228,-3.3068,-3.2966,-3.2763,-3.2307,-3.2121,-3.2036,-3.2002,-3.1529,-3.1258,-3.1207,-3.1207,-3.1224,-3.119,-3.119,-3.119,-3.8707,-3.8515,-3.7632,-3.7173,-3.7114,-3.6122,-3.5694,-3.5694,-3.565,-3.5622,-3.5639,-3.5639,-3.5639,-3.5639,-3.5639,-3.5639,-3.5639,-3.5639,-3.5639,-3.5639,-3.5639,-3.5639,-3.5639,-3.5639,-3.5639,-3.5639,-3.5622,-3.525,-3.4523,-3.3778,-3.3017,-3.2256,-3.1529,-3.119,-3.119,-3.119,-3.119,-3.119,-3.119,-3.119,-3.119,-3.119,-3.119,-3.119,-3.119,-3.119,-3.119,-3.119,-3.119,-3.119,-3.119,-3.1224,-3.1326,-3.1952,-3.3,-3.4293,-3.5121,-3.556,-3.5532,-3.547,-3.5253,-3.4783,-3.464,-3.4382,-3.3937,-3.3984,-3.4048,-3.3815,-3.4062,-3.5002,-3.7066,-3.6887,-3.6937,-3.7477,-3.7131,-3.6764,-3.676,-3.6013,-3.5678,-3.5616,-3.5475,-3.5379,-3.5487,-3.5639,-3.5515,-3.5515,-3.5577,-3.5588,-3.5504,-3.5554,-3.5267,-3.4726,-3.4438,-3.4472,-3.4455,-3.3931,-3.3525,-3.3322,-3.3025,-3.2625,-3.2212,-3.185,-3.1596,-3.141,-3.1444,-3.141,-3.1292,-3.1241,-3.1207,-3.119,-3.119,-3.119,-3.119,-3.119,-3.119,-3.7826,-3.7228,-3.6843,-3.6481,-3.6122,-3.5739,-3.5639,-3.5639,-3.5639,-3.5639,-3.5639,-3.5639,-3.5639,-3.5639,-3.5639,-3.5639,-3.5639,-3.5639,-3.5639,-3.5639,-3.5639,-3.5639,-3.5639,-3.5639,-3.5639,-3.5639,-3.5622,-3.4979,-3.388,-3.3508,-3.278,-3.1732,-3.1326,-3.119,-3.119,-3.119,-3.119,-3.119,-3.119,-3.119,-3.119,-3.119,-3.119,-3.119,-3.119,-3.119,-3.119,-3.119,-3.119,-3.119,-3.119,-3.119,-3.1258,-3.1884,-3.2749,-3.3723,-3.411,-3.4256,-3.4317,-3.4333,-3.4252,-3.4037,-3.3953,-3.3903,-3.3649,-3.3582,-3.3582,-3.3531,-3.3182,-3.3762,-3.4621,-3.4917,-3.4866,-3.5052,-3.4922,-3.4841,-3.471,-3.4513,-3.4301,-3.4333,-3.435,-3.4301,-3.4479,-3.4688,-3.4941,-3.5005,-3.5316,-3.5341,-3.5013,-3.4912,-3.4641,-3.3931,-3.3406,-3.3085,-3.3068,-3.2899,-3.2645,-3.2493,-3.2246,-3.189,-3.1478,-3.1478,-3.1309,-3.1309,-3.1207,-3.119,-3.1224,-3.1207,-3.119,-3.119,-3.119,-3.119,-3.119,-3.119,-3.119,-3.7488,-3.6904,-3.6539,-3.6182,-3.5854,-3.5667,-3.5639,-3.5639,-3.5639,-3.5639,-3.5639,-3.5639,-3.5639,-3.5639,-3.5639,-3.5639,-3.5639,-3.5639,-3.5639,-3.5639,-3.5639,-3.5639,-3.5639,-3.5639,-3.5639,-3.5639,-3.5639,-3.4962,-3.3863,-3.3525,-3.2747,-3.1613,-3.1326,-3.119,-3.119,-3.119,-3.119,-3.119,-3.119,-3.119,-3.119,-3.119,-3.119,-3.119,-3.119,-3.119,-3.119,-3.119,-3.119,-3.119,-3.119,-3.119,-3.1258,-3.1924,-3.253,-3.3045,-3.3383,-3.353,-3.3549,-3.3607,-3.3479,-3.3287,-3.3303,-3.3182,-3.2971,-3.2933,-3.2917,-3.281,-3.2571,-3.2477,-3.2772,-3.2949,-3.313,-3.3479,-3.3582,-3.3582,-3.3582,-3.3649,-3.3633,-3.3684,-3.3684,-3.3601,-3.3486,-3.3939,-3.4301,-3.4478,-3.4788,-3.4695,-3.4563,-3.4252,-3.388,-3.3169,-3.2679,-3.2307,-3.2138,-3.2002,-3.1952,-3.1816,-3.1816,-3.1376,-3.119,-3.119,-3.119,-3.119,-3.119,-3.119,-3.119,-3.119,-3.119,-3.119,-3.119,-3.119,-3.119,-3.119,-3.119,-3.7825,-3.756,-3.6786,-3.6308,-3.6182,-3.5766,-3.5639,-3.5639,-3.5639,-3.5639,-3.5639,-3.5639,-3.5639,-3.5639,-3.5639,-3.5639,-3.5639,-3.5639,-3.5639,-3.5639,-3.5639,-3.5639,-3.5639,-3.5639,-3.5639,-3.5639,-3.5639,-3.5216,-3.4404,-3.3728,-3.2983,-3.2239,-3.1495,-3.119,-3.119,-3.119,-3.119,-3.119,-3.119,-3.119,-3.119,-3.119,-3.119,-3.119,-3.119,-3.119,-3.119,-3.119,-3.119,-3.119,-3.119,-3.119,-3.1275,-3.1816,-3.2273,-3.237,-3.2984,-3.3406,-3.3432,-3.3433,-3.3072,-3.2841,-3.2641,-3.2312,-3.1894,-3.1739,-3.1739,-3.1724,-3.1697,-3.1625,-3.1625,-3.1682,-3.216,-3.3271,-3.3323,-3.3339,-3.3427,-3.3531,-3.3547,-3.3443,-3.3375,-3.3367,-3.3089,-3.3268,-3.3671,-3.3811,-3.3791,-3.3644,-3.3768,-3.3403,-3.3001,-3.2411,-3.1941,-3.1648,-3.1415,-3.1207,-3.1224,-3.1241,-3.1309,-3.119,-3.119,-3.119,-3.119,-3.119,-3.119,-3.119,-3.119,-3.119,-3.119,-3.119,-3.119,-3.119,-3.119,-3.119,-3.119,-3.7002,-3.6316,-3.6011,-3.5854,-3.581,-3.565,-3.5639,-3.5639,-3.5639,-3.5639,-3.5639,-3.5639,-3.5639,-3.5639,-3.5639,-3.5639,-3.5639,-3.5639,-3.5639,-3.5639,-3.5639,-3.5639,-3.5639,-3.5639,-3.5639,-3.5639,-3.5639,-3.5233,-3.4506,-3.3778,-3.3034,-3.2273,-3.1562,-3.1207,-3.119,-3.119,-3.119,-3.119,-3.119,-3.119,-3.119,-3.119,-3.119,-3.119,-3.119,-3.119,-3.119,-3.119,-3.119,-3.119,-3.119,-3.119,-3.1241,-3.1393,-3.153,-3.1622,-3.1803,-3.2275,-3.2692,-3.2396,-3.2289,-3.2392,-3.216,-3.1811,-3.1524,-3.1467,-3.1467,-3.1467,-3.1467,-3.1467,-3.1467,-3.1467,-3.1724,-3.2104,-3.2145,-3.2256,-3.2296,-3.2185,-3.2145,-3.2145,-3.2145,-3.2099,-3.2078,-3.2485,-3.2719,-3.2558,-3.2624,-3.2707,-3.1936,-3.1835,-3.1104,-3.0468,-3.0629,-3.1124,-3.1029,-3.1055,-3.119,-3.119,-3.119,-3.119,-3.119,-3.119,-3.119,-3.119,-3.119,-3.119,-3.119,-3.119,-3.119,-3.119,-3.119,-3.119,-3.119,-3.119,-3.119,-3.6666,-3.5898,-3.5711,-3.5639,-3.5639,-3.5639,-3.5639,-3.5639,-3.5639,-3.5639,-3.5639,-3.5639,-3.5639,-3.5639,-3.5639,-3.5639,-3.5639,-3.5639,-3.5639,-3.5639,-3.5639,-3.5639,-3.5639,-3.5639,-3.5639,-3.5639,-3.5639,-3.5368,-3.4895,-3.4167,-3.344,-3.2696,-3.1968,-3.1444,-3.1224,-3.119,-3.119,-3.119,-3.119,-3.119,-3.119,-3.119,-3.119,-3.119,-3.119,-3.119,-3.119,-3.119,-3.119,-3.119,-3.119,-3.1112,-3.0918,-3.0855,-3.0792,-3.0626,-3.0642,-3.0894,-3.1284,-3.1186,-3.1258,-3.1662,-3.166,-3.1524,-3.1467,-3.1467,-3.1467,-3.1467,-3.1467,-3.1467,-3.1467,-3.1467,-3.1467,-3.1524,-3.1524,-3.1467,-3.1467,-3.1467,-3.1524,-3.1582,-3.1582,-3.142,-3.1339,-3.146,-3.172,-3.1347,-3.1338,-3.1484,-3.0606,-3.0558,-3.0077,-2.9978,-3.0551,-3.084,-3.079,-3.0918,-3.1151,-3.119,-3.119,-3.119,-3.119,-3.119,-3.119,-3.119,-3.119,-3.119,-3.119,-3.119,-3.119,-3.119,-3.119,-3.119,-3.119,-3.119,-3.119,-3.6742,-3.6212,-3.5674,-3.5402,-3.5385,-3.5368,-3.5334,-3.5419,-3.5419,-3.5351,-3.5385,-3.5402,-3.5487,-3.552,-3.5554,-3.5639,-3.5639,-3.5639,-3.5639,-3.5639,-3.5639,-3.5639,-3.5639,-3.5639,-3.5639,-3.5639,-3.5639,-3.5605,-3.5436,-3.4742,-3.4117,-3.3305,-3.2544,-3.1901,-3.1326,-3.119,-3.119,-3.119,-3.119,-3.119,-3.119,-3.1095,-3.1112,-3.1055,-3.1015,-3.0958,-3.1055,-3.1055,-3.1112,-3.119,-3.119,-3.0935,-3.0477,-3.0293,-3.0113,-2.9653,-2.9501,-2.9703,-2.9763,-3.0188,-3.0603,-3.0875,-3.1189,-3.1467,-3.1452,-3.1467,-3.1467,-3.1467,-3.1467,-3.1467,-3.1467,-3.1467,-3.1467,-3.1467,-3.1467,-3.1467,-3.1467,-3.1467,-3.1467,-3.1452,-3.1422,-3.1255,-3.0657,-3.0608,-3.05,-3.0293,-2.9979,-2.9902,-3.0037,-3.0006,-3.0152,-3.0293,-3.0435,-3.0617,-3.0617,-3.0975,-3.119,-3.119,-3.119,-3.119,-3.119,-3.119,-3.119,-3.119,-3.119,-3.119,-3.119,-3.119,-3.119,-3.119,-3.119,-3.119,-3.119,-3.119,-3.119,-3.5162,-3.4673,-3.4176,-3.3998,-3.3981,-3.3981,-3.4015,-3.3998,-3.4015,-3.41,-3.4117,-3.4556,-3.481,-3.4844,-3.5385,-3.5639,-3.5639,-3.5639,-3.5639,-3.5639,-3.5639,-3.5639,-3.5639,-3.5639,-3.5639,-3.5639,-3.5639,-3.5639,-3.5554,-3.4912,-3.415,-3.3406,-3.2696,-3.1935,-3.1309,-3.119,-3.119,-3.119,-3.119,-3.1151,-3.1055,-3.0757,-3.0518,-3.0518,-3.0123,-3.0166,-3.0477,-3.0518,-3.0781,-3.1151,-3.119,-3.0935,-3.0293,-3.0208,-2.9935,-2.9409,-2.9354,-2.9657,-2.9959,-2.9909,-3.0216,-3.1152,-3.0895,-3.0986,-3.1437,-3.1467,-3.1467,-3.1467,-3.1467,-3.1467,-3.1467,-3.1467,-3.1467,-3.1467,-3.1407,-3.1422,-3.1467,-3.1467,-3.1467,-3.1437,-3.1076,-3.0687,-3.0402,-3.0043,-2.9672,-2.9282,-2.9037,-2.8865,-2.909,-2.9357,-2.9451,-2.9805,-2.9978,-3.0293,-3.0576,-3.0975,-3.1151,-3.119,-3.119,-3.119,-3.119,-3.119,-3.119,-3.119,-3.119,-3.119,-3.119,-3.119,-3.119,-3.119,-3.119,-3.119,-3.119,-3.119,-3.119,-3.4419,-3.3825,-3.3704,-3.3598,-3.3431,-3.3598,-3.3598,-3.3431,-3.3389,-3.3389,-3.3491,-3.3829,-3.4201,-3.4539,-3.4945,-3.5351,-3.5605,-3.5639,-3.5639,-3.5639,-3.5639,-3.5639,-3.5639,-3.5639,-3.5639,-3.5639,-3.5639,-3.5639,-3.5554,-3.5165,-3.4438,-3.3541,-3.2983,-3.2222,-3.1202,-3.0918,-3.0821,-3.0757,-3.0601,-3.0435,-3.0393,-3.0123,-2.9995,-2.9908,-2.9585,-2.9585,-2.9892,-2.9892,-3.0123,-3.0351,-3.0393,-3.0149,-2.9613,-2.954,-2.9271,-2.8732,-2.8638,-2.8825,-2.9168,-2.915,-2.9501,-3.0212,-3.0268,-3.0713,-3.1061,-3.133,-3.1467,-3.1467,-3.1467,-3.1467,-3.1467,-3.1467,-3.1332,-3.1135,-3.1091,-3.1225,-3.1422,-3.124,-3.112,-3.0941,-3.0537,-2.9983,-2.9774,-2.9385,-2.8891,-2.8434,-2.8261,-2.8157,-2.8198,-2.8479,-2.895,-2.939,-2.9978,-3.0477,-3.0699,-3.0958,-3.1151,-3.1151,-3.119,-3.119,-3.119,-3.119,-3.119,-3.119,-3.119,-3.119,-3.119,-3.119,-3.119,-3.119,-3.119,-3.119,-3.119,-3.119,-3.119,-3.4154,-3.3383,-3.3709,-3.3608,-3.3291,-3.3608,-3.3351,-3.316,-3.3034,-3.3034,-3.3085,-3.322,-3.3558,-3.4252,-3.4438,-3.4878,-3.547,-3.5554,-3.5639,-3.5639,-3.5639,-3.5639,-3.5639,-3.5639,-3.5639,-3.5639,-3.5639,-3.5639,-3.5543,-3.5464,-3.4627,-3.348,-3.3127,-3.2337,-3.1041,-3.0435,-3.0251,-3.0123,-2.9805,-2.9629,-2.9585,-2.9406,-2.9332,-2.9316,-2.9271,-2.9134,-2.918,-2.9225,-2.9332,-2.9225,-2.93,-2.918,-2.8701,-2.8559,-2.8271,-2.7845,-2.7795,-2.7775,-2.7765,-2.8282,-2.8569,-2.8967,-2.9768,-3.0357,-3.0462,-3.0836,-3.1106,-3.1076,-3.1258,-3.1021,-3.0891,-3.1111,-3.0827,-3.0339,-3.0276,-3.0717,-3.1046,-3.0776,-3.0402,-3.0372,-2.9864,-2.925,-2.8831,-2.8487,-2.8278,-2.7993,-2.785,-2.7961,-2.8137,-2.8511,-2.895,-2.9361,-3.0021,-3.0781,-3.0918,-3.0998,-3.1095,-3.1151,-3.119,-3.119,-3.119,-3.119,-3.119,-3.119,-3.119,-3.119,-3.119,-3.119,-3.119,-3.119,-3.119,-3.119,-3.119,-3.119,-3.119,-3.3405,-3.3179,-3.2563,-3.2254,-3.2104,-3.1944,-3.18,-3.1715,-3.1715,-3.1799,-3.1816,-3.2273,-3.2628,-3.2882,-3.3931,-3.4607,-3.4878,-3.5318,-3.5622,-3.5639,-3.5639,-3.5639,-3.5577,-3.5577,-3.5577,-3.5622,-3.5639,-3.5639,-3.5532,-3.504,-3.4101,-3.2873,-3.2225,-3.1199,-3.0016,-2.9761,-2.9585,-2.9585,-2.9406,-2.9316,-2.918,-2.8873,-2.8701,-2.8685,-2.8685,-2.8463,-2.8174,-2.8463,-2.8463,-2.8367,-2.8764,-2.8996,-2.8559,-2.8431,-2.8189,-2.776,-2.756,-2.756,-2.7604,-2.7754,-2.8053,-2.8532,-2.8906,-2.9235,-2.9759,-2.9939,-3.0043,-3.0013,-2.9983,-2.9882,-2.953,-2.9737,-2.9663,-2.9348,-2.947,-2.9819,-2.9924,-2.9879,-2.9774,-2.9654,-2.922,-2.8757,-2.8562,-2.8068,-2.7814,-2.759,-2.766,-2.7845,-2.8125,-2.8496,-2.881,-2.918,-2.9805,-3.0477,-3.0683,-3.0821,-3.1055,-3.1134,-3.119,-3.119,-3.119,-3.119,-3.119,-3.119,-3.119,-3.119,-3.119,-3.119,-3.119,-3.119,-3.119,-3.119,-3.119,-3.119,-3.1291,-3.3093,-3.2858,-3.2565,-3.2196,-3.1844,-3.177,-3.1545,-3.1252,-3.119,-3.119,-3.1258,-3.1647,-3.1952,-3.2398,-3.344,-3.4134,-3.4624,-3.5267,-3.5639,-3.5639,-3.5639,-3.5639,-3.547,-3.5316,-3.527,-3.5532,-3.5639,-3.5639,-3.5419,-3.4789,-3.3889,-3.2529,-3.1743,-3.0797,-2.9521,-2.915,-2.9012,-2.8919,-2.8685,-2.8528,-2.8496,-2.8271,-2.8091,-2.8091,-2.8091,-2.791,-2.771,-2.7894,-2.791,-2.786,-2.8222,-2.8448,-2.8189,-2.8091,-2.791,-2.766,-2.756,-2.756,-2.756,-2.759,-2.779,-2.8098,-2.8397,-2.8742,-2.9146,-2.937,-2.9579,-2.9594,-2.9609,-2.9401,-2.9013,-2.9277,-2.9174,-2.8793,-2.8818,-2.8996,-2.8786,-2.8906,-2.9116,-2.8996,-2.8532,-2.8233,-2.7934,-2.7724,-2.7649,-2.7575,-2.756,-2.771,-2.7894,-2.8222,-2.8543,-2.895,-2.9585,-3.0081,-3.0335,-3.0642,-3.0998,-3.1095,-3.119,-3.119,-3.119,-3.119,-3.119,-3.119,-3.119,-3.119,-3.119,-3.119,-3.119,-3.119,-3.119,-3.119,-3.119,-3.123,-3.1389,-3.3075,-3.2695,-3.3045,-3.2745,-3.2127,-3.2248,-3.195,-3.1351,-3.123,-3.119,-3.119,-3.119,-3.1579,-3.2171,-3.2865,-3.3677,-3.4523,-3.5233,-3.5639,-3.5639,-3.5639,-3.5639,-3.547,-3.5098,-3.4894,-3.5407,-3.5207,-3.5161,-3.4977,-3.4409,-3.3086,-3.2161,-3.1261,-3.0096,-2.917,-2.8638,-2.8367,-2.8334,-2.7993,-2.776,-2.776,-2.771,-2.766,-2.766,-2.766,-2.766,-2.761,-2.766,-2.761,-2.756,-2.756,-2.756,-2.756,-2.756,-2.756,-2.756,-2.756,-2.756,-2.756,-2.756,-2.759,-2.759,-2.8053,-2.8382,-2.8562,-2.8643,-2.8729,-2.8833,-2.868,-2.8448,-2.8788,-2.8517,-2.8297,-2.8018,-2.7992,-2.8003,-2.7742,-2.7995,-2.8382,-2.8368,-2.8083,-2.7829,-2.7724,-2.759,-2.7575,-2.756,-2.756,-2.761,-2.776,-2.7894,-2.8222,-2.8319,-2.8764,-2.9496,-2.9848,-3.0418,-3.0821,-3.1095,-3.119,-3.119,-3.119,-3.119,-3.119,-3.119,-3.119,-3.119,-3.119,-3.119,-3.119,-3.119,-3.119,-3.119,-3.123,-3.1286,-3.1504,-3.3662,-3.3578,-3.3302,-3.3075,-3.2872,-3.2264,-3.1897,-3.166,-3.1351,-3.119,-3.123,-3.119,-3.1258,-3.1596,-3.2138,-3.3203,-3.4404,-3.5165,-3.5571,-3.5622,-3.5639,-3.5639,-3.547,-3.4941,-3.4736,-3.4528,-3.4235,-3.3956,-3.3711,-3.2692,-3.1964,-3.0867,-2.9797,-2.8801,-2.8229,-2.7795,-2.786,-2.786,-2.766,-2.761,-2.756,-2.756,-2.756,-2.756,-2.756,-2.756,-2.7575,-2.7575,-2.756,-2.756,-2.756,-2.756,-2.756,-2.756,-2.756,-2.756,-2.756,-2.756,-2.756,-2.756,-2.756,-2.764,-2.7622,-2.7718,-2.7712,-2.7357,-2.7326,-2.7039,-2.6631,-2.605,-2.5263,-2.6218,-2.5841,-2.5633,-2.6266,-2.6895,-2.6899,-2.7284,-2.7742,-2.7705,-2.7614,-2.756,-2.756,-2.756,-2.756,-2.756,-2.756,-2.756,-2.766,-2.771,-2.776,-2.781,-2.781,-2.8575,-2.93,-3.0064,-3.0601,-3.1055,-3.119,-3.119,-3.119,-3.119,-3.119,-3.119,-3.119,-3.119,-3.119,-3.119,-3.119,-3.119,-3.119,-3.119,-3.1269,-3.1402,-3.1746,-3.3928,-3.3807,-3.3578,-3.3408,-3.3136,-3.2745,-3.2366,-3.2092,-3.1696,-3.1507,-3.1449,-3.1329,-3.119,-3.1393,-3.1992,-3.3102,-3.4269,-3.481,-3.5233,-3.5504,-3.5639,-3.5639,-3.5532,-3.4894,-3.4688,-3.4219,-3.3363,-3.2831,-3.2958,-3.2119,-3.0986,-3.0049,-2.9016,-2.8228,-2.7735,-2.761,-2.756,-2.756,-2.756,-2.756,-2.756,-2.756,-2.756,-2.756,-2.756,-2.756,-2.7509,-2.7152,-2.7255,-2.7423,-2.7255,-2.7306,-2.7458,-2.756,-2.756,-2.756,-2.756,-2.756,-2.7458,-2.7357,-2.7137,-2.7458,-2.7034,-2.6916,-2.7071,-2.6736,-2.6,-2.5837,-2.5728,-2.53,-2.5061,-2.5175,-2.5175,-2.5175,-2.5783,-2.6336,-2.6549,-2.6826,-2.7034,-2.7203,-2.7408,-2.7524,-2.756,-2.756,-2.756,-2.756,-2.756,-2.756,-2.756,-2.756,-2.761,-2.7795,-2.7993,-2.8764,-2.948,-3.0064,-3.0601,-3.1015,-3.119,-3.119,-3.119,-3.119,-3.119,-3.119,-3.119,-3.119,-3.119,-3.119,-3.119,-3.119,-3.119,-3.123,-3.1346,-3.1538,-3.1912,-3.4068,-3.3876,-3.3815,-3.3606,-3.3332,-3.3214,-3.2983,-3.2598,-3.2127,-3.1861,-3.1752,-3.147,-3.1291,-3.1416,-3.2002,-3.2933,-3.4083,-3.4252,-3.4861,-3.525,-3.5554,-3.5639,-3.5424,-3.4925,-3.4429,-3.3714,-3.2606,-3.1862,-3.206,-3.1234,-3.0295,-2.9465,-2.8655,-2.814,-2.766,-2.756,-2.756,-2.756,-2.756,-2.756,-2.756,-2.756,-2.7509,-2.7408,-2.7357,-2.7342,-2.724,-2.6878,-2.6893,-2.7049,-2.693,-2.6721,-2.7034,-2.7137,-2.7188,-2.7188,-2.7393,-2.756,-2.7458,-2.7203,-2.71,-2.7203,-2.6269,-2.6428,-2.6361,-2.5877,-2.5119,-2.5007,-2.4838,-2.4781,-2.461,-2.4824,-2.4824,-2.4951,-2.5398,-2.6122,-2.6229,-2.6457,-2.6774,-2.7049,-2.7306,-2.7306,-2.7188,-2.756,-2.756,-2.756,-2.756,-2.756,-2.756,-2.756,-2.766,-2.8027,-2.8448,-2.921,-2.9892,-3.0335,-3.0781,-3.1072,-3.119,-3.119,-3.119,-3.119,-3.119,-3.119,-3.119,-3.119,-3.119,-3.119,-3.119,-3.119,-3.119,-3.1291,-3.1504,-3.1858,-3.2266,-3.4176,-3.4123,-3.3902,-3.3762,-3.3662,-3.3361,-3.3166,-3.3063,-3.2565,-3.2179,-3.1789,-3.1733,-3.1487,-3.1421,-3.1901,-3.2398,-3.2916,-3.3744,-3.437,-3.4675,-3.5216,-3.5453,-3.5448,-3.4894,-3.3939,-3.3097,-3.2057,-3.1685,-3.1301,-2.9909,-2.9046,-2.8641,-2.8142,-2.7675,-2.761,-2.756,-2.756,-2.756,-2.756,-2.756,-2.7509,-2.7458,-2.7152,-2.6774,-2.6669,-2.6654,-2.6654,-2.6443,-2.6496,-2.651,-2.651,-2.6176,-2.5783,-2.5659,-2.5659,-2.604,-2.6692,-2.756,-2.7408,-2.7086,-2.6826,-2.6654,-2.6176,-2.6068,-2.5605,-2.505,-2.4279,-2.3412,-2.3471,-2.359,-2.3636,-2.3531,-2.3412,-2.3813,-2.4381,-2.5007,-2.5412,-2.5742,-2.6122,-2.6443,-2.6587,-2.6602,-2.6549,-2.7137,-2.756,-2.756,-2.756,-2.756,-2.756,-2.756,-2.766,-2.7944,-2.84,-2.9118,-2.9805,-3.0335,-3.0838,-3.1112,-3.119,-3.119,-3.119,-3.119,-3.119,-3.119,-3.119,-3.119,-3.119,-3.119,-3.119,-3.1252,-3.1351,-3.1507,-3.1696,-3.2127,-3.2619,-3.4284,-3.3979,-3.3842,-3.3807,-3.378,-3.3606,-3.339,-3.3136,-3.2731,-3.2248,-3.1842,-3.1528,-3.1351,-3.1314,-3.1562,-3.1901,-3.2381,-3.3042,-3.3508,-3.3998,-3.4556,-3.4759,-3.4479,-3.4427,-3.3852,-3.2495,-3.1518,-3.0678,-3.0138,-2.9325,-2.8457,-2.8008,-2.7754,-2.7625,-2.7575,-2.756,-2.756,-2.7458,-2.7255,-2.6982,-2.6878,-2.6602,-2.6229,-2.5906,-2.6229,-2.6176,-2.5946,-2.5892,-2.5892,-2.5783,-2.5577,-2.5398,-2.5398,-2.5398,-2.5398,-2.5453,-2.5946,-2.6322,-2.6254,-2.5986,-2.5892,-2.5659,-2.5161,-2.4323,-2.415,-2.4221,-2.3943,-2.3198,-2.3138,-2.3125,-2.3125,-2.3125,-2.3125,-2.3305,-2.3767,-2.4221,-2.4738,-2.4908,-2.5231,-2.555,-2.5877,-2.5946,-2.6162,-2.6849,-2.7327,-2.7458,-2.7509,-2.756,-2.756,-2.756,-2.766,-2.781,-2.8271,-2.881,-2.948,-3.0064,-3.0699,-3.1015,-3.119,-3.119,-3.119,-3.119,-3.119,-3.119,-3.119,-3.119,-3.119,-3.123,-3.1213,-3.1372,-3.1545,-3.1806,-3.2074,-3.2565,-3.3014,-3.4486,-3.403,-3.3868,-3.3807,-3.3807,-3.3807,-3.3652,-3.3332,-3.3014,-3.2598,-3.2092,-3.164,-3.1312,-3.1207,-3.1241,-3.1512,-3.1985,-3.2188,-3.2594,-3.322,-3.3728,-3.3897,-3.3743,-3.3809,-3.3212,-3.1991,-3.0815,-2.9892,-2.9166,-2.8576,-2.8023,-2.7625,-2.7604,-2.756,-2.7575,-2.7357,-2.7137,-2.6811,-2.6443,-2.6229,-2.6122,-2.5728,-2.5398,-2.5356,-2.5577,-2.5687,-2.5245,-2.5119,-2.5119,-2.5007,-2.4738,-2.461,-2.461,-2.461,-2.461,-2.4597,-2.4824,-2.4824,-2.4881,-2.4838,-2.4781,-2.4553,-2.4092,-2.3412,-2.3292,-2.3708,-2.3884,-2.3138,-2.3138,-2.3125,-2.3125,-2.3125,-2.3125,-2.3245,-2.359,-2.3943,-2.4221,-2.4452,-2.4794,-2.5342,-2.5563,-2.5384,-2.5755,-2.6544,-2.7041,-2.724,-2.7408,-2.756,-2.756,-2.756,-2.776,-2.791,-2.8222,-2.881,-2.9569,-3.0166,-3.0658,-3.0975,-3.1095,-3.119,-3.119,-3.119,-3.119,-3.119,-3.119,-3.119,-3.119,-3.1252,-3.1312,-3.1507,-3.177,-3.2144,-3.2517,-3.3014,-3.3332,-3.4908,-3.4591,-3.4037,-3.3834,-3.3834,-3.3807,-3.3762,-3.3652,-3.3634,-3.3361,-3.2809,-3.2161,-3.1507,-3.1291,-3.123,-3.1241,-3.1343,-3.2009,-3.2263,-3.256,-3.3051,-3.3229,-3.3068,-3.2607,-3.2019,-3.073,-2.9911,-2.9005,-2.8102,-2.8001,-2.7679,-2.756,-2.756,-2.756,-2.7458,-2.7152,-2.6602,-2.6162,-2.5728,-2.5563,-2.5453,-2.5231,-2.4951,-2.4523,-2.4452,-2.4394,-2.4337,-2.4452,-2.4394,-2.4394,-2.4163,-2.3884,-2.3767,-2.3649,-2.3649,-2.3636,-2.3636,-2.3636,-2.3695,-2.4337,-2.4781,-2.4337,-2.3649,-2.3125,-2.3125,-2.3125,-2.3125,-2.3125,-2.3125,-2.3125,-2.3125,-2.3125,-2.3125,-2.3185,-2.3365,-2.359,-2.3884,-2.406,-2.4452,-2.5077,-2.5175,-2.4894,-2.5162,-2.5901,-2.6805,-2.7108,-2.7458,-2.756,-2.756,-2.761,-2.791,-2.8091,-2.8271,-2.8857,-2.9892,-3.0335,-3.0435,-3.0838,-3.1151,-3.119,-3.119,-3.119,-3.119,-3.119,-3.119,-3.119,-3.1213,-3.1351,-3.1507,-3.1696,-3.1951,-3.2366,-3.284,-3.3332,-3.3578,-3.5057,-3.4889,-3.4508,-3.4237,-3.4018,-3.3895,-3.3662,-3.3465,-3.3437,-3.3166,-3.2763,-3.2092,-3.1716,-3.1545,-3.1291,-3.119,-3.1224,-3.1427,-3.1613,-3.1867,-3.2273,-3.2193,-3.185,-3.155,-3.0981,-2.9626,-2.8979,-2.856,-2.7735,-2.7625,-2.756,-2.756,-2.756,-2.756,-2.7408,-2.7086,-2.6602,-2.6,-2.5508,-2.5231,-2.4667,-2.4163,-2.3872,-2.3662,-2.4176,-2.3943,-2.3721,-2.4118,-2.3943,-2.3708,-2.3603,-2.3365,-2.3198,-2.3125,-2.3125,-2.3125,-2.3125,-2.3125,-2.3125,-2.3708,-2.3813,-2.3695,-2.3245,-2.3125,-2.3125,-2.3125,-2.3125,-2.3125,-2.3125,-2.3125,-2.3125,-2.3125,-2.3125,-2.3125,-2.3185,-2.3365,-2.3484,-2.3721,-2.3767,-2.4266,-2.4292,-2.4073,-2.4543,-2.5122,-2.6101,-2.6975,-2.7327,-2.756,-2.756,-2.756,-2.781,-2.7944,-2.8042,-2.8638,-2.9629,-2.9951,-3.014,-3.0658,-3.119,-3.1213,-3.1252,-3.119,-3.119,-3.119,-3.1291,-3.1411,-3.1507,-3.1565,-3.1696,-3.1951,-3.2264,-3.2631,-3.3136,-3.3652,-3.3753,-3.5276,-3.5228,-3.4925,-3.4593,-3.4195,-3.3993,-3.3716,-3.3419,-3.339,-3.3045,-3.2484,-3.2264,-3.1933,-3.1677,-3.1507,-3.1291,-3.123,-3.1241,-3.1207,-3.141,-3.159,-3.1338,-3.0991,-3.0672,-3.0352,-2.8967,-2.8463,-2.8189,-2.764,-2.7625,-2.756,-2.7509,-2.7357,-2.7255,-2.7137,-2.6759,-2.6254,-2.5494,-2.4993,-2.4553,-2.3884,-2.3484,-2.3198,-2.3185,-2.3649,-2.3649,-2.3424,-2.359,-2.359,-2.3365,-2.3185,-2.3125,-2.3125,-2.3125,-2.3125,-2.3125,-2.3125,-2.3125,-2.3125,-2.3125,-2.3125,-2.3185,-2.3185,-2.3125,-2.3125,-2.3125,-2.3125,-2.3125,-2.3125,-2.3125,-2.3125,-2.3125,-2.3125,-2.3125,-2.3125,-2.3245,-2.3185,-2.3305,-2.3305,-2.3412,-2.3437,-2.3675,-2.4368,-2.5052,-2.6087,-2.6909,-2.7378,-2.756,-2.756,-2.756,-2.761,-2.771,-2.771,-2.84,-2.918,-2.954,-2.9995,-3.0797,-3.1213,-3.1351,-3.1334,-3.1291,-3.1504,-3.175,-3.1842,-3.177,-3.1842,-3.2004,-3.2127,-3.2247,-3.2663,-3.3075,-3.3332,-3.378,-3.378,-3.5503,-3.5549,-3.517,-3.4718,-3.4269,-3.4218,-3.4,-3.377,-3.3734,-3.3284,-3.2648,-3.284,-3.235,-3.1582,-3.1528,-3.1449,-3.123,-3.119,-3.119,-3.1258,-3.1326,-3.1219,-3.0945,-3.0576,-3.0114,-2.9409,-2.8779,-2.8189,-2.7675,-2.7625,-2.761,-2.7408,-2.7049,-2.6616,-2.639,-2.5175,-2.4118,-2.3424,-2.3424,-2.3424,-2.3305,-2.3198,-2.3138,-2.3125,-2.3245,-2.3245,-2.3245,-2.3245,-2.3245,-2.3125,-2.3125,-2.3125,-2.3125,-2.3125,-2.3125,-2.3125,-2.3125,-2.3125,-2.3125,-2.3125,-2.3125,-2.3125,-2.3125,-2.3125,-2.3125,-2.3125,-2.3125,-2.3125,-2.3125,-2.3125,-2.3125,-2.3125,-2.3125,-2.3125,-2.3125,-2.3125,-2.3125,-2.3125,-2.3125,-2.3125,-2.3198,-2.3424,-2.4195,-2.5065,-2.6115,-2.6909,-2.7378,-2.756,-2.756,-2.756,-2.756,-2.766,-2.771,-2.84,-2.9134,-2.9361,-2.9848,-3.0699,-3.1213,-3.1312,-3.1432,-3.1449,-3.175,-3.2213,-3.2213,-3.1968,-3.2213,-3.2517,-3.2695,-3.2916,-3.3207,-3.355,-3.3753,-3.3807,-3.3807,-3.4289,-3.4719,-3.4627,-3.4653,-3.4718,-3.436,-3.4147,-3.4043,-3.385,-3.3476,-3.3014,-3.2872,-3.2384,-3.177,-3.1449,-3.1389,-3.1213,-3.119,-3.119,-3.119,-3.119,-3.0895,-3.0658,-3.0393,-2.9935,-2.9361,-2.8779,-2.8415,-2.8238,-2.781,-2.761,-2.7408,-2.6826,-2.6244,-2.6014,-2.5398,-2.5217,-2.4163,-2.3884,-2.3721,-2.3185,-2.3125,-2.3125,-2.3125,-2.3125,-2.3125,-2.3125,-2.3125,-2.3125,-2.3125,-2.3125,-2.3125,-2.3125,-2.3125,-2.3125,-2.3125,-2.3125,-2.3125,-2.3125,-2.3125,-2.3125,-2.3125,-2.3125,-2.3125,-2.3125,-2.3125,-2.3125,-2.3125,-2.3125,-2.3125,-2.3125,-2.3125,-2.3125,-2.3125,-2.3125,-2.3125,-2.3125,-2.3125,-2.3125,-2.3125,-2.3125,-2.3229,-2.3738,-2.4885,-2.5983,-2.639,-2.6799,-2.7378,-2.7509,-2.756,-2.761,-2.776,-2.7993,-2.8591,-2.9134,-2.954,-3.0081,-3.0878,-3.119,-3.1213,-3.1351,-3.1545,-3.1733,-3.2039,-3.2109,-3.2196,-3.2648,-3.3045,-3.3332,-3.3606,-3.3652,-3.3707,-3.378,-3.3807,-3.3807,-3.3459,-3.39,-3.3843,-3.4017,-3.4366,-3.4452,-3.4405,-3.42,-3.3993,-3.3652,-3.3243,-3.3014,-3.25,-3.1968,-3.1714,-3.1368,-3.1252,-3.119,-3.119,-3.119,-3.119,-3.0838,-3.0518,-3.0251,-2.9761,-2.9225,-2.8779,-2.8415,-2.8091,-2.776,-2.7291,-2.6759,-2.6602,-2.5659,-2.5217,-2.4937,-2.4937,-2.4002,-2.3662,-2.3543,-2.3198,-2.3125,-2.3125,-2.3125,-2.3125,-2.3125,-2.3125,-2.3125,-2.3125,-2.3125,-2.3125,-2.3125,-2.3125,-2.3125,-2.3125,-2.3125,-2.3125,-2.3125,-2.3125,-2.3125,-2.3125,-2.3125,-2.3125,-2.3125,-2.3125,-2.3125,-2.3125,-2.3125,-2.3125,-2.3125,-2.3125,-2.3125,-2.3125,-2.3125,-2.3125,-2.3125,-2.3125,-2.3125,-2.3125,-2.3125,-2.3207,-2.3244,-2.3506,-2.4625,-2.5821,-2.6005,-2.6199,-2.6799,-2.7458,-2.7509,-2.766,-2.791,-2.8222,-2.8826,-2.9406,-2.9935,-3.0477,-3.1095,-3.119,-3.119,-3.1449,-3.166,-3.177,-3.1968,-3.2366,-3.2777,-3.3225,-3.3597,-3.3652,-3.368,-3.3652,-3.3726,-3.3807,-3.3807,-3.3807,-3.306,-3.3123,-3.2952,-3.2955,-3.3246,-3.4408,-3.468,-3.4223,-3.4176,-3.3802,-3.3214,-3.3522,-3.2978,-3.2127,-3.2282,-3.1986,-3.1372,-3.1291,-3.1213,-3.119,-3.119,-3.0781,-3.0559,-3.0309,-2.9821,-2.9042,-2.8511,-2.8334,-2.771,-2.7625,-2.6916,-2.6122,-2.6336,-2.5329,-2.454,-2.4163,-2.4105,-2.3603,-2.3305,-2.3258,-2.3125,-2.3125,-2.3125,-2.3125,-2.3125,-2.3125,-2.3125,-2.3125,-2.3125,-2.3125,-2.3125,-2.3125,-2.3125,-2.3125,-2.3125,-2.3125,-2.3125,-2.3125,-2.3125,-2.3125,-2.3125,-2.3125,-2.3125,-2.3125,-2.3065,-2.3005,-2.2884,-2.3005,-2.3125,-2.3125,-2.3125,-2.3125,-2.3125,-2.3125,-2.3125,-2.3125,-2.3125,-2.3125,-2.3125,-2.3125,-2.3245,-2.3428,-2.3833,-2.4748,-2.5672,-2.5983,-2.6313,-2.6828,-2.7357,-2.756,-2.776,-2.8091,-2.8496,-2.9042,-2.9629,-3.0166,-3.0658,-3.119,-3.123,-3.1252,-3.1507,-3.1806,-3.2056,-3.2401,-3.289,-3.3302,-3.355,-3.3707,-3.378,-3.3753,-3.3726,-3.3726,-3.3807,-3.3807,-3.3807,-3.1622,-3.2181,-3.2183,-3.2478,-3.3037,-3.4038,-3.4336,-3.4209,-3.4195,-3.3828,-3.3214,-3.3302,-3.2978,-3.2332,-3.2451,-3.2127,-3.1806,-3.1565,-3.1411,-3.1312,-3.119,-3.1072,-3.0797,-3.0393,-3.0038,-2.9496,-2.8919,-2.8271,-2.8076,-2.7795,-2.7086,-2.6443,-2.6176,-2.5161,-2.4496,-2.4176,-2.3708,-2.3305,-2.3125,-2.3125,-2.3125,-2.3125,-2.3125,-2.3125,-2.3125,-2.3125,-2.3125,-2.3125,-2.3125,-2.3125,-2.3125,-2.3125,-2.3125,-2.3125,-2.3125,-2.3125,-2.3125,-2.3125,-2.3125,-2.3125,-2.3125,-2.3065,-2.3065,-2.3065,-2.2944,-2.2763,-2.2641,-2.2763,-2.275,-2.2689,-2.2689,-2.275,-2.2811,-2.2884,-2.2944,-2.3125,-2.3125,-2.3125,-2.3125,-2.3198,-2.3305,-2.3564,-2.3962,-2.4775,-2.5591,-2.5986,-2.6428,-2.693,-2.7306,-2.7509,-2.781,-2.8189,-2.8732,-2.9271,-2.9761,-3.0293,-3.0757,-3.1151,-3.1218,-3.1355,-3.1657,-3.1967,-3.2335,-3.2716,-3.3154,-3.3447,-3.3716,-3.3788,-3.3807,-3.3807,-3.378,-3.3807,-3.3807,-3.3807,-3.3807,-3.0681,-3.1247,-3.1301,-3.1909,-3.2901,-3.3488,-3.398,-3.4466,-3.4534,-3.4186,-3.3643,-3.3616,-3.3219,-3.255,-3.2451,-3.2162,-3.1545,-3.1487,-3.1389,-3.1252,-3.119,-3.074,-3.0477,-3.0166,-2.9524,-2.918,-2.8607,-2.7784,-2.767,-2.7012,-2.6269,-2.5563,-2.5632,-2.4951,-2.4118,-2.3662,-2.3543,-2.3245,-2.3125,-2.3125,-2.3125,-2.3125,-2.3125,-2.3125,-2.3125,-2.3125,-2.3125,-2.3125,-2.3125,-2.3125,-2.3125,-2.3125,-2.3125,-2.3125,-2.3125,-2.3125,-2.3125,-2.3125,-2.3125,-2.3125,-2.3125,-2.3005,-2.2811,-2.2823,-2.2763,-2.2506,-2.2445,-2.2384,-2.2187,-2.2051,-2.2237,-2.2372,-2.2494,-2.2628,-2.2823,-2.3065,-2.3125,-2.3125,-2.3138,-2.3198,-2.3327,-2.3618,-2.4129,-2.491,-2.5659,-2.6201,-2.6692,-2.7188,-2.7408,-2.7509,-2.786,-2.8238,-2.8873,-2.9496,-2.9978,-3.0435,-3.0878,-3.1162,-3.1206,-3.1394,-3.1754,-3.2232,-3.2692,-3.3042,-3.3302,-3.355,-3.3743,-3.3807,-3.3807,-3.3807,-3.3807,-3.3807,-3.3807,-3.3807,-3.3807,-3.0171,-3.0452,-3.0406,-3.1422,-3.2817,-3.3052,-3.3833,-3.5057,-3.5102,-3.4774,-3.4246,-3.4195,-3.3606,-3.2916,-3.2713,-3.2231,-3.175,-3.1507,-3.1389,-3.119,-3.119,-3.0781,-3.0208,-2.9496,-2.9438,-2.8383,-2.7695,-2.7685,-2.6591,-2.6265,-2.5932,-2.4465,-2.4624,-2.4279,-2.3471,-2.3305,-2.3245,-2.3185,-2.3125,-2.3125,-2.3125,-2.3125,-2.3125,-2.3125,-2.3125,-2.3125,-2.3125,-2.3125,-2.3125,-2.3125,-2.3005,-2.2944,-2.2689,-2.2616,-2.2677,-2.2689,-2.2494,-2.2494,-2.2494,-2.2494,-2.2567,-2.2433,-2.2249,-2.2199,-2.2002,-2.1865,-2.1741,-2.2125,-2.2051,-2.1928,-2.2051,-2.2125,-2.2249,-2.2567,-2.2884,-2.3065,-2.3125,-2.3125,-2.3125,-2.3138,-2.3173,-2.3467,-2.3702,-2.4381,-2.4768,-2.5863,-2.6587,-2.6967,-2.7458,-2.7458,-2.7894,-2.8334,-2.8904,-2.9585,-3.0123,-3.0617,-3.0975,-3.1189,-3.1179,-3.1528,-3.1951,-3.2523,-3.3077,-3.334,-3.3522,-3.3578,-3.3689,-3.3762,-3.3807,-3.3807,-3.3807,-3.3807,-3.3807,-3.3834,-3.3807,-2.995,-2.9908,-3.0148,-3.1362,-3.301,-3.3041,-3.3963,-3.543,-3.5435,-3.4943,-3.4334,-3.4176,-3.3931,-3.339,-3.3075,-3.2616,-3.2179,-3.1677,-3.1487,-3.1329,-3.123,-3.0878,-3.0559,-2.9995,-2.9637,-2.9309,-2.87,-2.77,-2.7027,-2.6745,-2.6322,-2.5231,-2.4894,-2.4208,-2.3185,-2.3125,-2.3125,-2.3125,-2.3125,-2.3125,-2.3125,-2.3125,-2.3125,-2.3078,-2.3078,-2.3065,-2.3065,-2.3065,-2.3065,-2.3065,-2.2433,-2.1928,-2.1239,-2.1279,-2.1227,-2.1227,-2.1467,-2.1542,-2.1479,-2.1479,-2.1479,-2.1353,-2.1164,-2.1101,-2.1049,-2.0985,-2.1175,-2.1678,-2.1865,-2.1803,-2.1803,-2.1865,-2.2063,-2.2506,-2.2944,-2.3005,-2.3125,-2.3125,-2.3125,-2.3125,-2.3125,-2.3305,-2.3471,-2.3754,-2.4105,-2.4654,-2.5384,-2.604,-2.6916,-2.7306,-2.7894,-2.8367,-2.895,-2.9585,-3.0166,-3.0699,-3.1055,-3.1176,-3.1202,-3.1636,-3.2212,-3.2844,-3.3477,-3.3595,-3.3734,-3.3734,-3.3734,-3.378,-3.3807,-3.3842,-3.3813,-3.3821,-3.3831,-3.3831,-3.3815,-2.955,-2.9742,-3.0062,-3.1348,-3.2928,-3.3115,-3.4054,-3.5398,-3.5562,-3.5127,-3.4489,-3.4379,-3.4099,-3.3634,-3.3273,-3.2983,-3.2484,-3.2004,-3.1733,-3.1507,-3.1196,-3.074,-3.0477,-3.0182,-2.9633,-2.9218,-2.8042,-2.7136,-2.7174,-2.6201,-2.5398,-2.5007,-2.4667,-2.4034,-2.3125,-2.3125,-2.3125,-2.3125,-2.3125,-2.3125,-2.3125,-2.3125,-2.2823,-2.2763,-2.2823,-2.2871,-2.2628,-2.2567,-2.2567,-2.2506,-2.2125,-2.2187,-2.1928,-2.2051,-2.1678,-2.1428,-2.129,-2.0974,-2.0719,-2.0526,-2.0462,-2.0451,-2.0526,-2.0719,-2.0655,-2.059,-2.0462,-2.0899,-2.0515,-2.0386,-2.1227,-2.1491,-2.1815,-2.2261,-2.2763,-2.3065,-2.3125,-2.3125,-2.3125,-2.3125,-2.3185,-2.3412,-2.3649,-2.4002,-2.4452,-2.5453,-2.5892,-2.6094,-2.6759,-2.7291,-2.7894,-2.8463,-2.9088,-2.9406,-2.9717,-3.0435,-3.1134,-3.1181,-3.119,-3.1999,-3.2706,-3.3317,-3.3807,-3.378,-3.378,-3.3807,-3.3807,-3.3834,-3.3928,-3.3993,-3.3919,-3.3845,-3.385,-3.3924,-3.3899,-2.9163,-2.971,-3.0016,-3.1263,-3.2908,-3.3163,-3.4121,-3.5441,-3.5611,-3.5295,-3.4794,-3.4695,-3.4104,-3.357,-3.3184,-3.2921,-3.2583,-3.2196,-3.1951,-3.1696,-3.1449,-3.1004,-3.0335,-2.9722,-2.9388,-2.8599,-2.7423,-2.7056,-2.6878,-2.5946,-2.5175,-2.4394,-2.3767,-2.3198,-2.3138,-2.3125,-2.3125,-2.3125,-2.3125,-2.3125,-2.3125,-2.3065,-2.275,-2.2567,-2.2628,-2.2702,-2.2261,-2.2075,-2.2063,-2.1877,-2.1877,-2.1604,-2.1542,-2.1416,-2.1152,-2.0782,-2.059,-2.0333,-2.0204,-1.9944,-2.0009,-2.0139,-2.0268,-2.0204,-2.0074,-1.9933,-1.9868,-1.9814,-1.942,-1.9683,-2.0526,-2.1164,-2.1553,-2.2063,-2.2567,-2.3065,-2.3065,-2.3065,-2.3125,-2.3125,-2.3245,-2.3471,-2.3708,-2.406,-2.4851,-2.5906,-2.6616,-2.693,-2.724,-2.7645,-2.8091,-2.8638,-2.9271,-2.9451,-2.9629,-3.0335,-3.1213,-3.1179,-3.1322,-3.2317,-3.3128,-3.357,-3.3807,-3.3807,-3.3807,-3.3807,-3.3842,-3.3876,-3.3993,-3.4123,-3.4204,-3.4172,-3.419,-3.4223,-3.4073,-2.9142,-2.9712,-2.9817,-3.0989,-3.2638,-3.306,-3.4137,-3.5503,-3.5593,-3.5399,-3.5078,-3.4756,-3.4288,-3.3662,-3.3302,-3.3105,-3.3014,-3.2565,-3.2092,-3.1789,-3.166,-3.13,-3.0666,-2.9777,-2.938,-2.8527,-2.766,-2.7408,-2.6982,-2.6336,-2.5673,-2.5119,-2.435,-2.3721,-2.3125,-2.3125,-2.3125,-2.3125,-2.3125,-2.3125,-2.3078,-2.3065,-2.3065,-2.3005,-2.3005,-2.3017,-2.2884,-2.2884,-2.2884,-2.2494,-2.1616,-2.0835,-2.0515,-2.0268,-1.9814,-1.9748,-1.9562,-1.9233,-1.9044,-1.8911,-1.8977,-1.8911,-1.8911,-1.8854,-1.8721,-1.8721,-1.8844,-1.9233,-1.911,-1.9431,-2.0074,-2.059,-2.1037,-2.1815,-2.2384,-2.2763,-2.2957,-2.3005,-2.3125,-2.3125,-2.3125,-2.3245,-2.3305,-2.3767,-2.4394,-2.5398,-2.6244,-2.6602,-2.7086,-2.768,-2.8334,-2.8826,-2.9345,-2.9848,-3.0166,-3.0666,-3.1283,-3.1225,-3.1533,-3.2514,-3.3265,-3.3634,-3.3807,-3.3807,-3.3807,-3.3807,-3.3868,-3.3902,-3.4043,-3.4176,-3.4467,-3.4574,-3.4572,-3.4572,-3.4467]},{"header":{"parameterUnit":"m.s-1","parameterCategory":1,"la1":31.0,"la2":29.5877,"lo1":-88.7671,"lo2":-86.6584,"dy":0.0162,"dx":0.0185,"nx":115,"ny":88,"refTime":"2023-07-01T00:00:00:Z","depth":0,"parameterNumber":3,"parameterNumberName":"V-component_of_WINDS"},"data":[0.0,0.0,0.0,0.0,0.0,0.0,0.0,0.0,0.0,0.0,0.0,0.0,0.0,0.0,0.0,0.0,0.0,0.0,0.0,0.0,0.0,0.0,0.0,0.0,0.0,0.0,0.0,0.0,0.0,0.0,0.0,0.0,0.0,0.0,0.0,0.0,0.0,0.0,0.0,0.0,0.0,0.0,0.0,0.0,0.0,0.0,0.0,0.0,0.0,0.0,0.0,0.0,0.0,0.0,0.0,0.0,0.0,0.0,0.0,0.0,0.0,0.0,0.0,0.0,0.0,0.0,0.0,0.0,0.0,0.0,0.0,0.0,0.0,0.0,0.0,0.0,0.0,0.0,0.0,0.0,0.0,0.0,0.0,0.0,0.0,0.0,0.0,0.0,0.0,0.0,0.0,0.0,0.0,0.0,0.0,0.0,0.0,0.0,0.0,0.0,0.0,0.0,0.0,0.0,0.0,0.0,0.0,0.0,0.0,0.0,0.0,0.0,0.0,0.0,0.0,0.0,0.0,0.0,0.0,0.0,0.0,0.0,0.0,0.0,0.0,0.0,0.0,0.0,0.0,0.0,0.0,0.0,0.0,0.0,0.0,0.0,0.0,0.0,0.0,0.0,0.0,0.0,0.0,0.0,0.0,0.0,0.0,0.0,0.0,0.0,0.0,0.0,0.0,0.0,0.0,0.0,0.0,0.0,0.0,0.0,0.0,0.0,0.0,0.0,0.0,0.0,0.0,0.0,0.0,0.0,0.0,0.0,0.0,0.0,0.0,0.0,0.0,0.0,0.0,0.0,0.0,0.0,0.0,0.0,0.0,0.0,0.0,0.0,0.0,0.0,0.0,0.0,0.0,0.0,0.0,0.0,0.0,0.0,0.0,0.0,0.0,0.0,0.0,0.0,0.0,0.0,0.0,0.0,0.0,0.0,0.0,0.0,0.0,0.0,0.0,0.0,0.0,0.0,0.0,0.0,0.0,0.0,0.0,0.0,0.0,0.0,0.0,0.0,0.0,0.0,0.0,0.0,0.0,0.0,0.0,0.0,0.0,0.0,0.0,0.0,0.0,0.0,0.0,0.0,0.0,0.0,0.0,0.0,0.0,0.0,0.0,0.0,0.0,0.0,0.0,0.0,0.0,0.0,0.0,0.0,0.0,0.0,0.0,0.0,0.0,0.0,0.0,0.0,0.0,0.0,0.0,0.0,0.0,0.0,0.0,0.0,0.0,0.0,0.0,0.0,0.0,0.0,0.0,0.0,0.0,0.0,0.0,0.0,0.0,0.0,0.0,0.0,0.0,0.0,0.0,0.0,0.0,0.0,0.0,0.0,0.0,0.0,0.0,0.0,0.0,0.0,0.0,0.0,0.0,0.0,0.0,0.0,0.0,0.0,0.0,0.0,0.0,0.0,0.0,0.0,0.0,0.0,0.0,0.0,0.0,0.0,0.0,0.0,0.0,0.0,0.0,0.0,0.0,0.0,0.0,0.0,0.0,0.0,0.0,0.0,0.0,0.0,0.0,0.0,0.0,0.0,0.0,0.0,0.0,0.0,0.0,0.0,0.0,0.0,0.0,0.0,0.0,0.0,0.0,0.0,0.0,0.0,0.0,0.0,0.0,0.0,0.0,0.0,0.0,0.0,0.0,0.0,0.0,0.0,0.0,0.0,0.0,0.0,0.0,0.0,0.0,0.0,0.0,0.0,0.0,0.0,0.0,0.0,0.0,0.0,0.0,0.0,0.0,0.0,0.0,0.0,0.0,0.0,0.0,0.0,0.0,0.0,0.0,0.0,0.0,0.0,0.0,0.0,0.0,0.0,0.0,0.0,0.0,0.0,0.0,0.0,0.0,0.0,0.0,0.0,0.0,0.0,0.0,0.0,0.0,0.0,0.0,0.0,0.0,0.0,0.0,0.0,0.0,0.0,0.0,0.0,0.0,0.0,0.0,0.0,0.0,0.0,0.0,0.0,0.0,0.0,0.0,0.0,0.0,0.0,0.0,0.0,0.0,0.0,0.0,0.0,0.0,0.0,0.0,0.0,0.0,0.0,0.0,0.0,0.0,0.0,0.0,0.0,0.0,0.0,0.0,0.0,0.0,0.0,0.0,0.0,0.0,0.0,0.0,0.0,0.0,0.0,0.0,0.0,0.0,0.0,0.0,0.0,0.0,0.0,0.0,0.0,0.0,0.0,0.0,0.0,0.0,0.0,0.0,0.0,0.0,0.0,0.0,0.0,0.0,0.0,0.0,0.0,0.0,0.0,0.0,0.0,0.0,0.0,0.0,0.0,0.0,0.0,0.0,0.0,0.0,0.0,0.0,0.0,0.0,0.0,0.0,0.0,0.0,0.0,0.0,0.0,0.0,0.0,0.0,0.0,0.0,0.0,0.0,0.0,0.0,0.0,0.0,0.0,0.0,0.0,0.0,0.0,0.0,0.0,0.0,0.0,0.0,0.0,0.0,0.0,0.0,0.0,0.0,0.0,0.0,0.0,0.0,0.0,0.0,0.0,0.0,0.0,0.0,0.0,0.0,0.0,0.0,0.0,0.0,0.0,0.0,0.0,0.0,0.0,0.0,0.0,0.0,0.0,0.0,0.0,0.0,0.0,0.0,0.0,0.0,0.0,0.0,0.0,0.0,0.0,0.0,0.0,0.0,0.0,0.0,0.0,0.0,0.0,0.0,0.0,0.0,0.0,0.0,0.0,0.0,0.0,0.0,0.0,0.0,0.0,0.0,0.0,0.0,0.0,0.0,0.0,0.0,0.0,0.0,0.0,0.0,0.0,0.0,0.0,0.0,0.0,0.0,0.0,0.0,0.0,0.0,0.0,0.0,0.0,0.0,0.0,0.0,0.0,0.0,0.0,0.0,0.0,0.0,0.0,0.0,0.0,0.0,0.0,0.0,0.0,0.0,0.0,0.0,0.0,0.0,0.0,0.0,0.0,0.0,0.0,0.0,0.0,0.0,0.0,0.0,0.0,0.0,0.0,0.0,0.0,0.0,0.0,0.0,0.0,0.0,0.0,0.0,0.0,0.0,0.0,0.0,0.0,0.0,0.0,0.0,0.0,0.0,0.0,0.0,0.0,0.0,0.0,0.0,0.0,0.0,0.0,0.0,0.0,0.0,0.0,0.0,0.0,0.0,0.0,0.0,0.0,0.0,0.0,0.0,0.0,0.0,0.0,0.0,0.0,0.0,0.0,0.0,0.0,0.0,0.0,0.0,0.0,0.0,0.0,0.0,0.0,0.0,0.0,0.0,0.0,0.0,0.0,0.0,0.0,0.0,0.0,0.0,0.0,0.0,0.0,0.0,0.0,0.0,0.0,0.0,0.0,0.0,0.0,0.0,0.0,0.0,0.0,0.0,0.0,0.0,0.0,0.0,0.0,0.0,0.0,0.0,0.0,0.0,0.0,0.0,0.0,0.0,0.0,0.0,0.0,0.0,0.0,0.0,0.0,0.0,0.0,0.0,0.0,0.0,0.0,0.0,0.0,0.0,0.0,0.0,0.0,0.0,0.0,0.0,0.0,0.0,0.0,0.0,0.0,0.0,0.0,0.0,0.0,0.0,0.0,0.0,0.0,0.0,0.0,0.0,0.0,0.0,0.0,0.0,0.0,0.0,0.0,0.0,0.0,0.0,0.0,0.0,0.0,0.0,0.0,0.0,0.0,0.0,0.0,0.0,0.0,0.0,0.0,0.0,0.0,0.0,0.0,0.0,0.0,0.0,0.0,0.0,0.0,0.0,0.0,0.0,0.0,0.0,0.0,0.0,0.0,0.0,0.0,0.0,0.0,0.0,0.0,0.0,0.0,0.0,0.0,0.0,0.0,0.0,0.0,0.0,0.0,0.0,0.0,0.0,0.0,0.0,0.0,0.0,0.0,0.0,0.0,0.0,0.0,0.0,0.0,0.0,0.0,0.0,0.0,0.0,0.0,0.0,0.0,0.0,0.0,0.0,0.0,0.0,0.0,0.0,0.0,0.0,0.0,0.0,0.0,0.0,0.0,0.0,0.0,0.0,0.0,0.0,0.0,0.0,0.0,0.0,0.0,0.0,0.0,0.0,0.0,0.0,0.0,0.0,0.0,0.0,0.0,0.0,0.0,0.0,0.0,0.0,0.0,0.0,0.0,0.0,0.0,0.0,0.0,0.0,0.0,0.0,0.0,0.0,0.0,0.0,0.0,0.0,0.0,0.0,0.0,0.0,0.0,0.0,0.0,0.0,0.0,0.0,0.0,0.0,0.0,0.0,0.0,0.0,0.0,0.0,0.0,0.0,0.0,-1.9435,0.0,0.0,0.0,0.0,0.0,0.0,0.0,0.0,0.0,0.0,0.0,0.0,0.0,0.0,0.0,0.0,0.0,0.0,0.0,0.0,0.0,0.0,0.0,0.0,0.0,0.0,0.0,0.0,0.0,0.0,0.0,0.0,0.0,0.0,0.0,0.0,0.0,0.0,0.0,0.0,0.0,0.0,0.0,0.0,0.0,0.0,0.0,0.0,0.0,0.0,0.0,0.0,0.0,0.0,0.0,0.0,0.0,0.0,0.0,0.0,0.0,0.0,0.0,0.0,0.0,0.0,0.0,0.0,0.0,0.0,0.0,0.0,0.0,0.0,0.0,0.0,0.0,0.0,0.0,0.0,0.0,0.0,0.0,0.0,0.0,0.0,0.0,0.0,0.0,0.0,0.0,0.0,0.0,0.0,0.0,0.0,0.0,0.0,0.0,0.0,0.0,0.0,0.0,0.0,0.0,0.0,0.0,0.0,0.0,0.0,-1.9244,-1.9109,-1.8921,-1.886,-1.8936,0.0,0.0,0.0,0.0,0.0,0.0,0.0,0.0,0.0,0.0,0.0,0.0,0.0,0.0,0.0,0.0,0.0,0.0,0.0,0.0,0.0,0.0,0.0,0.0,0.0,0.0,0.0,0.0,0.0,0.0,0.0,0.0,0.0,0.0,0.0,0.0,0.0,0.0,0.0,0.0,0.0,0.0,0.0,0.0,0.0,0.0,0.0,0.0,0.0,0.0,0.0,0.0,0.0,0.0,0.0,0.0,0.0,0.0,0.0,0.0,0.0,0.0,0.0,0.0,0.0,0.0,0.0,0.0,0.0,0.0,0.0,0.0,0.0,0.0,0.0,0.0,0.0,0.0,0.0,0.0,0.0,0.0,0.0,0.0,0.0,0.0,0.0,0.0,0.0,0.0,0.0,0.0,0.0,0.0,0.0,0.0,0.0,0.0,0.0,0.0,0.0,0.0,0.0,0.0,0.0,0.0,0.0,0.0,0.0,0.0,0.0,0.0,-1.8159,-1.8173,-1.833,0.0,0.0,0.0,0.0,0.0,0.0,0.0,0.0,0.0,0.0,0.0,0.0,0.0,0.0,0.0,0.0,0.0,0.0,0.0,0.0,0.0,0.0,0.0,0.0,0.0,0.0,0.0,0.0,0.0,0.0,0.0,0.0,0.0,0.0,0.0,0.0,0.0,0.0,0.0,0.0,0.0,0.0,0.0,0.0,0.0,0.0,0.0,0.0,0.0,0.0,0.0,0.0,0.0,0.0,0.0,0.0,0.0,0.0,0.0,0.0,0.0,0.0,0.0,0.0,0.0,0.0,0.0,0.0,0.0,0.0,0.0,0.0,0.0,0.0,0.0,0.0,0.0,0.0,0.0,0.0,0.0,0.0,0.0,0.0,0.0,0.0,0.0,0.0,0.0,0.0,0.0,0.0,0.0,0.0,0.0,0.0,0.0,0.0,0.0,0.0,0.0,0.0,0.0,0.0,0.0,0.0,0.0,0.0,0.0,0.0,-1.7462,-1.7146,-1.6896,0.0,-1.7585,0.0,0.0,0.0,0.0,0.0,0.0,0.0,0.0,0.0,0.0,0.0,0.0,0.0,0.0,0.0,0.0,0.0,0.0,0.0,0.0,0.0,0.0,0.0,0.0,0.0,0.0,0.0,0.0,0.0,0.0,0.0,0.0,0.0,0.0,0.0,0.0,0.0,0.0,0.0,0.0,0.0,0.0,0.0,0.0,0.0,0.0,0.0,0.0,0.0,0.0,0.0,0.0,0.0,0.0,0.0,0.0,0.0,0.0,0.0,0.0,0.0,0.0,0.0,0.0,0.0,0.0,0.0,0.0,0.0,0.0,0.0,0.0,0.0,0.0,0.0,0.0,0.0,0.0,0.0,0.0,0.0,0.0,0.0,0.0,0.0,0.0,0.0,0.0,0.0,0.0,0.0,0.0,0.0,0.0,0.0,0.0,0.0,0.0,0.0,0.0,0.0,0.0,0.0,0.0,0.0,0.0,0.0,0.0,0.0,0.0,-1.6612,-1.6312,-1.6269,-1.6471,0.0,0.0,0.0,0.0,0.0,0.0,0.0,0.0,0.0,0.0,0.0,0.0,0.0,0.0,0.0,0.0,0.0,0.0,0.0,0.0,0.0,0.0,0.0,0.0,0.0,0.0,0.0,0.0,0.0,0.0,0.0,0.0,0.0,0.0,0.0,0.0,0.0,0.0,0.0,0.0,0.0,0.0,0.0,0.0,0.0,0.0,0.0,0.0,0.0,0.0,0.0,0.0,0.0,0.0,0.0,0.0,0.0,0.0,0.0,0.0,0.0,0.0,0.0,0.0,0.0,0.0,0.0,0.0,0.0,0.0,0.0,0.0,0.0,0.0,0.0,0.0,0.0,0.0,0.0,0.0,0.0,0.0,0.0,0.0,0.0,0.0,0.0,0.0,0.0,0.0,0.0,0.0,0.0,0.0,0.0,0.0,0.0,0.0,0.0,0.0,0.0,0.0,0.0,0.0,0.0,0.0,0.0,0.0,0.0,0.0,-1.6409,-1.5843,-1.5355,-1.5501,-1.5788,-1.6244,0.0,0.0,0.0,0.0,0.0,0.0,0.0,0.0,0.0,0.0,0.0,0.0,0.0,0.0,0.0,0.0,0.0,0.0,0.0,0.0,0.0,0.0,0.0,0.0,0.0,0.0,0.0,0.0,0.0,0.0,0.0,0.0,0.0,0.0,0.0,0.0,0.0,0.0,0.0,0.0,0.0,0.0,0.0,0.0,0.0,0.0,0.0,0.0,0.0,0.0,0.0,0.0,0.0,0.0,0.0,0.0,0.0,0.0,0.0,0.0,0.0,0.0,0.0,0.0,0.0,0.0,0.0,0.0,0.0,0.0,0.0,0.0,0.0,0.0,0.0,0.0,0.0,0.0,0.0,0.0,0.0,0.0,0.0,0.0,0.0,0.0,0.0,0.0,0.0,0.0,0.0,0.0,0.0,0.0,0.0,0.0,0.0,0.0,0.0,0.0,0.0,0.0,0.0,0.0,0.0,0.0,0.0,0.0,-1.6754,-1.601,-1.5132,-1.4136,-1.4326,-1.4777,0.0,0.0,0.0,0.0,0.0,0.0,0.0,0.0,0.0,0.0,0.0,0.0,0.0,0.0,0.0,0.0,0.0,0.0,0.0,0.0,0.0,0.0,0.0,0.0,0.0,0.0,0.0,0.0,0.0,0.0,0.0,0.0,0.0,0.0,0.0,0.0,0.0,0.0,0.0,0.0,0.0,0.0,0.0,0.0,0.0,0.0,0.0,0.0,0.0,0.0,0.0,0.0,0.0,0.0,0.0,0.0,0.0,0.0,0.0,0.0,0.0,0.0,0.0,0.0,0.0,0.0,0.0,0.0,0.0,0.0,0.0,0.0,0.0,0.0,0.0,0.0,0.0,0.0,0.0,0.0,0.0,0.0,0.0,0.0,0.0,0.0,0.0,0.0,0.0,0.0,0.0,0.0,0.0,0.0,0.0,0.0,0.0,0.0,0.0,0.0,0.0,0.0,0.0,0.0,0.0,0.0,0.0,0.0,0.0,-1.6302,-1.5017,-1.4101,-1.365,-1.3872,-1.4316,0.0,0.0,0.0,0.0,0.0,0.0,0.0,0.0,0.0,0.0,0.0,0.0,0.0,0.0,0.0,0.0,0.0,0.0,0.0,0.0,0.0,0.0,0.0,0.0,0.0,0.0,0.0,0.0,0.0,0.0,0.0,0.0,0.0,0.0,0.0,0.0,0.0,0.0,0.0,0.0,0.0,0.0,0.0,0.0,0.0,0.0,0.0,0.0,0.0,0.0,0.0,0.0,0.0,0.0,0.0,0.0,0.0,0.0,0.0,0.0,0.0,0.0,0.0,0.0,0.0,0.0,0.0,0.0,0.0,0.0,0.0,0.0,0.0,0.0,0.0,0.0,0.0,0.0,0.0,0.0,0.0,0.0,0.0,0.0,0.0,0.0,0.0,0.0,0.0,0.0,0.0,0.0,0.0,0.0,0.0,0.0,0.0,0.0,0.0,0.0,0.0,0.0,0.0,0.0,0.0,0.0,0.0,0.0,0.0,-1.5521,0.0,-1.338,-1.3309,-1.361,-1.4143,0.0,0.0,0.0,0.0,0.0,0.0,0.0,0.0,0.0,0.0,0.0,0.0,0.0,0.0,0.0,0.0,0.0,0.0,0.0,0.0,0.0,0.0,0.0,0.0,0.0,0.0,0.0,0.0,0.0,0.0,0.0,0.0,0.0,0.0,0.0,0.0,0.0,0.0,0.0,0.0,0.0,0.0,0.0,0.0,0.0,0.0,0.0,0.0,0.0,0.0,0.0,0.0,0.0,0.0,0.0,0.0,0.0,0.0,0.0,0.0,0.0,0.0,0.0,0.0,0.0,0.0,0.0,0.0,0.0,0.0,0.0,0.0,0.0,0.0,0.0,0.0,0.0,0.0,0.0,0.0,0.0,0.0,0.0,0.0,0.0,0.0,0.0,0.0,0.0,0.0,0.0,0.0,0.0,0.0,0.0,0.0,0.0,0.0,0.0,0.0,0.0,0.0,0.0,0.0,0.0,0.0,0.0,0.0,-1.6632,-1.4364,-1.3516,-1.3086,-1.3086,-1.3547,-1.4198,0.0,0.0,0.0,0.0,0.0,0.0,0.0,0.0,0.0,0.0,0.0,0.0,0.0,0.0,0.0,0.0,0.0,0.0,0.0,0.0,0.0,0.0,0.0,0.0,0.0,0.0,0.0,0.0,0.0,0.0,0.0,0.0,0.0,0.0,0.0,0.0,0.0,0.0,0.0,0.0,0.0,0.0,0.0,0.0,0.0,0.0,0.0,0.0,0.0,0.0,0.0,0.0,0.0,0.0,0.0,0.0,0.0,0.0,0.0,0.0,0.0,0.0,0.0,0.0,0.0,0.0,0.0,0.0,0.0,0.0,0.0,0.0,0.0,0.0,0.0,0.0,0.0,0.0,0.0,0.0,0.0,0.0,0.0,0.0,0.0,0.0,0.0,0.0,0.0,0.0,0.0,0.0,0.0,0.0,0.0,0.0,0.0,0.0,0.0,0.0,0.0,0.0,0.0,0.0,0.0,0.0,0.0,0.0,0.0,-1.3797,-1.3021,-1.2594,-1.2643,-1.3065,-1.3683,0.0,0.0,0.0,0.0,0.0,0.0,0.0,0.0,0.0,0.0,0.0,0.0,0.0,0.0,0.0,0.0,0.0,0.0,0.0,0.0,0.0,0.0,0.0,0.0,0.0,0.0,0.0,0.0,0.0,0.0,0.0,0.0,0.0,0.0,0.0,0.0,0.0,0.0,0.0,0.0,0.0,0.0,0.0,0.0,0.0,0.0,0.0,0.0,0.0,0.0,0.0,0.0,0.0,0.0,0.0,0.0,0.0,0.0,0.0,0.0,0.0,0.0,0.0,0.0,0.0,0.0,0.0,0.0,0.0,0.0,0.0,0.0,0.0,0.0,0.0,0.0,0.0,0.0,0.0,0.0,0.0,0.0,0.0,0.0,0.0,0.0,0.0,0.0,0.0,0.0,0.0,0.0,0.0,0.0,0.0,0.0,0.0,0.0,0.0,0.0,0.0,0.0,0.0,0.0,0.0,0.0,0.0,0.0,0.0,-1.3029,-1.2634,-1.2461,-1.2522,-1.3008,-1.3618,-1.4414,0.0,0.0,0.0,0.0,0.0,0.0,0.0,0.0,0.0,0.0,0.0,0.0,0.0,0.0,0.0,0.0,0.0,0.0,0.0,0.0,0.0,0.0,0.0,0.0,0.0,0.0,0.0,0.0,0.0,0.0,0.0,0.0,0.0,0.0,0.0,0.0,0.0,0.0,0.0,0.0,0.0,0.0,0.0,0.0,0.0,0.0,0.0,0.0,0.0,0.0,0.0,0.0,0.0,0.0,0.0,0.0,0.0,0.0,0.0,0.0,0.0,0.0,0.0,0.0,0.0,0.0,0.0,0.0,0.0,0.0,0.0,0.0,0.0,0.0,0.0,0.0,0.0,0.0,0.0,0.0,0.0,0.0,0.0,0.0,0.0,0.0,0.0,0.0,0.0,0.0,0.0,0.0,0.0,0.0,0.0,0.0,0.0,0.0,0.0,0.0,0.0,0.0,0.0,0.0,0.0,0.0,0.0,0.0,-1.218,-1.2405,-1.2527,-1.2634,-1.318,-1.3887,0.0,0.0,0.0,0.0,0.0,0.0,0.0,0.0,0.0,0.0,0.0,0.0,0.0,0.0,0.0,0.0,0.0,0.0,0.0,0.0,0.0,0.0,0.0,0.0,0.0,0.0,0.0,0.0,0.0,0.0,0.0,0.0,0.0,0.0,0.0,0.0,0.0,0.0,0.0,0.0,0.0,0.0,0.0,0.0,0.0,0.0,0.0,0.0,0.0,0.0,0.0,0.0,0.0,0.0,0.0,0.0,0.0,0.0,0.0,0.0,0.0,0.0,0.0,0.0,0.0,0.0,0.0,0.0,0.0,0.0,0.0,0.0,0.0,0.0,0.0,0.0,0.0,0.0,0.0,0.0,0.0,0.0,0.0,0.0,0.0,0.0,0.0,0.0,0.0,0.0,0.0,0.0,0.0,0.0,0.0,0.0,0.0,0.0,0.0,0.0,0.0,0.0,0.0,0.0,0.0,0.0,0.0,0.0,0.0,-1.2253,-1.2204,-1.215,-1.2119,-1.2814,-1.3512,0.0,0.0,0.0,0.0,0.0,0.0,0.0,0.0,0.0,0.0,0.0,0.0,0.0,0.0,0.0,0.0,0.0,0.0,0.0,0.0,0.0,0.0,0.0,0.0,0.0,0.0,0.0,0.0,0.0,0.0,0.0,0.0,0.0,0.0,0.0,0.0,0.0,0.0,0.0,0.0,0.0,0.0,0.0,0.0,0.0,0.0,0.0,0.0,0.0,0.0,0.0,0.0,0.0,0.0,0.0,0.0,0.0,0.0,0.0,0.0,0.0,0.0,0.0,0.0,0.0,0.0,0.0,0.0,0.0,0.0,0.0,0.0,0.0,0.0,0.0,0.0,0.0,0.0,0.0,0.0,0.0,0.0,0.0,0.0,0.0,0.0,0.0,0.0,0.0,0.0,0.0,0.0,0.0,0.0,0.0,0.0,0.0,0.0,0.0,0.0,0.0,0.0,0.0,0.0,0.0,0.0,0.0,0.0,-1.2668,-1.2248,-1.2184,-1.2186,-1.2079,-1.2602,-1.3268,0.0,0.0,0.0,0.0,0.0,0.0,0.0,0.0,0.0,0.0,0.0,0.0,0.0,0.0,0.0,0.0,0.0,0.0,0.0,0.0,0.0,0.0,0.0,0.0,0.0,0.0,0.0,0.0,0.0,0.0,0.0,0.0,0.0,0.0,0.0,0.0,0.0,0.0,0.0,0.0,0.0,0.0,0.0,0.0,0.0,0.0,0.0,0.0,0.0,0.0,0.0,0.0,0.0,0.0,0.0,0.0,0.0,0.0,0.0,0.0,0.0,0.0,0.0,0.0,0.0,0.0,0.0,0.0,0.0,0.0,0.0,0.0,0.0,0.0,0.0,0.0,0.0,0.0,0.0,0.0,0.0,0.0,0.0,0.0,0.0,0.0,0.0,0.0,0.0,0.0,0.0,0.0,0.0,0.0,0.0,0.0,0.0,0.0,0.0,0.0,0.0,0.0,0.0,0.0,0.0,0.0,0.0,0.0,-1.2533,-1.223,-1.2305,-1.2305,-1.2291,-1.257,-1.303,0.0,0.0,0.0,0.0,0.0,0.0,0.0,0.0,0.0,0.0,0.0,0.0,0.0,0.0,0.0,0.0,0.0,0.0,0.0,0.0,0.0,0.0,0.0,0.0,0.0,0.0,0.0,0.0,0.0,0.0,0.0,0.0,0.0,0.0,0.0,0.0,0.0,0.0,0.0,0.0,0.0,0.0,0.0,0.0,0.0,0.0,0.0,0.0,0.0,0.0,0.0,0.0,0.0,0.0,0.0,0.0,0.0,0.0,0.0,0.0,0.0,0.0,0.0,0.0,0.0,0.0,0.0,0.0,0.0,0.0,0.0,0.0,0.0,0.0,0.0,0.0,0.0,0.0,0.0,0.0,0.0,0.0,0.0,0.0,0.0,0.0,0.0,0.0,0.0,0.0,0.0,0.0,0.0,0.0,0.0,0.0,0.0,0.0,0.0,0.0,0.0,0.0,0.0,0.0,0.0,0.0,0.0,0.0,-1.2362,-1.2122,-1.2263,-1.2305,-1.2298,-1.2423,-1.2796,0.0,0.0,0.0,0.0,0.0,0.0,0.0,0.0,0.0,0.0,0.0,0.0,0.0,0.0,0.0,0.0,0.0,0.0,0.0,0.0,0.0,0.0,0.0,0.0,0.0,0.0,0.0,0.0,0.0,0.0,0.0,0.0,0.0,0.0,0.0,0.0,0.0,0.0,0.0,0.0,0.0,0.0,0.0,0.0,0.0,0.0,0.0,0.0,-1.2903,0.0,0.0,0.0,0.0,0.0,0.0,0.0,0.0,0.0,0.0,0.0,0.0,0.0,0.0,0.0,0.0,0.0,0.0,0.0,0.0,0.0,0.0,0.0,0.0,0.0,0.0,0.0,0.0,0.0,0.0,0.0,0.0,0.0,0.0,0.0,0.0,0.0,0.0,0.0,0.0,0.0,0.0,0.0,0.0,0.0,0.0,0.0,0.0,0.0,0.0,0.0,0.0,0.0,0.0,0.0,0.0,0.0,0.0,0.0,-1.1329,-1.141,-1.1034,-1.1099,-1.1527,-1.1553,-1.2088,0.0,0.0,0.0,0.0,0.0,0.0,0.0,0.0,0.0,0.0,0.0,0.0,0.0,0.0,0.0,0.0,0.0,0.0,0.0,0.0,0.0,0.0,0.0,0.0,0.0,0.0,0.0,0.0,0.0,0.0,0.0,0.0,0.0,0.0,0.0,0.0,0.0,0.0,0.0,0.0,0.0,0.0,0.0,0.0,0.0,0.0,0.0,0.0,0.0,0.0,0.0,0.0,0.0,0.0,0.0,0.0,0.0,0.0,0.0,0.0,0.0,0.0,0.0,0.0,0.0,0.0,0.0,0.0,0.0,0.0,0.0,0.0,0.0,0.0,0.0,0.0,0.0,0.0,0.0,0.0,0.0,0.0,0.0,0.0,0.0,0.0,0.0,0.0,0.0,0.0,0.0,0.0,0.0,0.0,0.0,0.0,0.0,0.0,0.0,0.0,0.0,0.0,0.0,0.0,0.0,0.0,0.0,-1.0795,-1.0231,-1.0376,-0.9718,-0.982,-1.0783,-1.0712,-1.1314,-1.2721,0.0,0.0,0.0,0.0,0.0,0.0,0.0,0.0,0.0,0.0,0.0,0.0,0.0,0.0,0.0,0.0,0.0,0.0,0.0,0.0,0.0,0.0,0.0,0.0,0.0,0.0,0.0,0.0,0.0,0.0,0.0,0.0,0.0,0.0,0.0,0.0,0.0,0.0,-1.1115,-1.1142,0.0,0.0,0.0,0.0,0.0,0.0,0.0,0.0,-1.2966,0.0,0.0,0.0,0.0,0.0,0.0,0.0,0.0,0.0,0.0,0.0,0.0,0.0,0.0,0.0,0.0,0.0,0.0,0.0,0.0,0.0,0.0,0.0,0.0,0.0,0.0,0.0,0.0,0.0,0.0,0.0,0.0,0.0,0.0,0.0,0.0,0.0,0.0,0.0,0.0,0.0,0.0,0.0,0.0,0.0,0.0,0.0,0.0,0.0,0.0,0.0,0.0,0.0,0.0,0.0,0.0,-1.0684,-1.0197,-0.9822,-0.9526,-0.9352,-0.982,-1.0783,-1.0742,-1.1232,-1.2269,0.0,0.0,0.0,0.0,0.0,0.0,0.0,0.0,0.0,0.0,0.0,0.0,0.0,0.0,0.0,0.0,0.0,0.0,0.0,0.0,0.0,0.0,0.0,0.0,0.0,0.0,0.0,0.0,0.0,0.0,0.0,0.0,0.0,0.0,0.0,0.0,0.0,0.0,0.0,-1.169,-1.1761,0.0,0.0,0.0,0.0,0.0,0.0,0.0,0.0,-1.3265,0.0,0.0,0.0,0.0,0.0,0.0,0.0,0.0,0.0,0.0,0.0,0.0,0.0,0.0,0.0,0.0,0.0,0.0,0.0,0.0,0.0,0.0,0.0,0.0,0.0,0.0,0.0,0.0,0.0,0.0,0.0,0.0,0.0,0.0,0.0,0.0,0.0,0.0,0.0,0.0,0.0,0.0,0.0,0.0,0.0,0.0,0.0,0.0,0.0,0.0,0.0,0.0,0.0,0.0,0.0,-1.0272,-0.958,-0.9025,-0.8528,-0.8008,-0.8461,-0.9965,-1.0045,-1.0694,0.0,0.0,0.0,0.0,0.0,0.0,0.0,0.0,0.0,0.0,0.0,0.0,0.0,0.0,0.0,0.0,0.0,0.0,0.0,0.0,0.0,0.0,0.0,0.0,0.0,0.0,0.0,0.0,0.0,0.0,0.0,0.0,0.0,0.0,0.0,0.0,0.0,0.0,0.0,0.0,-1.1521,-1.1484,-1.2317,0.0,0.0,0.0,0.0,0.0,0.0,-1.336,-1.3433,0.0,0.0,0.0,0.0,0.0,0.0,0.0,0.0,0.0,0.0,0.0,0.0,0.0,0.0,0.0,0.0,0.0,0.0,0.0,0.0,0.0,0.0,0.0,0.0,0.0,0.0,0.0,0.0,0.0,0.0,0.0,0.0,0.0,0.0,0.0,0.0,0.0,0.0,0.0,0.0,0.0,0.0,0.0,0.0,0.0,0.0,0.0,0.0,0.0,0.0,0.0,0.0,0.0,0.0,0.0,-1.0146,-0.9339,-0.862,-0.8075,-0.7326,-0.7783,-0.9523,-0.9599,-1.0431,0.0,0.0,0.0,0.0,0.0,0.0,0.0,0.0,0.0,0.0,0.0,0.0,0.0,0.0,0.0,0.0,0.0,0.0,0.0,0.0,0.0,0.0,0.0,0.0,0.0,0.0,0.0,0.0,0.0,0.0,0.0,0.0,0.0,0.0,0.0,0.0,0.0,0.0,0.0,0.0,0.0,-1.1366,-1.2362,-1.1174,0.0,0.0,0.0,0.0,-1.3078,-1.353,0.0,0.0,0.0,0.0,0.0,0.0,0.0,0.0,0.0,0.0,0.0,0.0,0.0,0.0,0.0,0.0,0.0,0.0,0.0,0.0,0.0,0.0,0.0,0.0,0.0,0.0,0.0,0.0,0.0,0.0,0.0,0.0,0.0,0.0,0.0,0.0,0.0,0.0,0.0,0.0,0.0,0.0,0.0,0.0,0.0,0.0,0.0,0.0,0.0,0.0,0.0,0.0,0.0,0.0,0.0,0.0,-0.9944,-0.9916,-0.9658,-0.9135,-0.8993,-0.9518,-1.0565,-1.064,-1.1101,0.0,0.0,0.0,0.0,0.0,0.0,0.0,0.0,0.0,0.0,0.0,0.0,0.0,0.0,0.0,0.0,0.0,0.0,0.0,0.0,0.0,0.0,0.0,0.0,0.0,0.0,0.0,0.0,0.0,0.0,0.0,0.0,0.0,0.0,0.0,0.0,0.0,0.0,0.0,0.0,0.0,-1.1924,-1.2288,-1.1816,-1.157,0.0,0.0,-1.2738,-1.2972,-1.3612,0.0,0.0,0.0,0.0,0.0,0.0,0.0,0.0,0.0,0.0,0.0,0.0,0.0,0.0,0.0,0.0,0.0,0.0,0.0,0.0,0.0,0.0,0.0,0.0,0.0,0.0,0.0,0.0,0.0,0.0,0.0,0.0,0.0,0.0,0.0,0.0,0.0,0.0,0.0,0.0,0.0,0.0,0.0,0.0,0.0,0.0,0.0,0.0,0.0,0.0,0.0,0.0,0.0,0.0,0.0,-1.0891,-1.0237,-1.0417,-0.9862,-0.8537,-0.8993,-0.9523,-0.9965,-1.0484,-1.1187,0.0,0.0,0.0,0.0,0.0,0.0,0.0,0.0,0.0,0.0,0.0,0.0,0.0,0.0,0.0,0.0,0.0,0.0,0.0,0.0,0.0,0.0,0.0,0.0,0.0,0.0,0.0,0.0,0.0,0.0,0.0,0.0,0.0,0.0,0.0,0.0,0.0,0.0,0.0,0.0,0.0,0.0,-1.149,-1.1218,0.0,0.0,0.0,-1.2628,-1.3021,0.0,0.0,0.0,0.0,0.0,0.0,0.0,0.0,0.0,0.0,0.0,0.0,0.0,0.0,0.0,0.0,0.0,0.0,0.0,0.0,0.0,0.0,0.0,0.0,0.0,0.0,0.0,0.0,0.0,0.0,0.0,0.0,0.0,0.0,0.0,0.0,0.0,0.0,0.0,0.0,0.0,0.0,0.0,0.0,0.0,0.0,0.0,0.0,0.0,0.0,0.0,0.0,0.0,0.0,0.0,0.0,0.0,-1.0401,-1.0654,-1.0034,-0.8613,-0.9296,-0.9825,-1.0051,-1.0795,0.0,0.0,0.0,0.0,0.0,0.0,0.0,0.0,0.0,0.0,0.0,0.0,0.0,0.0,0.0,0.0,0.0,0.0,0.0,0.0,0.0,0.0,0.0,0.0,0.0,0.0,0.0,-1.4113,0.0,0.0,0.0,0.0,0.0,0.0,0.0,0.0,0.0,0.0,0.0,0.0,0.0,0.0,-1.1163,-1.1335,-1.1029,-1.1027,0.0,0.0,-1.2763,-1.3199,-1.3762,-1.4175,0.0,0.0,0.0,0.0,0.0,0.0,0.0,0.0,0.0,0.0,0.0,0.0,0.0,0.0,0.0,0.0,0.0,0.0,0.0,0.0,0.0,0.0,0.0,0.0,0.0,0.0,0.0,0.0,0.0,0.0,0.0,0.0,0.0,0.0,0.0,0.0,0.0,0.0,0.0,0.0,0.0,0.0,0.0,0.0,0.0,0.0,0.0,0.0,0.0,0.0,0.0,0.0,0.0,0.0,-1.107,-1.0401,-1.0654,-1.0708,-1.0565,-1.0634,-1.1162,-1.2077,-1.215,-1.2218,0.0,0.0,0.0,0.0,0.0,0.0,0.0,0.0,0.0,0.0,0.0,0.0,0.0,0.0,0.0,0.0,0.0,0.0,0.0,0.0,0.0,0.0,0.0,0.0,0.0,0.0,0.0,0.0,0.0,0.0,0.0,0.0,0.0,0.0,0.0,0.0,0.0,0.0,0.0,0.0,0.0,-1.1335,-1.232,-1.1767,-1.174,0.0,-1.3124,-1.3205,-1.3648,-1.4135,-1.4495,-1.4508,0.0,0.0,0.0,0.0,0.0,0.0,0.0,0.0,0.0,0.0,0.0,0.0,0.0,0.0,0.0,0.0,0.0,0.0,0.0,0.0,0.0,0.0,0.0,0.0,0.0,0.0,0.0,0.0,0.0,0.0,0.0,0.0,0.0,0.0,0.0,0.0,0.0,0.0,0.0,0.0,0.0,0.0,0.0,0.0,0.0,0.0,0.0,0.0,0.0,0.0,0.0,0.0,0.0,-1.1695,-1.1608,-1.1643,-1.1385,-1.0858,-1.1391,-1.162,-1.1385,-1.2003,-1.2305,0.0,0.0,0.0,0.0,0.0,0.0,0.0,0.0,0.0,0.0,0.0,0.0,0.0,0.0,0.0,0.0,0.0,0.0,0.0,0.0,0.0,0.0,0.0,0.0,0.0,0.0,0.0,0.0,-1.3314,-1.3049,-1.2835,0.0,0.0,0.0,0.0,0.0,0.0,0.0,0.0,0.0,0.0,-1.2123,-1.1962,-1.2517,0.0,0.0,-1.3261,-1.3856,-1.4053,-1.4523,-1.4756,-1.4838,-1.4812,0.0,0.0,0.0,0.0,0.0,0.0,0.0,0.0,0.0,0.0,0.0,0.0,0.0,0.0,0.0,0.0,0.0,0.0,0.0,0.0,0.0,0.0,0.0,0.0,0.0,0.0,0.0,0.0,0.0,0.0,0.0,0.0,0.0,0.0,0.0,0.0,0.0,0.0,0.0,0.0,0.0,0.0,0.0,0.0,0.0,0.0,0.0,0.0,0.0,0.0,0.0,0.0,-1.1867,-1.1842,-1.1848,-1.1545,-1.0789,-1.1465,-1.1694,-1.131,-1.1922,-1.2305,0.0,0.0,0.0,0.0,0.0,0.0,0.0,0.0,0.0,0.0,0.0,0.0,0.0,0.0,0.0,0.0,0.0,0.0,0.0,0.0,0.0,0.0,0.0,0.0,0.0,0.0,0.0,0.0,-1.3388,-1.3128,-1.2849,0.0,0.0,0.0,0.0,0.0,0.0,0.0,0.0,0.0,0.0,-1.2512,-1.2194,-1.2839,-1.3273,-1.2833,-1.3616,-1.4347,-1.4605,-1.4909,-1.509,-1.509,0.0,0.0,0.0,0.0,0.0,0.0,0.0,0.0,0.0,0.0,0.0,0.0,0.0,0.0,0.0,0.0,0.0,0.0,0.0,0.0,0.0,0.0,0.0,0.0,0.0,0.0,0.0,-1.4903,0.0,0.0,-1.4974,0.0,0.0,0.0,0.0,0.0,0.0,0.0,0.0,0.0,0.0,0.0,0.0,0.0,0.0,0.0,0.0,0.0,0.0,0.0,0.0,0.0,0.0,-1.1571,-1.0852,-1.0932,-1.0858,-1.0858,-1.0858,-1.1316,-1.2231,-1.2305,-1.2305,-1.2305,0.0,0.0,0.0,0.0,0.0,0.0,0.0,0.0,0.0,0.0,0.0,0.0,0.0,0.0,0.0,0.0,0.0,0.0,0.0,0.0,0.0,0.0,0.0,0.0,0.0,0.0,-1.2755,-1.2743,-1.2829,0.0,0.0,0.0,0.0,0.0,0.0,0.0,0.0,0.0,-1.2492,-1.2261,-1.2312,-1.3105,-1.2851,-1.3009,-1.4261,-1.4274,-1.4471,-1.5212,-1.5384,-1.5391,0.0,0.0,0.0,0.0,0.0,0.0,0.0,0.0,0.0,0.0,0.0,0.0,0.0,0.0,0.0,0.0,0.0,0.0,0.0,0.0,0.0,0.0,0.0,0.0,0.0,0.0,0.0,-1.4237,-1.4237,0.0,0.0,0.0,0.0,0.0,0.0,0.0,0.0,0.0,0.0,0.0,-1.2526,-1.2526,0.0,0.0,0.0,0.0,0.0,0.0,0.0,0.0,0.0,0.0,0.0,0.0,-1.2058,-1.1842,-1.1768,-1.1768,-1.1768,-1.1774,-1.1996,-1.2305,-1.2305,-1.2378,-1.2526,0.0,0.0,0.0,0.0,0.0,0.0,0.0,0.0,0.0,0.0,0.0,0.0,0.0,0.0,0.0,0.0,0.0,0.0,0.0,0.0,0.0,0.0,0.0,0.0,0.0,-1.369,0.0,0.0,0.0,0.0,0.0,0.0,0.0,0.0,0.0,0.0,-1.2835,-1.3041,-1.3235,-1.3124,-1.3227,-1.3754,-1.3834,-1.4057,0.0,0.0,0.0,0.0,0.0,0.0,0.0,0.0,0.0,0.0,0.0,0.0,0.0,0.0,-1.5411,-1.5037,-1.506,-1.506,-1.506,0.0,0.0,0.0,0.0,0.0,0.0,0.0,0.0,0.0,0.0,0.0,0.0,0.0,0.0,-1.3765,-1.3741,-1.3953,0.0,0.0,0.0,0.0,0.0,0.0,0.0,0.0,-1.2526,-1.2452,-1.2305,-1.2305,-1.2305,-1.2311,-1.2405,-1.2378,0.0,0.0,0.0,0.0,0.0,0.0,0.0,0.0,-1.2305,-1.2305,-1.2305,-1.2305,-1.2305,-1.2305,-1.2305,-1.2305,-1.2305,-1.2378,-1.2526,-1.2526,-1.282,0.0,0.0,0.0,0.0,0.0,0.0,0.0,0.0,0.0,0.0,0.0,0.0,0.0,0.0,0.0,0.0,0.0,0.0,0.0,0.0,0.0,0.0,0.0,-1.3328,0.0,0.0,0.0,0.0,0.0,0.0,0.0,0.0,0.0,-1.2789,-1.3153,-1.3413,-1.3605,-1.3853,-1.4102,-1.4088,0.0,0.0,0.0,0.0,0.0,0.0,0.0,-1.5825,-1.5825,-1.5825,-1.5825,-1.5825,-1.5825,-1.5825,-1.5825,0.0,0.0,-1.5331,-1.5264,-1.5264,-1.5271,-1.5257,-1.5271,-1.5271,-1.5252,-1.5295,0.0,0.0,0.0,0.0,-1.2829,0.0,0.0,0.0,-1.366,-1.3571,0.0,-1.3279,0.0,0.0,0.0,0.0,-1.32,-1.2973,0.0,0.0,-1.2378,-1.2305,-1.2325,-1.2325,-1.2325,-1.2351,-1.2625,-1.2605,-1.2325,-1.2318,0.0,0.0,0.0,0.0,0.0,0.0,-1.2305,-1.2305,-1.2305,-1.2305,-1.2305,-1.2305,-1.2305,-1.2305,-1.2305,-1.2305,-1.2305,-1.2305,-1.2526,-1.29,-1.347,0.0,0.0,0.0,0.0,0.0,0.0,0.0,0.0,0.0,0.0,0.0,0.0,0.0,0.0,0.0,0.0,0.0,0.0,0.0,0.0,-1.3521,0.0,0.0,0.0,0.0,0.0,0.0,0.0,0.0,0.0,-1.344,-1.2899,-1.3307,-1.3654,-1.3667,0.0,0.0,0.0,0.0,-1.5271,-1.5017,-1.5217,-1.5498,-1.5785,-1.5825,-1.5825,-1.5825,0.0,0.0,-1.5825,-1.5825,-1.5825,-1.5825,-1.5825,-1.5825,-1.5812,-1.5792,-1.5798,-1.5798,-1.5785,-1.5818,-1.5818,-1.5697,-1.5717,-1.3267,0.0,0.0,0.0,0.0,-1.3158,-1.3319,-1.3575,-1.3453,-1.3317,-1.3223,-1.3146,0.0,0.0,0.0,0.0,0.0,0.0,-1.2592,-1.2378,-1.2298,-1.2412,-1.2619,-1.2619,-1.2732,-1.2953,-1.3033,-1.2926,-1.2632,-1.2619,-1.2512,-1.2305,0.0,0.0,0.0,0.0,-1.2305,-1.2305,-1.2305,-1.2305,-1.2305,-1.2305,-1.2305,-1.2305,-1.2305,-1.2305,-1.2305,-1.2305,-1.2445,-1.268,-1.3112,0.0,0.0,0.0,0.0,0.0,0.0,0.0,0.0,0.0,0.0,0.0,0.0,0.0,0.0,0.0,0.0,0.0,0.0,0.0,-1.4513,-1.4665,-1.4503,0.0,0.0,0.0,0.0,0.0,0.0,0.0,0.0,0.0,-1.3728,-1.3854,-1.3961,0.0,0.0,-1.4355,-1.4389,-1.4609,-1.489,-1.5217,-1.5344,0.0,-1.5785,-1.5825,-1.5825,-1.5825,-1.5825,-1.5825,-1.5825,-1.5825,-1.5825,-1.5825,-1.5825,-1.5825,-1.5825,-1.5825,-1.5825,-1.5825,-1.5825,-1.5825,-1.5825,-1.5825,-1.5818,-1.3721,-1.354,-1.3313,-1.3273,-1.338,-1.3387,-1.3547,-1.3808,-1.3641,-1.3494,-1.3373,-1.3259,-1.3158,-1.2955,-1.3181,0.0,0.0,0.0,-1.2879,-1.2659,-1.2665,-1.2759,-1.2919,-1.2933,-1.3033,-1.3213,-1.3327,-1.3227,-1.2926,-1.3046,-1.2953,-1.2659,0.0,-1.2305,-1.2305,-1.2305,-1.2305,-1.2305,-1.2305,-1.2305,-1.2305,-1.2305,-1.2305,-1.2305,-1.2305,-1.2305,-1.2305,-1.2305,-1.2378,-1.2452,-1.29,-1.3339,0.0,0.0,0.0,0.0,0.0,0.0,0.0,0.0,0.0,0.0,0.0,-1.8123,-1.7865,0.0,0.0,0.0,-1.6828,-1.6081,-1.589,-1.5594,0.0,0.0,0.0,0.0,0.0,0.0,0.0,-1.3908,-1.4215,-1.4436,-1.4436,-1.4436,-1.4442,-1.4429,-1.4529,-1.4629,-1.4689,0.0,-1.5124,-1.5364,-1.5491,-1.5625,-1.5805,-1.5825,-1.5825,-1.5825,-1.5825,-1.5825,-1.5825,-1.5825,-1.5825,-1.5825,-1.5825,-1.5825,-1.5825,-1.5825,-1.6015,-1.648,-1.6546,-1.6727,-1.7203,-1.7128,-1.6989,-1.4088,-1.4041,-1.3507,-1.344,-1.3674,-1.3599,-1.3834,-1.4075,-1.4055,-1.3901,-1.3647,-1.3532,-1.3534,-1.3502,-1.366,0.0,-1.3495,-1.3495,-1.3344,-1.3206,-1.3206,-1.3227,-1.3247,-1.3247,-1.3253,-1.3287,-1.3547,-1.3527,-1.3267,-1.3507,-1.35,-1.32,-1.2652,-1.2365,-1.2338,-1.2318,-1.2305,-1.2305,-1.2305,-1.2305,-1.2305,-1.2305,-1.2305,-1.2305,-1.2305,-1.2305,-1.2305,-1.2305,-1.2305,-1.2305,-1.2673,-1.2973,-1.3193,0.0,0.0,0.0,0.0,0.0,0.0,0.0,0.0,0.0,0.0,0.0,0.0,0.0,0.0,0.0,-1.7835,0.0,-1.7853,-1.6565,0.0,0.0,0.0,-1.4698,-1.4829,-1.4831,-1.494,-1.5109,0.0,0.0,-1.5087,-1.4997,-1.5003,-1.503,-1.5224,-1.5271,-1.5037,-1.5431,-1.5698,-1.5471,-1.5658,-1.5818,-1.5825,-1.5825,-1.5825,-1.5825,-1.5825,-1.5825,-1.5825,-1.5825,-1.5825,-1.5825,-1.5818,-1.5785,-1.5785,-1.5839,-1.6216,-1.7387,-1.7472,-1.7827,-1.8843,-1.8718,-1.8313,-1.4088,-1.4075,-1.3935,-1.3915,-1.3988,-1.3988,-1.4021,-1.4068,-1.3848,-1.3707,-1.3634,-1.3407,-1.3267,-1.3286,-1.3279,-1.3286,-1.3279,-1.3286,-1.3206,-1.3206,-1.3206,-1.3327,-1.3534,-1.3547,-1.3654,-1.3874,-1.3948,-1.3834,-1.3554,-1.3614,-1.35,-1.3213,-1.3066,-1.2879,-1.2714,-1.2418,-1.2305,-1.2305,-1.2305,-1.2305,-1.2305,-1.2305,-1.2305,-1.2305,-1.2305,-1.2305,-1.2305,-1.2305,-1.2305,-1.2305,-1.2378,-1.2599,-1.2966,-1.3833,0.0,0.0,0.0,0.0,0.0,0.0,0.0,0.0,0.0,-1.8172,-1.8209,0.0,-1.8411,0.0,-1.9584,-1.9219,-1.7263,-1.8438,0.0,0.0,-1.7421,-1.777,-1.7666,-1.7842,-1.7578,-1.6521,-1.655,-1.6342,-1.5376,-1.5297,-1.5378,-1.5585,-1.5297,-1.5124,-1.5264,-1.5398,-1.5558,-1.5685,-1.5758,-1.5825,-1.5805,-1.5825,-1.5812,-1.5825,-1.5818,-1.5825,-1.5825,-1.5825,-1.5825,-1.5812,-1.5638,-1.5518,-1.5498,-1.5944,-1.6497,-1.684,-1.6483,-1.6557,-1.8538,-1.8033,-1.7422,-1.4088,-1.4088,-1.4088,-1.4088,-1.4088,-1.4088,-1.4088,-1.4075,-1.3908,-1.3841,-1.3834,-1.3667,-1.3601,-1.3601,-1.3601,-1.3601,-1.3601,-1.3601,-1.3601,-1.3601,-1.3601,-1.3687,-1.3841,-1.3841,-1.3928,-1.4088,-1.4088,-1.4001,-1.3848,-1.3841,-1.3761,-1.3601,-1.3467,-1.3253,-1.2953,-1.2652,-1.2498,-1.2498,-1.2371,-1.2305,-1.2305,-1.2305,-1.2305,-1.2298,-1.2372,-1.2452,-1.2452,-1.2599,-1.2673,-1.2673,-1.2893,-1.3112,-1.3397,-1.4194,-1.4984,0.0,0.0,0.0,0.0,0.0,0.0,0.0,0.0,0.0,0.0,0.0,-1.9259,-1.9653,-2.0533,-2.0402,-1.8735,-1.9694,-1.9974,-1.875,-1.9028,-1.9157,-1.9054,-1.9156,-1.8938,-1.8111,-1.8171,-1.7743,-1.6593,-1.6415,-1.6292,-1.59,-1.5438,-1.5257,-1.5504,-1.5484,-1.5451,-1.5605,-1.5524,-1.5444,-1.5444,-1.5444,-1.5444,-1.5444,-1.5438,-1.5451,-1.5444,-1.5444,-1.5444,-1.5431,-1.5304,-1.5204,-1.5197,-1.5521,-1.6087,-1.6514,-1.5842,-1.601,-1.8153,-1.8337,-1.8168,-1.4088,-1.4088,-1.4088,-1.4088,-1.4088,-1.4088,-1.4088,-1.4088,-1.4088,-1.4088,-1.4088,-1.425,-1.425,-1.4088,-1.425,-1.425,-1.4088,-1.4088,-1.4088,-1.4088,-1.4088,-1.4088,-1.4088,-1.4088,-1.4088,-1.4088,-1.4088,-1.4166,-1.4328,-1.4166,-1.4166,-1.4237,-1.3911,-1.3554,-1.3267,-1.2959,-1.2842,-1.2768,-1.2438,-1.2305,-1.2305,-1.2298,-1.2378,-1.2378,-1.2526,-1.2673,-1.2746,-1.3046,-1.3266,-1.3339,-1.3688,-1.3897,-1.4114,-1.488,-1.577,0.0,-1.7451,0.0,0.0,0.0,0.0,0.0,0.0,0.0,0.0,-1.9927,-2.0445,-2.0695,-2.1104,-2.1183,-2.0932,-2.0725,-2.054,-2.0237,-2.0184,-2.005,-1.9991,-1.9943,-1.9861,-1.9778,-1.977,-1.9306,-1.8095,-1.794,-1.749,-1.6577,-1.6174,-1.6063,-1.6078,-1.565,-1.5324,-1.5337,-1.513,-1.5037,-1.5023,-1.4997,-1.4997,-1.4983,-1.501,-1.506,-1.5003,-1.4997,-1.5073,-1.5073,-1.5122,-1.5157,-1.5164,-1.5389,-1.5863,-1.6764,-1.6066,-1.61,-1.8132,-1.865,-1.9135,-1.4088,-1.4088,-1.4088,-1.4088,-1.4088,-1.4088,-1.4088,-1.4088,-1.4088,-1.4088,-1.4166,-1.5061,-1.4901,-1.4173,-1.4977,-1.4901,-1.4088,-1.4088,-1.4088,-1.4088,-1.4088,-1.4088,-1.4088,-1.4088,-1.4088,-1.4088,-1.4088,-1.4573,-1.5379,-1.4489,-1.458,-1.5372,-1.4434,-1.3854,-1.3561,0.0,0.0,0.0,-1.2331,-1.2305,-1.2305,-1.2452,-1.2526,-1.2526,-1.29,0.0,-1.3346,-1.355,-1.384,-1.4049,-1.4201,0.0,0.0,0.0,0.0,0.0,0.0,0.0,0.0,0.0,0.0,0.0,-1.96,-1.972,-1.9609,-2.0127,-2.0785,-2.1269,-2.1709,-2.1693,-2.0789,-2.1891,-2.2117,-2.1184,-2.1919,-2.2416,-2.2403,-2.2413,-2.2069,-2.1114,-2.097,-2.0523,-1.934,-1.9141,-1.8926,-1.83,-1.8198,-1.8063,-1.7681,-1.6224,-1.5134,-1.5037,-1.5129,-1.504,-1.506,-1.5033,-1.5171,-1.506,-1.506,-1.504,-1.5109,-1.5116,-1.504,-1.5109,-1.5528,-1.5857,-1.5943,-1.7155,-1.7836,-1.7294,-1.7654,-1.8365,-1.9215,-1.7846,-1.6934,-1.4088,-1.4088,-1.4088,-1.4088,0.0,-1.4088,-1.4088,-1.4088,-1.4088,-1.4412,-1.4894,-1.5462,-1.5703,-1.5711,-1.5703,-1.5379,-1.4894,-1.4328,-1.4088,-1.4088,-1.4088,-1.4088,-1.4088,-1.4088,-1.4088,-1.4088,-1.4088,-1.4419,-1.4901,-1.4894,-1.5137,-1.5696,-1.5703,-1.5145,-1.42,-1.3206,-1.2612,-1.2305,-1.2305,-1.2305,-1.2298,-1.2372,-1.2666,-1.3098,-1.347,0.0,0.0,0.0,0.0,0.0,0.0,0.0,0.0,-1.6785,0.0,-1.8276,-1.8881,-1.9408,-1.9761,-1.9847,-1.9912,-1.9922,-2.0117,-2.0255,-2.0391,-2.0931,-2.1472,-2.1971,-2.2398,-2.2467,-2.2013,-2.265,-2.2862,-2.2306,-2.2775,-2.3144,-2.3144,-2.3144,-2.2882,-2.2362,-2.2157,-2.1664,-2.0307,-2.0058,-1.9609,-1.8745,-1.8357,-1.828,-1.7945,-1.7134,-1.6327,-1.6163,-1.6126,-1.5955,-1.5533,-1.5877,-1.5884,-1.5533,-1.5791,-1.6134,-1.6126,-1.6126,-1.6134,-1.6197,-1.6477,-1.6687,-1.6763,-1.7531,-1.7989,-1.7504,-1.7747,-1.8442,-1.9048,-1.827,-1.7568,-1.4088,-1.4088,-1.4088,-1.4088,-1.4088,-1.4088,-1.4088,-1.4088,-1.4334,0.0,0.0,-1.6191,-1.6683,-1.7261,-1.6601,-1.6191,-1.5944,-1.5061,-1.4664,-1.4657,-1.4657,-1.4657,-1.4657,-1.4657,-1.4657,-1.4657,-1.4657,-1.4741,-1.4985,-1.5628,-1.6108,-1.6347,-1.6863,-1.6397,-1.4942,-1.3525,-1.2799,-1.2806,-1.2666,-1.2659,-1.2806,-1.2879,-1.3237,-1.3962,-1.425,-1.4752,-1.5604,-1.5965,-1.6114,-1.6254,-1.6533,-1.7003,-1.762,-1.7918,-1.8512,-1.9647,-1.9792,-2.0062,-2.0537,-2.0576,-2.0576,-2.0576,-2.0576,-2.0781,-2.1309,-2.167,-2.21,-2.2578,-2.2939,-2.3135,-2.3144,-2.3144,-2.3144,-2.3144,-2.3144,-2.3144,-2.3144,-2.3144,-2.3047,-2.3135,-2.2979,-2.2534,-2.1194,-2.0912,-2.0377,-1.9067,-1.8785,-1.8345,-1.822,-1.7871,-1.7448,-1.722,-1.7114,-1.6886,-1.637,-1.664,-1.6927,-1.6162,-1.6722,-1.7253,-1.7342,-1.7342,-1.7342,-1.7155,-1.7423,-1.7594,-1.7594,-1.7917,-1.79,-1.7908,-1.784,-1.8046,-1.8849,-1.9109,-1.8985,-1.4088,-1.4088,-1.4088,-1.4088,-1.4088,-1.4088,-1.4088,-1.4166,-1.5061,-1.6116,-1.7172,-1.8141,-1.8069,-1.7342,-1.8141,-1.7989,-1.709,-1.6935,-1.6854,-1.6846,-1.6854,-1.6854,-1.6854,-1.6854,-1.6846,-1.6854,-1.6846,-1.7342,-1.8149,-1.7504,-1.7577,-1.8257,-1.7409,-1.6329,-1.5502,-1.5001,-1.4807,-1.4799,-1.3954,-1.3954,-1.4807,-1.4958,-1.51,-1.5251,-1.5542,-1.5824,-1.6167,-1.6385,-1.6673,-1.7019,-1.7097,-1.7432,-1.8218,-1.8644,-1.912,-1.9817,-2.0273,-2.0508,-2.0634,-2.0576,-2.0576,-2.0576,-2.0576,-2.0918,-2.1709,-2.1855,-2.2207,-2.2959,-2.3105,-2.3144,-2.3144,-2.3144,-2.3144,-2.3144,-2.3144,-2.3144,-2.3135,-2.3115,-2.3115,-2.3096,-2.2812,-2.2549,-2.2146,-2.1849,-2.1374,-2.0838,-2.0304,-2.0514,-1.9804,-1.8549,-1.7481,-1.7269,-1.7342,-1.7261,-1.7172,-1.7172,-1.7342,-1.709,-1.7253,-1.7577,-1.7585,-1.7577,-1.7577,-1.7423,-1.8115,-1.8603,-1.8771,-1.952,-1.9769,-1.98,-1.9505,-1.9478,-1.9621,-1.9391,-1.9079,-1.4088,-1.4088,-1.4088,-1.4088,-1.4088,-1.4088,-1.4741,-1.5884,-1.6363,-1.6846,-1.7423,-1.847,-1.9036,-1.9107,-1.9036,-1.8718,-1.823,-1.7577,-1.7342,-1.7342,-1.7342,-1.7342,-1.7342,-1.7342,-1.7342,-1.7342,-1.7342,-1.7577,-1.8069,-1.8141,-1.8364,-1.8527,-1.748,-1.6776,-1.6439,-1.5631,-1.5446,-1.5939,-1.5021,-1.4736,-1.5163,-1.5313,-1.5587,-1.6079,-1.6228,-1.6585,-1.7226,-1.7304,-1.7442,-1.7657,-1.7588,-1.8023,-1.8821,-1.9044,-1.9506,-2.0215,-2.0449,-2.0576,-2.0576,-2.0576,-2.0576,-2.0576,-2.0576,-2.084,-2.1484,-2.1758,-2.2246,-2.3037,-2.3144,-2.3144,-2.3144,-2.3144,-2.3144,-2.3144,-2.3144,-2.3144,-2.3115,-2.291,-2.2793,-2.2764,-2.2432,-2.206,-2.185,-2.1621,-2.1367,-2.0967,-2.0879,-2.0781,-2.0596,-1.9747,-1.9107,-1.9107,-1.9116,-1.8789,-1.839,-1.8789,-1.8789,-1.831,-1.8718,-1.9027,-1.9116,-1.9097,-1.9018,-1.9088,-1.9353,-1.9446,-1.9495,-1.9621,-1.9827,-1.9853,-1.9746,-1.9545,-1.9509,-1.9228,-1.8899,-1.4088,-1.4088,-1.4088,-1.425,-1.4496,-1.4741,-1.5801,-1.7253,-1.7585,-1.7666,-1.7827,-1.8877,-1.9844,-2.0479,-1.9756,-1.9353,-1.9204,-1.847,-1.806,-1.8069,-1.806,-1.8069,-1.806,-1.806,-1.806,-1.806,-1.806,-1.806,-1.8141,-1.8948,-1.9104,-1.8513,-1.7825,-1.7502,-1.733,-1.6387,-1.6219,-1.6853,-1.6228,-1.5807,-1.5807,-1.5799,-1.6149,-1.6853,-1.6922,-1.7285,-1.794,-1.8008,-1.8008,-1.8008,-1.8008,-1.8359,-1.9082,-1.9238,-1.9619,-2.0322,-2.0518,-2.0576,-2.0576,-2.0576,-2.0576,-2.0576,-2.0576,-2.0762,-2.1191,-2.1533,-2.209,-2.2842,-2.3086,-2.3144,-2.3144,-2.3144,-2.3144,-2.3144,-2.3047,-2.2978,-2.2959,-2.2627,-2.2373,-2.2334,-2.2002,-2.1602,-2.1318,-2.1143,-2.0957,-2.0684,-2.0576,-2.0576,-2.0576,-2.0576,-2.0576,-2.0576,-2.0576,-2.0245,-1.9529,-1.9932,-2.0089,-1.9441,-1.9896,-2.0072,-2.0207,-2.0265,-2.0264,-2.0023,-1.9905,-1.973,-1.9746,-1.9551,-1.9365,-1.9365,-1.9258,-1.9088,-1.8923,-1.8753,-1.8618,-1.4088,-1.4088,-1.4082,-1.465,-1.5628,-1.6527,-1.709,-1.7415,-1.839,-1.8798,-1.8957,-2.001,-2.0489,-2.0566,-2.0489,-2.0411,-2.0401,-2.0323,-2.0235,-2.0167,-2.0323,-2.0245,-2.0157,-2.0245,-2.0323,-2.0245,-2.0167,-2.0079,-2.007,-2.0285,-1.9975,-1.9238,-1.8715,-1.8228,-1.79,-1.7754,-1.7725,-1.7862,-1.7794,-1.7725,-1.7725,-1.7725,-1.7794,-1.7862,-1.7862,-1.794,-1.8008,-1.8008,-1.8008,-1.8008,-1.8008,-1.8223,-1.8672,-1.9072,-1.9492,-1.9951,-2.0352,-2.0576,-2.0576,-2.0576,-2.0576,-2.0576,-2.0576,-2.0742,-2.1152,-2.1269,-2.166,-2.2393,-2.2891,-2.3066,-2.3135,-2.3105,-2.3057,-2.3008,-2.2764,-2.2578,-2.2519,-2.2197,-2.1943,-2.1943,-2.1562,-2.1269,-2.1172,-2.0889,-2.0654,-2.0596,-2.0576,-2.0576,-2.0576,-2.0576,-2.0576,-2.0566,-2.0557,-2.0557,-2.0391,-2.0479,-2.043,-2.0333,-2.0138,-2.0029,-1.9922,-1.9707,-1.9424,-1.9639,-1.9424,-1.9355,-1.9346,-1.9287,-1.9238,-1.9062,-1.8867,-1.8533,-1.8222,-1.8105,-1.8301,-1.4088,-1.4166,-1.4817,-1.5628,-1.6683,-1.709,-1.7658,-1.839,-1.8798,-1.9353,-1.9923,-2.0401,-2.0576,-2.0576,-2.0576,-2.0576,-2.0576,-2.0576,-2.0576,-2.0576,-2.0576,-2.0576,-2.0576,-2.0576,-2.0576,-2.0576,-2.0576,-2.0576,-2.0478,-2.0059,-1.9492,-1.8916,-1.8477,-1.8184,-1.8018,-1.8008,-1.8008,-1.8008,-1.8008,-1.8008,-1.8008,-1.8008,-1.8008,-1.8008,-1.8008,-1.8008,-1.8008,-1.8008,-1.8008,-1.8008,-1.8008,-1.8203,-1.8613,-1.9053,-1.9473,-1.9893,-2.0332,-2.0576,-2.0576,-2.0576,-2.0576,-2.0576,-2.0576,-2.0654,-2.083,-2.1074,-2.1396,-2.1719,-2.2148,-2.2393,-2.2402,-2.2402,-2.2393,-2.2373,-2.2246,-2.2139,-2.2139,-2.1768,-2.1494,-2.1475,-2.1123,-2.084,-2.082,-2.0684,-2.0576,-2.0576,-2.0576,-2.0576,-2.0576,-2.0576,-2.0576,-2.0537,-2.0361,-2.0312,-2.0459,-2.0312,-2.0215,-2.0117,-1.9824,-1.9551,-1.9512,-1.9443,-1.9287,-1.9258,-1.9053,-1.8926,-1.8906,-1.8662,-1.8525,-1.8525,-1.8477,-1.8193,-1.8027,-1.8008,-1.8105,-1.4088,-1.4328,-1.5545,-1.6601,-1.7334,-1.798,-1.8709,-1.9362,-1.9432,-1.9844,-2.0566,-2.0576,-2.0576,-2.0576,-2.0576,-2.0576,-2.0576,-2.0576,-2.0576,-2.0576,-2.0576,-2.0576,-2.0576,-2.0576,-2.0576,-2.0576,-2.0576,-2.0508,-2.0322,-1.9668,-1.9062,-1.8643,-1.8213,-1.8008,-1.8008,-1.8008,-1.8008,-1.8008,-1.8008,-1.8008,-1.8008,-1.8008,-1.8008,-1.8008,-1.8008,-1.8008,-1.8008,-1.8008,-1.8008,-1.8008,-1.8008,-1.8144,-1.8387,-1.8877,-1.9346,-1.9883,-2.0322,-2.0576,-2.0576,-2.0576,-2.0712,-2.0934,-2.1011,-2.1088,-2.1359,-2.17,-2.1795,-2.1913,-2.2109,-2.2362,-2.1958,-2.2113,-2.2195,-2.1958,-2.1807,-2.1709,-2.1689,-2.1309,-2.1055,-2.1016,-2.0801,-2.0576,-2.0576,-2.0576,-2.0576,-2.0576,-2.0576,-2.0576,-2.0576,-2.0566,-2.0527,-2.041,-2.0098,-2.0078,-2.0293,-2.001,-1.9795,-1.9668,-1.9414,-1.9088,-1.9092,-1.9033,-1.8916,-1.8652,-1.8545,-1.8496,-1.8477,-1.8203,-1.8047,-1.8018,-1.8018,-1.8027,-1.8008,-1.8008,-1.8008,-1.4088,-1.4496,-1.6363,-1.7334,-1.7504,-1.9511,-2.0401,-2.0401,-2.0479,-2.0566,-2.0576,-2.0576,-2.0576,-2.0576,-2.0576,-2.0576,-2.0576,-2.0576,-2.0576,-2.0576,-2.0576,-2.0576,-2.0576,-2.0576,-2.0576,-2.0576,-2.0566,-2.0352,-1.9932,-1.9502,-1.9062,-1.8623,-1.8203,-1.8008,-1.8008,-1.8008,-1.8008,-1.8008,-1.8008,-1.8008,-1.8008,-1.8008,-1.8008,-1.8008,-1.8008,-1.8008,-1.8008,-1.8008,-1.8008,-1.8008,-1.8008,-1.8027,-1.8086,-1.8447,-1.9053,-1.9899,-2.0379,-2.0634,-2.0722,-2.0789,-2.1078,-2.1735,-2.1962,-2.2328,-2.2999,-2.3139,-2.3183,-2.335,-2.3301,-2.3058,-2.2271,-2.2715,-2.2746,-2.2076,-2.1546,-2.144,-2.133,-2.1213,-2.0703,-2.0771,-2.0896,-2.0944,-2.0799,-2.0576,-2.0712,-2.0712,-2.0644,-2.0547,-2.0498,-2.0527,-2.0361,-2.0049,-1.9883,-1.9902,-1.9893,-1.959,-1.9355,-1.9238,-1.8971,-1.8647,-1.8504,-1.8389,-1.8242,-1.8135,-1.8154,-1.8135,-1.8066,-1.8037,-1.8018,-1.8008,-1.8008,-1.8008,-1.8008,-1.8008,-1.8008,-1.5959,-1.7261,-1.8069,-1.8789,-1.9511,-2.0323,-2.0576,-2.0576,-2.0576,-2.0576,-2.0576,-2.0576,-2.0576,-2.0576,-2.0576,-2.0576,-2.0576,-2.0576,-2.0576,-2.0576,-2.0576,-2.0576,-2.0576,-2.0576,-2.0576,-2.0576,-2.0566,-2.0195,-1.9561,-1.9346,-1.8926,-1.832,-1.8086,-1.8008,-1.8008,-1.8008,-1.8008,-1.8008,-1.8008,-1.8008,-1.8008,-1.8008,-1.8008,-1.8008,-1.8008,-1.8008,-1.8008,-1.8008,-1.8008,-1.8008,-1.8008,-1.8008,-1.8047,-1.8408,-1.929,-2.0665,-2.1005,-2.151,-2.2285,-2.2403,-2.2563,-2.285,-2.301,-2.3084,-2.3452,-2.3514,-2.3514,-2.3588,-2.4108,-2.3971,-2.3242,-2.3221,-2.3297,-2.2981,-2.2787,-2.2626,-2.2648,-2.252,-2.2489,-2.2403,-2.2414,-2.2489,-2.2178,-2.1886,-2.1517,-2.1451,-2.1011,-2.0507,-2.0215,-2.0156,-2.0,-1.959,-1.9287,-1.9102,-1.9092,-1.8994,-1.8848,-1.876,-1.8523,-1.8319,-1.8174,-1.8174,-1.8076,-1.8076,-1.8018,-1.8008,-1.8027,-1.8018,-1.8008,-1.8008,-1.8008,-1.8008,-1.8008,-1.8008,-1.8008,-1.6593,-1.79,-1.8718,-1.9441,-2.0079,-2.0489,-2.0576,-2.0576,-2.0576,-2.0576,-2.0576,-2.0576,-2.0576,-2.0576,-2.0576,-2.0576,-2.0576,-2.0576,-2.0576,-2.0576,-2.0576,-2.0576,-2.0576,-2.0576,-2.0576,-2.0576,-2.0576,-2.0185,-1.9551,-1.9355,-1.8906,-1.8252,-1.8086,-1.8008,-1.8008,-1.8008,-1.8008,-1.8008,-1.8008,-1.8008,-1.8008,-1.8008,-1.8008,-1.8008,-1.8008,-1.8008,-1.8008,-1.8008,-1.8008,-1.8008,-1.8008,-1.8008,-1.8047,-1.8339,-1.9162,-2.035,-2.1063,-2.1775,-2.2736,-2.3205,-2.3661,-2.3963,-2.3975,-2.4108,-2.4397,-2.448,-2.4469,-2.4612,-2.4992,-2.5146,-2.4696,-2.4492,-2.4181,-2.3661,-2.3514,-2.3514,-2.3514,-2.3452,-2.3441,-2.3368,-2.3368,-2.3419,-2.3447,-2.2892,-2.2382,-2.2071,-2.1318,-2.0641,-2.0056,-1.9775,-1.9561,-1.915,-1.8867,-1.8652,-1.8555,-1.8477,-1.8447,-1.8369,-1.8369,-1.8115,-1.8008,-1.8008,-1.8008,-1.8008,-1.8008,-1.8008,-1.8008,-1.8008,-1.8008,-1.8008,-1.8008,-1.8008,-1.8008,-1.8008,-1.8008,-1.5861,-1.6429,-1.8141,-1.9204,-1.9441,-2.0235,-2.0576,-2.0576,-2.0576,-2.0576,-2.0576,-2.0576,-2.0576,-2.0576,-2.0576,-2.0576,-2.0576,-2.0576,-2.0576,-2.0576,-2.0576,-2.0576,-2.0576,-2.0576,-2.0576,-2.0576,-2.0576,-2.0332,-1.9863,-1.9473,-1.9043,-1.8613,-1.8184,-1.8008,-1.8008,-1.8008,-1.8008,-1.8008,-1.8008,-1.8008,-1.8008,-1.8008,-1.8008,-1.8008,-1.8008,-1.8008,-1.8008,-1.8008,-1.8008,-1.8008,-1.8008,-1.8008,-1.8057,-1.8369,-1.8633,-1.9163,-2.0411,-2.1282,-2.1711,-2.2871,-2.4028,-2.4636,-2.4933,-2.5358,-2.5943,-2.6164,-2.6164,-2.6151,-2.6245,-2.6302,-2.6302,-2.6233,-2.5581,-2.3952,-2.3879,-2.3891,-2.3734,-2.3588,-2.3599,-2.3745,-2.3806,-2.3582,-2.3602,-2.3621,-2.325,-2.2485,-2.1839,-2.1125,-2.029,-1.9872,-1.9246,-1.8901,-1.8815,-1.8735,-1.8321,-1.8018,-1.8027,-1.8037,-1.8076,-1.8008,-1.8008,-1.8008,-1.8008,-1.8008,-1.8008,-1.8008,-1.8008,-1.8008,-1.8008,-1.8008,-1.8008,-1.8008,-1.8008,-1.8008,-1.8008,-1.7649,-1.9107,-1.9756,-2.0079,-2.0157,-2.0479,-2.0576,-2.0576,-2.0576,-2.0576,-2.0576,-2.0576,-2.0576,-2.0576,-2.0576,-2.0576,-2.0576,-2.0576,-2.0576,-2.0576,-2.0576,-2.0576,-2.0576,-2.0576,-2.0576,-2.0576,-2.0576,-2.0342,-1.9922,-1.9502,-1.9072,-1.8633,-1.8223,-1.8018,-1.8008,-1.8008,-1.8008,-1.8008,-1.8008,-1.8008,-1.8008,-1.8008,-1.8008,-1.8008,-1.8008,-1.8008,-1.8008,-1.8008,-1.8008,-1.8008,-1.8008,-1.8008,-1.8037,-1.8125,-1.8665,-1.9569,-2.0163,-2.1161,-2.2364,-2.3429,-2.4331,-2.4968,-2.5581,-2.6107,-2.6452,-2.6521,-2.6521,-2.6521,-2.6521,-2.6521,-2.6521,-2.6521,-2.6151,-2.5652,-2.5569,-2.5429,-2.5346,-2.5487,-2.5569,-2.5569,-2.5569,-2.5533,-2.5402,-2.504,-2.4211,-2.3438,-2.2737,-2.1854,-2.1038,-2.0477,-2.049,-2.0071,-1.9607,-1.8887,-1.8552,-1.8202,-1.8008,-1.8008,-1.8008,-1.8008,-1.8008,-1.8008,-1.8008,-1.8008,-1.8008,-1.8008,-1.8008,-1.8008,-1.8008,-1.8008,-1.8008,-1.8008,-1.8008,-1.8008,-1.8008,-1.8381,-2.0001,-2.0411,-2.0576,-2.0576,-2.0576,-2.0576,-2.0576,-2.0576,-2.0576,-2.0576,-2.0576,-2.0576,-2.0576,-2.0576,-2.0576,-2.0576,-2.0576,-2.0576,-2.0576,-2.0576,-2.0576,-2.0576,-2.0576,-2.0576,-2.0576,-2.0576,-2.042,-2.0146,-1.9727,-1.9307,-1.8877,-1.8457,-1.8154,-1.8027,-1.8008,-1.8008,-1.8008,-1.8008,-1.8008,-1.8008,-1.8008,-1.8008,-1.8008,-1.8008,-1.8008,-1.8008,-1.8008,-1.8008,-1.8008,-1.8008,-1.8144,-1.8395,-1.8539,-1.9055,-2.0079,-2.0863,-2.1632,-2.2833,-2.4038,-2.4864,-2.5298,-2.5983,-2.6452,-2.6521,-2.6521,-2.6521,-2.6521,-2.6521,-2.6521,-2.6521,-2.6521,-2.6521,-2.6452,-2.6452,-2.6521,-2.6521,-2.6521,-2.6452,-2.6383,-2.6383,-2.6364,-2.6065,-2.5704,-2.4783,-2.4053,-2.3189,-2.2354,-2.1431,-2.0709,-2.0479,-2.0031,-1.9183,-1.8714,-1.8684,-1.8395,-1.8076,-1.8008,-1.8008,-1.8008,-1.8008,-1.8008,-1.8008,-1.8008,-1.8008,-1.8008,-1.8008,-1.8008,-1.8008,-1.8008,-1.8008,-1.8008,-1.8008,-1.8008,-1.8008,-1.792,-1.9052,-2.0081,-2.0439,-2.043,-2.042,-2.04,-2.0449,-2.0449,-2.041,-2.043,-2.0439,-2.0488,-2.0508,-2.0527,-2.0576,-2.0576,-2.0576,-2.0576,-2.0576,-2.0576,-2.0576,-2.0576,-2.0576,-2.0576,-2.0576,-2.0576,-2.0557,-2.0459,-2.0059,-1.9697,-1.9228,-1.8789,-1.8418,-1.8086,-1.8008,-1.8008,-1.8008,-1.8008,-1.8008,-1.8008,-1.8134,-1.8144,-1.8202,-1.8269,-1.8327,-1.8202,-1.8202,-1.8144,-1.8008,-1.8008,-1.8405,-1.9044,-1.9299,-1.9649,-2.0475,-2.1829,-2.218,-2.2941,-2.4013,-2.5115,-2.5339,-2.594,-2.6521,-2.6508,-2.6521,-2.6521,-2.6521,-2.6521,-2.6521,-2.6521,-2.6521,-2.6521,-2.6521,-2.6521,-2.6521,-2.6521,-2.6521,-2.6521,-2.6508,-2.6483,-2.6226,-2.5724,-2.5569,-2.4809,-2.3881,-2.3108,-2.2533,-2.1524,-2.0719,-1.9768,-1.9299,-1.911,-1.8854,-1.8854,-1.8337,-1.8008,-1.8008,-1.8008,-1.8008,-1.8008,-1.8008,-1.8008,-1.8008,-1.8008,-1.8008,-1.8008,-1.8008,-1.8008,-1.8008,-1.8008,-1.8008,-1.8008,-1.8008,-1.8008,-1.715,-1.8243,-1.9238,-1.9629,-1.9619,-1.9619,-1.9639,-1.9629,-1.9639,-1.9687,-1.9697,-1.9951,-2.0098,-2.0117,-2.043,-2.0576,-2.0576,-2.0576,-2.0576,-2.0576,-2.0576,-2.0576,-2.0576,-2.0576,-2.0576,-2.0576,-2.0576,-2.0576,-2.0527,-2.0156,-1.9717,-1.9287,-1.8877,-1.8437,-1.8076,-1.8008,-1.8008,-1.8008,-1.8008,-1.8076,-1.8202,-1.8664,-1.8977,-1.8977,-1.9562,-1.9497,-1.9044,-1.8977,-1.8586,-1.8076,-1.8008,-1.8405,-1.9299,-1.9431,-1.9814,-2.0688,-2.1035,-2.135,-2.1866,-2.2847,-2.3821,-2.4558,-2.5468,-2.6,-2.6496,-2.6521,-2.6521,-2.6521,-2.6521,-2.6521,-2.6521,-2.6521,-2.6521,-2.6521,-2.6471,-2.6483,-2.6521,-2.6521,-2.6521,-2.6496,-2.6076,-2.5749,-2.5511,-2.5209,-2.4678,-2.3924,-2.3513,-2.3166,-2.202,-2.1232,-2.0526,-2.0009,-1.9748,-1.9299,-1.8921,-1.8337,-1.8076,-1.8008,-1.8008,-1.8008,-1.8008,-1.8008,-1.8008,-1.8008,-1.8008,-1.8008,-1.8008,-1.8008,-1.8008,-1.8008,-1.8008,-1.8008,-1.8008,-1.8008,-1.8008,-1.7067,-1.8461,-1.8682,-1.8912,-1.9204,-1.8912,-1.8912,-1.9204,-1.9277,-1.9277,-1.9336,-1.9531,-1.9746,-1.9941,-2.0176,-2.041,-2.0557,-2.0576,-2.0576,-2.0576,-2.0576,-2.0576,-2.0576,-2.0576,-2.0576,-2.0576,-2.0576,-2.0576,-2.0527,-2.0303,-1.9883,-1.9365,-1.9043,-1.8603,-1.8105,-1.8395,-1.8519,-1.8664,-1.8844,-1.911,-1.9177,-1.9562,-1.9759,-1.989,-2.0333,-2.0333,-1.9879,-1.9879,-1.9562,-1.9243,-1.9177,-1.9486,-2.0257,-2.0398,-2.0782,-2.1553,-2.1678,-2.182,-2.2079,-2.2775,-2.3466,-2.414,-2.5062,-2.5657,-2.6063,-2.6289,-2.6521,-2.6521,-2.6521,-2.6521,-2.6521,-2.6521,-2.6408,-2.6126,-2.6088,-2.6201,-2.6483,-2.6214,-2.6113,-2.5963,-2.5624,-2.5159,-2.4983,-2.4657,-2.4243,-2.3754,-2.3504,-2.3108,-2.253,-2.1951,-2.1227,-2.0579,-1.9748,-1.9044,-1.8721,-1.8327,-1.8076,-1.8076,-1.8008,-1.8008,-1.8008,-1.8008,-1.8008,-1.8008,-1.8008,-1.8008,-1.8008,-1.8008,-1.8008,-1.8008,-1.8008,-1.8008,-1.8008,-1.8008,-1.8008,-1.7029,-1.8695,-1.8018,-1.8248,-1.8739,-1.8248,-1.8392,-1.9049,-1.9072,-1.9072,-1.9102,-1.918,-1.9375,-1.9775,-1.9883,-2.0137,-2.0478,-2.0527,-2.0576,-2.0576,-2.0576,-2.0576,-2.0576,-2.0576,-2.0576,-2.0576,-2.0576,-2.0576,-2.0624,-2.0682,-2.0295,-1.9819,-1.9611,-1.9143,-1.8836,-1.911,-1.9365,-1.9562,-2.0009,-2.0268,-2.0333,-2.059,-2.073,-2.0719,-2.0782,-2.0974,-2.091,-2.0846,-2.073,-2.0846,-2.0707,-2.091,-2.1628,-2.1815,-2.2187,-2.275,-2.2811,-2.2896,-2.3092,-2.3418,-2.3866,-2.4091,-2.4868,-2.5473,-2.5561,-2.5875,-2.6101,-2.6076,-2.6345,-2.6261,-2.6384,-2.6337,-2.6097,-2.5798,-2.563,-2.5774,-2.605,-2.5824,-2.5511,-2.5485,-2.5059,-2.4544,-2.4192,-2.3904,-2.3728,-2.3489,-2.3265,-2.2947,-2.2482,-2.1877,-2.1227,-2.0655,-1.9683,-1.8586,-1.8395,-1.8259,-1.8134,-1.8076,-1.8008,-1.8008,-1.8008,-1.8008,-1.8008,-1.8008,-1.8008,-1.8008,-1.8008,-1.8008,-1.8008,-1.8008,-1.8008,-1.8008,-1.8008,-1.8008,-1.8008,-1.4525,-1.5033,-1.6324,-1.6969,-1.725,-1.7707,-1.8083,-1.8311,-1.8311,-1.8359,-1.8369,-1.8633,-1.8838,-1.8984,-1.959,-1.998,-2.0137,-2.0391,-2.0566,-2.0576,-2.0576,-2.0576,-2.0644,-2.0644,-2.0644,-2.0566,-2.0576,-2.0576,-2.0722,-2.1054,-2.1205,-2.0442,-2.0628,-2.0945,-2.0151,-2.0074,-2.0333,-2.0333,-2.059,-2.0719,-2.091,-2.1365,-2.1628,-2.1616,-2.1616,-2.1939,-2.231,-2.1939,-2.1939,-2.2063,-2.1479,-2.1164,-2.1815,-2.2013,-2.2322,-2.2884,-2.3125,-2.3125,-2.3163,-2.3288,-2.354,-2.3941,-2.4255,-2.4531,-2.4971,-2.5121,-2.5209,-2.5184,-2.5159,-2.5521,-2.5897,-2.551,-2.5446,-2.5512,-2.5281,-2.5021,-2.5109,-2.5071,-2.4983,-2.4883,-2.4519,-2.413,-2.3966,-2.3552,-2.3339,-2.315,-2.3005,-2.275,-2.2372,-2.1865,-2.1416,-2.091,-2.0009,-1.9044,-1.871,-1.8519,-1.8202,-1.8066,-1.8008,-1.8008,-1.8008,-1.8008,-1.8008,-1.8008,-1.8008,-1.8008,-1.8008,-1.8008,-1.8008,-1.8008,-1.8008,-1.8008,-1.8008,-1.8008,-1.7794,-1.3962,-1.4458,-1.5013,-1.579,-1.6489,-1.6715,-1.7217,-1.7862,-1.8008,-1.8008,-1.8047,-1.8271,-1.8447,-1.8611,-1.9307,-1.9707,-1.999,-2.0361,-2.0576,-2.0576,-2.0576,-2.0576,-2.0789,-2.1011,-2.1088,-2.0722,-2.0576,-2.0576,-2.076,-2.0903,-2.0767,-2.0623,-2.101,-2.0773,-2.0767,-2.0985,-2.1175,-2.1302,-2.1616,-2.1791,-2.1865,-2.2187,-2.2445,-2.2445,-2.2445,-2.2702,-2.2944,-2.2689,-2.2702,-2.2763,-2.2249,-2.1928,-2.2322,-2.2445,-2.2702,-2.3005,-2.3125,-2.3125,-2.3125,-2.315,-2.3215,-2.3577,-2.3828,-2.4117,-2.4456,-2.4644,-2.482,-2.4833,-2.4845,-2.5,-2.5332,-2.5116,-2.5027,-2.481,-2.4722,-2.433,-2.4155,-2.4255,-2.4431,-2.433,-2.3941,-2.369,-2.3439,-2.3263,-2.3201,-2.3138,-2.3125,-2.2944,-2.2689,-2.2249,-2.1803,-2.1227,-2.0333,-1.9628,-1.9233,-1.8777,-1.8259,-1.8134,-1.8008,-1.8008,-1.8008,-1.8008,-1.8008,-1.8008,-1.8008,-1.8008,-1.8008,-1.8008,-1.8008,-1.8008,-1.8008,-1.8008,-1.8008,-1.794,-1.7579,-1.3954,-1.4728,-1.4027,-1.4665,-1.593,-1.5728,-1.6367,-1.7647,-1.794,-1.8008,-1.8008,-1.8008,-1.8232,-1.8574,-1.8975,-1.9443,-1.9932,-2.0342,-2.0576,-2.0576,-2.0576,-2.0576,-2.0789,-2.1298,-2.1593,-2.0857,-2.1155,-2.1231,-2.112,-2.0777,-2.1384,-2.1086,-2.0888,-2.1171,-2.129,-2.1678,-2.2063,-2.2137,-2.2567,-2.2884,-2.2884,-2.2944,-2.3005,-2.3005,-2.3005,-2.3005,-2.3065,-2.3005,-2.3065,-2.3125,-2.3125,-2.3125,-2.3125,-2.3125,-2.3125,-2.3125,-2.3125,-2.3125,-2.3125,-2.3125,-2.315,-2.315,-2.354,-2.3816,-2.3966,-2.4355,-2.4645,-2.4734,-2.4822,-2.5058,-2.5025,-2.5009,-2.4816,-2.4571,-2.4333,-2.3811,-2.3485,-2.37,-2.3816,-2.3803,-2.3565,-2.3351,-2.3263,-2.315,-2.3138,-2.3125,-2.3125,-2.3065,-2.2884,-2.2689,-2.2249,-2.2125,-2.1479,-2.0462,-1.9944,-1.91,-1.8519,-1.8134,-1.8008,-1.8008,-1.8008,-1.8008,-1.8008,-1.8008,-1.8008,-1.8008,-1.8008,-1.8008,-1.8008,-1.8008,-1.8008,-1.8008,-1.794,-1.7881,-1.7373,-1.2586,-1.2806,-1.3455,-1.3954,-1.4378,-1.5649,-1.6428,-1.6922,-1.7647,-1.8008,-1.794,-1.8008,-1.8047,-1.8242,-1.8555,-1.917,-1.9863,-2.0303,-2.0537,-2.0566,-2.0576,-2.0576,-2.0789,-2.1517,-2.1811,-2.2103,-2.2446,-2.2796,-2.2845,-2.3319,-2.259,-2.284,-2.2864,-2.2807,-2.2555,-2.2811,-2.2763,-2.2763,-2.3005,-2.3065,-2.3125,-2.3125,-2.3125,-2.3125,-2.3125,-2.3125,-2.3138,-2.3138,-2.3125,-2.3125,-2.3125,-2.3125,-2.3125,-2.3125,-2.3125,-2.3125,-2.3125,-2.3125,-2.3125,-2.3125,-2.3125,-2.309,-2.3384,-2.3362,-2.346,-2.3991,-2.4497,-2.4669,-2.5052,-2.5488,-2.616,-2.554,-2.5617,-2.5521,-2.4926,-2.4217,-2.4008,-2.3718,-2.3485,-2.3558,-2.3273,-2.3125,-2.3125,-2.3125,-2.3125,-2.3125,-2.3125,-2.3125,-2.3005,-2.2944,-2.2884,-2.2823,-2.2823,-2.1729,-2.0707,-1.9617,-1.8844,-1.8202,-1.8008,-1.8008,-1.8008,-1.8008,-1.8008,-1.8008,-1.8008,-1.8008,-1.8008,-1.8008,-1.8008,-1.8008,-1.8008,-1.8008,-1.7872,-1.7676,-1.6968,-1.1848,-1.2305,-1.2806,-1.3244,-1.381,-1.4665,-1.5438,-1.6,-1.6853,-1.7285,-1.7432,-1.7725,-1.8008,-1.8125,-1.8377,-1.9111,-1.9785,-2.0098,-2.0342,-2.0498,-2.0576,-2.0576,-2.0722,-2.1593,-2.1886,-2.2328,-2.3145,-2.3527,-2.3077,-2.291,-2.3138,-2.2953,-2.2977,-2.296,-2.3067,-2.3065,-2.3125,-2.3125,-2.3125,-2.3125,-2.3125,-2.3125,-2.3125,-2.3125,-2.3125,-2.3125,-2.3185,-2.3603,-2.3484,-2.3318,-2.3484,-2.3424,-2.3245,-2.3125,-2.3125,-2.3125,-2.3125,-2.3125,-2.3245,-2.3365,-2.359,-2.3245,-2.3708,-2.3813,-2.3636,-2.4073,-2.4781,-2.4951,-2.5063,-2.5522,-2.5839,-2.5618,-2.5618,-2.5618,-2.5007,-2.4452,-2.4221,-2.3943,-2.3708,-2.3543,-2.3305,-2.3198,-2.3125,-2.3125,-2.3125,-2.3125,-2.3125,-2.3125,-2.3125,-2.3125,-2.3065,-2.2811,-2.2567,-2.1479,-2.0451,-1.9617,-1.8844,-1.8269,-1.8008,-1.8008,-1.8008,-1.8008,-1.8008,-1.8008,-1.8008,-1.8008,-1.8008,-1.8008,-1.8008,-1.8008,-1.8008,-1.794,-1.7735,-1.7392,-1.6612,-1.1316,-1.1996,-1.2224,-1.2732,-1.3382,-1.3673,-1.4171,-1.4942,-1.593,-1.6498,-1.6706,-1.7354,-1.7794,-1.8047,-1.8477,-1.9014,-1.9678,-1.9775,-2.0127,-2.0352,-2.0527,-2.0576,-2.0867,-2.1507,-2.2039,-2.2421,-2.3473,-2.3793,-2.3293,-2.2902,-2.2725,-2.2815,-2.2488,-2.2384,-2.3005,-2.3125,-2.3125,-2.3125,-2.3125,-2.3125,-2.3125,-2.3125,-2.3185,-2.3305,-2.3365,-2.3352,-2.3471,-2.3884,-2.3897,-2.3721,-2.3826,-2.406,-2.3708,-2.359,-2.3531,-2.3531,-2.3292,-2.3125,-2.3245,-2.3543,-2.3662,-2.3543,-2.4496,-2.4323,-2.4368,-2.4881,-2.5673,-2.5783,-2.5946,-2.6,-2.6162,-2.5932,-2.5932,-2.5837,-2.5398,-2.4681,-2.4567,-2.435,-2.4002,-2.3721,-2.3424,-2.3424,-2.3531,-2.3125,-2.3125,-2.3125,-2.3125,-2.3125,-2.3125,-2.3125,-2.3005,-2.2494,-2.1928,-2.0835,-1.9879,-1.9233,-1.8586,-1.8212,-1.8008,-1.8008,-1.8008,-1.8008,-1.8008,-1.8008,-1.8008,-1.8008,-1.8008,-1.8008,-1.8008,-1.8008,-1.8008,-1.7794,-1.7373,-1.6673,-1.5824,-1.0858,-1.1087,-1.1922,-1.2372,-1.2586,-1.331,-1.3738,-1.4034,-1.5013,-1.5869,-1.6636,-1.6784,-1.7364,-1.7959,-1.8418,-1.8611,-1.9004,-1.9482,-1.9844,-2.0019,-2.0332,-2.0469,-2.0672,-2.1593,-2.1935,-2.2324,-2.3398,-2.4093,-2.3694,-2.3579,-2.3626,-2.3505,-2.3096,-2.3017,-2.3065,-2.3125,-2.3125,-2.3125,-2.3125,-2.3125,-2.3185,-2.3245,-2.3603,-2.4002,-2.4118,-2.4105,-2.4105,-2.4337,-2.4279,-2.4292,-2.4292,-2.4624,-2.5007,-2.5106,-2.5106,-2.4711,-2.4034,-2.3125,-2.3305,-2.3649,-2.3943,-2.4105,-2.4624,-2.4738,-2.5161,-2.5714,-2.6496,-2.7291,-2.724,-2.7137,-2.7071,-2.7188,-2.7291,-2.6916,-2.6375,-2.5783,-2.5412,-2.5077,-2.4681,-2.4337,-2.415,-2.4163,-2.4221,-2.359,-2.3125,-2.3125,-2.3125,-2.3125,-2.3125,-2.3125,-2.3005,-2.2628,-2.199,-2.0962,-2.0009,-1.9233,-1.8529,-1.8144,-1.8008,-1.8008,-1.8008,-1.8008,-1.8008,-1.8008,-1.8008,-1.8008,-1.8008,-1.8008,-1.8008,-1.7862,-1.7647,-1.7285,-1.6853,-1.6018,-1.5037,-1.0645,-1.17,-1.215,-1.2305,-1.2378,-1.2732,-1.3237,-1.381,-1.4744,-1.5728,-1.6576,-1.7207,-1.7647,-1.7988,-1.8223,-1.8418,-1.8601,-1.8981,-1.9346,-1.9629,-1.9951,-2.0068,-2.0007,-2.0482,-2.105,-2.1713,-2.2172,-2.2701,-2.3126,-2.3747,-2.3879,-2.3502,-2.3288,-2.3078,-2.3138,-2.3125,-2.3125,-2.3245,-2.3484,-2.3767,-2.3884,-2.4163,-2.4567,-2.4908,-2.4567,-2.4624,-2.4838,-2.4894,-2.4894,-2.5007,-2.5245,-2.5398,-2.5398,-2.5398,-2.5398,-2.5342,-2.4838,-2.4439,-2.4483,-2.4768,-2.4894,-2.5106,-2.5605,-2.6428,-2.6587,-2.6549,-2.6826,-2.7524,-2.7575,-2.756,-2.756,-2.756,-2.756,-2.7408,-2.6982,-2.6549,-2.6068,-2.5906,-2.5563,-2.5217,-2.4881,-2.4838,-2.461,-2.3859,-2.3339,-2.3245,-2.3185,-2.3125,-2.3125,-2.3125,-2.3005,-2.2823,-2.2187,-2.1416,-2.0451,-1.9617,-1.8721,-1.8269,-1.8008,-1.8008,-1.8008,-1.8008,-1.8008,-1.8008,-1.8008,-1.8008,-1.8008,-1.794,-1.793,-1.7569,-1.7217,-1.6645,-1.6079,-1.5013,-1.4099,-0.997,-1.1552,-1.2077,-1.2305,-1.2305,-1.2305,-1.2666,-1.3382,-1.4099,-1.4942,-1.6,-1.7001,-1.7716,-1.8018,-1.8037,-1.8193,-1.8467,-1.8584,-1.8818,-1.918,-1.9473,-1.957,-1.9679,-1.9915,-2.0452,-2.0775,-2.1677,-2.222,-2.2787,-2.3244,-2.3514,-2.3078,-2.3163,-2.3125,-2.3138,-2.3365,-2.359,-2.393,-2.4337,-2.4567,-2.4681,-2.5063,-2.5398,-2.5467,-2.5245,-2.5133,-2.5577,-2.5673,-2.5673,-2.5783,-2.6068,-2.6162,-2.6162,-2.6162,-2.6162,-2.6147,-2.5932,-2.5932,-2.5877,-2.5946,-2.6,-2.6215,-2.664,-2.7291,-2.7393,-2.7034,-2.6878,-2.7575,-2.7575,-2.756,-2.756,-2.756,-2.756,-2.7458,-2.7137,-2.6826,-2.6549,-2.6336,-2.6014,-2.5453,-2.5231,-2.5384,-2.498,-2.4111,-2.361,-2.3471,-2.3305,-2.3125,-2.3125,-2.3125,-2.2884,-2.2702,-2.2249,-2.1416,-2.0322,-1.9497,-1.8787,-1.8337,-1.8134,-1.8008,-1.8008,-1.8008,-1.8008,-1.8008,-1.8008,-1.8008,-1.8008,-1.7862,-1.7716,-1.7285,-1.6715,-1.5939,-1.5163,-1.4099,-1.3382,-0.8542,-0.9674,-1.1471,-1.2231,-1.2231,-1.2305,-1.2372,-1.2666,-1.2659,-1.331,-1.4522,-1.586,-1.7285,-1.7794,-1.794,-1.8037,-1.8096,-1.8387,-1.8533,-1.8799,-1.9082,-1.9281,-1.9479,-1.9981,-2.0695,-2.1219,-2.1732,-2.2357,-2.296,-2.3083,-2.3226,-2.3125,-2.3125,-2.3125,-2.3245,-2.3603,-2.4163,-2.461,-2.5063,-2.5231,-2.5342,-2.5563,-2.5837,-2.6297,-2.6336,-2.639,-2.6443,-2.6336,-2.639,-2.639,-2.6602,-2.6878,-2.6982,-2.7086,-2.7086,-2.7071,-2.7071,-2.7071,-2.7019,-2.6443,-2.6,-2.6443,-2.7086,-2.756,-2.756,-2.756,-2.756,-2.756,-2.756,-2.756,-2.756,-2.756,-2.756,-2.7509,-2.7357,-2.7137,-2.6878,-2.6721,-2.6336,-2.5742,-2.5618,-2.5892,-2.5494,-2.4687,-2.382,-2.3564,-2.3245,-2.3125,-2.3125,-2.3065,-2.2702,-2.2445,-2.2187,-2.1353,-1.9879,-1.9233,-1.911,-1.8529,-1.8076,-1.8008,-1.8008,-1.8008,-1.8008,-1.8008,-1.8008,-1.8008,-1.793,-1.7647,-1.7285,-1.6853,-1.628,-1.5438,-1.445,-1.3382,-1.2806,-0.7452,-0.8537,-0.9895,-1.0795,-1.1465,-1.2003,-1.2586,-1.3098,-1.3171,-1.3738,-1.4673,-1.6,-1.6775,-1.7217,-1.7794,-1.8008,-1.8027,-1.8144,-1.8252,-1.8398,-1.8633,-1.8963,-1.9422,-1.9906,-2.0604,-2.1426,-2.2036,-2.2515,-2.3067,-2.3078,-2.3125,-2.3125,-2.3125,-2.3125,-2.3305,-2.3649,-2.4163,-2.4781,-2.5287,-2.5563,-2.6108,-2.6602,-2.6864,-2.71,-2.6616,-2.6826,-2.7049,-2.6669,-2.6826,-2.7034,-2.7152,-2.7357,-2.7524,-2.756,-2.756,-2.756,-2.756,-2.756,-2.756,-2.7034,-2.6916,-2.7019,-2.7458,-2.756,-2.756,-2.756,-2.756,-2.756,-2.756,-2.756,-2.756,-2.756,-2.756,-2.756,-2.7509,-2.7357,-2.7255,-2.7049,-2.6982,-2.6481,-2.651,-2.6736,-2.609,-2.5342,-2.4446,-2.3657,-2.3339,-2.3125,-2.3125,-2.3125,-2.2823,-2.2628,-2.2506,-2.1678,-2.0268,-1.9824,-1.9573,-1.8787,-1.8008,-1.793,-1.7862,-1.8008,-1.8008,-1.8008,-1.7794,-1.7501,-1.7285,-1.7139,-1.6853,-1.628,-1.5649,-1.4871,-1.381,-1.2666,-1.2452,-0.622,-0.7007,-0.8304,-0.9593,-1.0864,-1.1539,-1.2439,-1.3164,-1.3237,-1.4027,-1.5234,-1.5649,-1.6358,-1.6932,-1.7285,-1.7794,-1.794,-1.8037,-1.8018,-1.8135,-1.8331,-1.8644,-1.8992,-1.954,-2.028,-2.1336,-2.1939,-2.2322,-2.309,-2.3078,-2.3125,-2.3185,-2.3365,-2.3484,-2.359,-2.3989,-2.4483,-2.5273,-2.5769,-2.6215,-2.6878,-2.7255,-2.7524,-2.7509,-2.7086,-2.7086,-2.7306,-2.7137,-2.7137,-2.7357,-2.7509,-2.756,-2.756,-2.756,-2.756,-2.756,-2.756,-2.756,-2.756,-2.756,-2.756,-2.7509,-2.7509,-2.756,-2.756,-2.756,-2.756,-2.756,-2.756,-2.756,-2.756,-2.756,-2.756,-2.756,-2.756,-2.7458,-2.7509,-2.7408,-2.7408,-2.7291,-2.7321,-2.7115,-2.6361,-2.5493,-2.4433,-2.3702,-2.328,-2.3125,-2.3125,-2.3125,-2.3065,-2.2944,-2.2944,-2.199,-2.091,-2.0398,-1.9759,-1.8596,-1.793,-1.7647,-1.7638,-1.7794,-1.7373,-1.6793,-1.6576,-1.6715,-1.6576,-1.6219,-1.593,-1.5641,-1.4799,-1.3954,-1.3382,-1.2378,-1.2378,-0.4753,-0.4996,-0.6996,-0.8898,-1.0559,-1.0789,-1.1459,-1.2291,-1.2445,-1.3448,-1.4879,-1.445,-1.5517,-1.7148,-1.7207,-1.7432,-1.794,-1.8008,-1.8008,-1.8047,-1.8086,-1.8115,-1.8502,-1.9106,-1.9932,-2.0688,-2.1491,-2.2322,-2.3017,-2.3078,-2.3065,-2.3305,-2.3721,-2.4176,-2.4394,-2.5618,-2.6669,-2.7306,-2.7306,-2.7306,-2.7408,-2.7524,-2.7575,-2.756,-2.7458,-2.7458,-2.7458,-2.7458,-2.7458,-2.756,-2.756,-2.756,-2.756,-2.756,-2.756,-2.756,-2.756,-2.756,-2.756,-2.756,-2.756,-2.756,-2.756,-2.756,-2.756,-2.756,-2.756,-2.756,-2.756,-2.756,-2.756,-2.756,-2.756,-2.756,-2.756,-2.756,-2.756,-2.756,-2.756,-2.756,-2.7524,-2.7306,-2.652,-2.5617,-2.446,-2.3702,-2.328,-2.3125,-2.3125,-2.3125,-2.3125,-2.3005,-2.2944,-2.199,-2.0974,-2.0655,-1.9944,-1.8721,-1.793,-1.7716,-1.7423,-1.7432,-1.6793,-1.5799,-1.5799,-1.6289,-1.5799,-1.5163,-1.4728,-1.4227,-1.3585,-1.2879,-1.2452,-1.2305,-1.2305,-0.2925,-0.4725,-0.5484,-0.6893,-0.8898,-1.026,-1.1013,-1.1391,-1.207,-1.3018,-1.4099,-1.4378,-1.5446,-1.6715,-1.7432,-1.7579,-1.793,-1.8008,-1.8008,-1.8008,-1.8008,-1.8472,-1.8787,-1.9177,-1.9814,-2.0655,-2.1491,-2.2002,-2.2261,-2.2823,-2.3065,-2.3305,-2.3943,-2.458,-2.4794,-2.5398,-2.555,-2.6602,-2.6878,-2.7049,-2.7509,-2.756,-2.756,-2.756,-2.756,-2.756,-2.756,-2.756,-2.756,-2.756,-2.756,-2.756,-2.756,-2.756,-2.756,-2.756,-2.756,-2.756,-2.756,-2.756,-2.756,-2.756,-2.756,-2.756,-2.756,-2.756,-2.756,-2.756,-2.756,-2.756,-2.756,-2.756,-2.756,-2.756,-2.756,-2.756,-2.756,-2.756,-2.756,-2.756,-2.756,-2.6959,-2.6249,-2.5656,-2.4657,-2.4076,-2.3709,-2.328,-2.3185,-2.3125,-2.3065,-2.2884,-2.2567,-2.1741,-2.0974,-2.0398,-1.9628,-1.8462,-1.8008,-1.793,-1.7647,-1.7217,-1.6784,-1.6149,-1.6009,-1.579,-1.4879,-1.4027,-1.3382,-1.2732,-1.2666,-1.2519,-1.2378,-1.2305,-1.2305,-0.1095,-0.3115,-0.3856,-0.5084,-0.6836,-0.891,-1.011,-1.0783,-1.1539,-1.2498,-1.36,-1.4099,-1.5155,-1.6289,-1.6862,-1.7657,-1.7862,-1.8008,-1.8008,-1.8008,-1.8008,-1.8529,-1.8977,-1.9365,-2.0074,-2.0846,-2.1491,-2.2002,-2.2445,-2.2884,-2.3412,-2.3989,-2.4163,-2.5106,-2.555,-2.5823,-2.5823,-2.6774,-2.71,-2.7203,-2.7524,-2.756,-2.756,-2.756,-2.756,-2.756,-2.756,-2.756,-2.756,-2.756,-2.756,-2.756,-2.756,-2.756,-2.756,-2.756,-2.756,-2.756,-2.756,-2.756,-2.756,-2.756,-2.756,-2.756,-2.756,-2.756,-2.756,-2.756,-2.756,-2.756,-2.756,-2.756,-2.756,-2.756,-2.756,-2.756,-2.756,-2.756,-2.756,-2.756,-2.7414,-2.6739,-2.6221,-2.55,-2.4827,-2.4463,-2.4112,-2.3709,-2.3245,-2.3185,-2.3005,-2.2702,-2.2249,-2.1428,-2.059,-1.9814,-1.9044,-1.8134,-1.8008,-1.8008,-1.7432,-1.6922,-1.6715,-1.6289,-1.5438,-1.4593,-1.3593,-1.2813,-1.2666,-1.2592,-1.2666,-1.2526,-1.2305,-1.2305,-1.2305,0.0649,-0.0361,-0.2232,-0.3536,-0.482,-0.6922,-0.8888,-1.0708,-1.0858,-1.197,-1.3673,-1.2952,-1.4083,-1.593,-1.5658,-1.6298,-1.7569,-1.7794,-1.793,-1.8008,-1.8008,-1.8586,-1.8911,-1.9309,-2.002,-2.1101,-2.1877,-2.2137,-2.2944,-2.3078,-2.3813,-2.4681,-2.4452,-2.5439,-2.6201,-2.6602,-2.6654,-2.7152,-2.7408,-2.7473,-2.756,-2.756,-2.756,-2.756,-2.756,-2.756,-2.756,-2.756,-2.756,-2.756,-2.756,-2.756,-2.756,-2.756,-2.756,-2.756,-2.756,-2.756,-2.756,-2.756,-2.756,-2.756,-2.756,-2.756,-2.761,-2.766,-2.776,-2.766,-2.756,-2.756,-2.756,-2.756,-2.756,-2.756,-2.756,-2.756,-2.756,-2.756,-2.756,-2.756,-2.7458,-2.707,-2.682,-2.6193,-2.5009,-2.4657,-2.4218,-2.3735,-2.3365,-2.3125,-2.2884,-2.2445,-2.1865,-2.1101,-2.0268,-1.9497,-1.8787,-1.8008,-1.794,-1.7862,-1.7285,-1.6645,-1.6158,-1.5455,-1.4386,-1.3455,-1.2879,-1.2519,-1.2378,-1.2452,-1.2526,-1.2526,-1.2305,-1.2305,-1.2305,0.2211,0.0632,-0.0562,-0.1986,-0.3691,-0.5696,-0.8164,-1.0622,-1.0864,-1.1896,-1.3673,-1.3455,-1.4083,-1.5508,-1.5305,-1.6018,-1.6645,-1.7139,-1.7501,-1.7716,-1.8008,-1.8212,-1.8596,-1.9177,-1.9694,-2.0462,-2.1302,-2.2187,-2.2433,-2.2811,-2.3649,-2.4337,-2.4624,-2.5605,-2.6269,-2.6616,-2.7034,-2.7408,-2.756,-2.756,-2.756,-2.756,-2.756,-2.756,-2.756,-2.756,-2.756,-2.756,-2.756,-2.756,-2.756,-2.756,-2.756,-2.756,-2.756,-2.756,-2.756,-2.756,-2.756,-2.756,-2.756,-2.761,-2.761,-2.761,-2.771,-2.786,-2.7959,-2.786,-2.7845,-2.7894,-2.7894,-2.7845,-2.7795,-2.776,-2.771,-2.756,-2.756,-2.756,-2.756,-2.7524,-2.7408,-2.7108,-2.6966,-2.6221,-2.5148,-2.4768,-2.4323,-2.3826,-2.3424,-2.3185,-2.2823,-2.2322,-2.1553,-2.0782,-2.0074,-1.9299,-1.8664,-1.8076,-1.7842,-1.756,-1.701,-1.6376,-1.5683,-1.4824,-1.3818,-1.3091,-1.2439,-1.2298,-1.2305,-1.2305,-1.2378,-1.2305,-1.2305,-1.2305,-1.2305,0.3971,0.2254,0.1298,-0.0557,-0.3096,-0.4781,-0.7068,-0.9316,-0.9658,-1.0697,-1.2412,-1.2485,-1.3506,-1.5092,-1.5305,-1.5948,-1.7217,-1.7364,-1.7579,-1.7862,-1.8008,-1.8654,-1.9044,-1.9497,-2.0386,-2.091,-2.1655,-2.2701,-2.2809,-2.3585,-2.4496,-2.5231,-2.5189,-2.5837,-2.6669,-2.71,-2.7203,-2.7458,-2.756,-2.756,-2.756,-2.756,-2.756,-2.756,-2.756,-2.756,-2.756,-2.756,-2.756,-2.756,-2.756,-2.756,-2.756,-2.756,-2.756,-2.756,-2.756,-2.756,-2.756,-2.756,-2.756,-2.766,-2.7795,-2.781,-2.786,-2.8042,-2.8091,-2.814,-2.8271,-2.8352,-2.8207,-2.8125,-2.8027,-2.7944,-2.781,-2.761,-2.756,-2.756,-2.7575,-2.7524,-2.7312,-2.6931,-2.6448,-2.5795,-2.5106,-2.454,-2.4034,-2.3531,-2.3305,-2.3185,-2.2763,-2.2261,-2.1365,-2.0462,-1.9748,-1.911,-1.8462,-1.7901,-1.7387,-1.7045,-1.6618,-1.5982,-1.5158,-1.4281,-1.3455,-1.2879,-1.2365,-1.2305,-1.2305,-1.2305,-1.2305,-1.2305,-1.2305,-1.2305,-1.2305,0.5796,0.4212,0.3129,0.048,-0.2727,-0.4058,-0.5738,-0.7452,-0.7702,-0.8912,-1.0634,-1.0864,-1.2398,-1.4227,-1.4736,-1.5807,-1.6793,-1.7285,-1.7579,-1.8008,-1.8008,-1.8586,-1.9431,-2.0462,-2.0613,-2.2075,-2.2932,-2.2822,-2.3942,-2.4385,-2.4824,-2.6351,-2.6176,-2.6496,-2.724,-2.7408,-2.7458,-2.7509,-2.756,-2.756,-2.756,-2.756,-2.756,-2.756,-2.756,-2.756,-2.756,-2.756,-2.756,-2.756,-2.766,-2.771,-2.7894,-2.7929,-2.7879,-2.7894,-2.8027,-2.8027,-2.8027,-2.8027,-2.7993,-2.8076,-2.8222,-2.8286,-2.8415,-2.8496,-2.8591,-2.8319,-2.8352,-2.8448,-2.8352,-2.8319,-2.8222,-2.7993,-2.776,-2.761,-2.756,-2.756,-2.756,-2.7575,-2.7494,-2.7115,-2.6909,-2.6375,-2.5986,-2.4867,-2.415,-2.3754,-2.3245,-2.3245,-2.2689,-2.2137,-2.129,-2.0333,-1.9562,-1.8854,-1.8337,-1.7736,-1.7194,-1.6587,-1.6192,-1.5426,-1.464,-1.3725,-1.2952,-1.2806,-1.2512,-1.2372,-1.2305,-1.2305,-1.2305,-1.2305,-1.2305,-1.2231,-1.2305,0.6846,0.6767,0.3835,0.1232,-0.1081,-0.3473,-0.4773,-0.5532,-0.6328,-0.8228,-1.0415,-1.0858,-1.1601,-1.3237,-1.3954,-1.495,-1.5869,-1.6932,-1.7364,-1.7725,-1.794,-1.8462,-1.8911,-1.9759,-2.0464,-2.1099,-2.1824,-2.2834,-2.3598,-2.3975,-2.4439,-2.5563,-2.5892,-2.6534,-2.7509,-2.756,-2.756,-2.756,-2.756,-2.756,-2.756,-2.756,-2.756,-2.7625,-2.7625,-2.761,-2.761,-2.761,-2.761,-2.761,-2.8076,-2.8448,-2.8966,-2.8888,-2.895,-2.895,-2.8748,-2.8717,-2.8764,-2.8764,-2.8764,-2.8857,-2.8996,-2.9042,-2.9104,-2.915,-2.9012,-2.8638,-2.8496,-2.8543,-2.8543,-2.8496,-2.8367,-2.8042,-2.771,-2.766,-2.756,-2.756,-2.756,-2.756,-2.756,-2.7408,-2.724,-2.6967,-2.6654,-2.6094,-2.5384,-2.4711,-2.3813,-2.3424,-2.2689,-2.2063,-2.1227,-2.0333,-1.9497,-1.8721,-1.8202,-1.7639,-1.703,-1.6381,-1.5624,-1.4537,-1.3441,-1.298,-1.2445,-1.2445,-1.2445,-1.2378,-1.2305,-1.215,-1.2057,-1.1977,-1.2063,-1.2063,-1.2224,0.8264,0.7623,0.4963,0.2467,0.0287,-0.1808,-0.3354,-0.466,-0.5315,-0.7306,-0.989,-1.0265,-1.1162,-1.2659,-1.3528,-1.4171,-1.5234,-1.6219,-1.6784,-1.7285,-1.792,-1.8654,-1.9044,-1.9507,-2.0846,-2.162,-2.2506,-2.3382,-2.3518,-2.454,-2.5398,-2.5783,-2.6108,-2.6692,-2.756,-2.756,-2.756,-2.756,-2.756,-2.756,-2.756,-2.756,-2.781,-2.786,-2.781,-2.7745,-2.7944,-2.7993,-2.7993,-2.8042,-2.8319,-2.8271,-2.8448,-2.8352,-2.8638,-2.8826,-2.8904,-2.9134,-2.9316,-2.9451,-2.9496,-2.948,-2.9451,-2.9316,-2.9361,-2.9406,-2.9496,-2.9164,-2.9435,-2.9524,-2.895,-2.8779,-2.8559,-2.8238,-2.786,-2.761,-2.756,-2.756,-2.756,-2.756,-2.7509,-2.7291,-2.7086,-2.6774,-2.6336,-2.5342,-2.4894,-2.4654,-2.3989,-2.3412,-2.2689,-2.1939,-2.1037,-2.059,-2.0139,-1.911,-1.8066,-1.7552,-1.6847,-1.5435,-1.4221,-1.3208,-1.2305,-1.2378,-1.2378,-1.2305,-1.2305,-1.2231,-1.1848,-1.1539,-1.1514,-1.1489,-1.1656,-1.1681,-1.1755,0.9476,0.7822,0.6175,0.4046,0.1653,0.0217,-0.1639,-0.3803,-0.453,-0.6224,-0.8675,-0.9216,-1.1081,-1.2718,-1.3745,-1.4314,-1.5021,-1.579,-1.628,-1.6853,-1.7432,-1.8172,-1.9233,-2.0237,-2.1156,-2.2243,-2.3318,-2.3623,-2.3884,-2.4838,-2.5618,-2.639,-2.6982,-2.7524,-2.7575,-2.756,-2.756,-2.756,-2.756,-2.756,-2.756,-2.761,-2.7845,-2.7993,-2.7944,-2.791,-2.8238,-2.8383,-2.8367,-2.8511,-2.8511,-2.867,-2.8717,-2.881,-2.898,-2.9271,-2.9406,-2.9585,-2.9673,-2.9848,-2.9805,-2.9717,-2.9629,-2.9673,-2.9761,-2.9832,-2.9876,-2.9935,-3.0192,-3.0021,-2.9451,-2.8996,-2.8732,-2.8367,-2.7993,-2.761,-2.761,-2.761,-2.756,-2.756,-2.7458,-2.724,-2.7034,-2.6721,-2.596,-2.4908,-2.4176,-2.3826,-2.3471,-2.2992,-2.2445,-2.1678,-2.0782,-2.0526,-2.0268,-1.9233,-1.793,-1.7194,-1.6305,-1.4473,-1.3049,-1.2551,-1.2305,-1.2305,-1.2305,-1.2305,-1.215,-1.1996,-1.1539,-1.1087,-1.0703,-1.0611,-1.0616,-1.0708,-1.0989,0.9539,0.7892,0.6815,0.5674,0.4224,0.1299,-0.0521,-0.1317,-0.3663,-0.5607,-0.7057,-0.8827,-1.0565,-1.2586,-1.3455,-1.3882,-1.4099,-1.5013,-1.6,-1.6636,-1.6922,-1.7619,-1.87,-2.0085,-2.0764,-2.1889,-2.3005,-2.3305,-2.3767,-2.4452,-2.5119,-2.5673,-2.6457,-2.7049,-2.756,-2.756,-2.756,-2.756,-2.756,-2.756,-2.7625,-2.761,-2.761,-2.766,-2.766,-2.7675,-2.776,-2.776,-2.776,-2.8027,-2.8685,-2.921,-2.9435,-2.9629,-2.9935,-2.9978,-3.0123,-3.0335,-3.0477,-3.0559,-3.0518,-3.0559,-3.0559,-3.0617,-3.0699,-3.0699,-3.0601,-3.0335,-3.0435,-3.0208,-2.9761,-2.9406,-2.9088,-2.8559,-2.814,-2.786,-2.7725,-2.766,-2.756,-2.756,-2.756,-2.7458,-2.7408,-2.6982,-2.639,-2.5398,-2.458,-2.4163,-2.3649,-2.2919,-2.2137,-2.1428,-2.0643,-1.9944,-1.9497,-1.87,-1.7609,-1.6865,-1.5808,-1.4222,-1.302,-1.2492,-1.2305,-1.2305,-1.2305,-1.2305,-1.2077,-1.1922,-1.1391,-1.0858,-0.9965,-0.9588,-0.9669,-0.9669,-0.9965]}]]